<?xml version="1.0" encoding="UTF-8" standalone="no" ?>
<gpx xmlns="http://www.topografix.com/GPX/1/1" xmlns:xsi="http://www.w3.org/2001/XMLSchema-instance" xsi:schemaLocation="http://www.topografix.com/GPX/1/1 http://www.topografix.com/GPX/1/1/gpx.xsd" version="1.1" creator="VisuGPX - https://www.visugpx.com">
  <metadata>
    <name>De Rosans à Vaucluse Haute</name>
    <desc><![CDATA[De Rosans à Vaucluse Haute, fait par Lise T en 2016]]></desc>
  </metadata>
  <trk>
    <name><![CDATA[De Rosans à Vaucluse Haute]]></name>
    <trkseg>
      <trkpt lat="44.38239" lon="5.4628">
        <ele>588.8</ele>
        <time>2016-08-14T08:51:01Z</time>
      </trkpt>
      <trkpt lat="44.38238" lon="5.4628">
        <ele>588.9</ele>
        <time>2016-08-14T08:51:02Z</time>
      </trkpt>
      <trkpt lat="44.38238" lon="5.46294">
        <ele>589.6</ele>
        <time>2016-08-14T08:52:12Z</time>
      </trkpt>
      <trkpt lat="44.38239" lon="5.46307">
        <ele>590.7</ele>
        <time>2016-08-14T08:54:41Z</time>
      </trkpt>
      <trkpt lat="44.38236" lon="5.46295">
        <ele>590.5</ele>
        <time>2016-08-14T08:55:39Z</time>
      </trkpt>
      <trkpt lat="44.38234" lon="5.46283">
        <ele>591.1</ele>
        <time>2016-08-14T08:56:00Z</time>
      </trkpt>
      <trkpt lat="44.38228" lon="5.46292">
        <ele>591.4</ele>
        <time>2016-08-14T08:57:48Z</time>
      </trkpt>
      <trkpt lat="44.38236" lon="5.46286">
        <ele>590.9</ele>
        <time>2016-08-14T09:00:42Z</time>
      </trkpt>
      <trkpt lat="44.38229" lon="5.46295">
        <ele>591.4</ele>
        <time>2016-08-14T09:00:59Z</time>
      </trkpt>
      <trkpt lat="44.3822" lon="5.46295">
        <ele>591.9</ele>
        <time>2016-08-14T09:04:05Z</time>
      </trkpt>
      <trkpt lat="44.38211" lon="5.46292">
        <ele>591.9</ele>
        <time>2016-08-14T09:06:23Z</time>
      </trkpt>
      <trkpt lat="44.38203" lon="5.46284">
        <ele>591.9</ele>
        <time>2016-08-14T09:07:34Z</time>
      </trkpt>
      <trkpt lat="44.382" lon="5.46273">
        <ele>591.4</ele>
        <time>2016-08-14T09:08:47Z</time>
      </trkpt>
      <trkpt lat="44.38191" lon="5.46275">
        <ele>592.1</ele>
        <time>2016-08-14T09:09:23Z</time>
      </trkpt>
      <trkpt lat="44.38182" lon="5.46279">
        <ele>591.3</ele>
        <time>2016-08-14T09:11:05Z</time>
      </trkpt>
      <trkpt lat="44.38173" lon="5.4628">
        <ele>591.7</ele>
        <time>2016-08-14T09:11:31Z</time>
      </trkpt>
      <trkpt lat="44.38182" lon="5.46278">
        <ele>591.8</ele>
        <time>2016-08-14T09:12:03Z</time>
      </trkpt>
      <trkpt lat="44.38182" lon="5.46266">
        <ele>591.8</ele>
        <time>2016-08-14T09:13:10Z</time>
      </trkpt>
      <trkpt lat="44.38188" lon="5.46275">
        <ele>591.4</ele>
        <time>2016-08-14T09:13:59Z</time>
      </trkpt>
      <trkpt lat="44.38184" lon="5.46287">
        <ele>591.6</ele>
        <time>2016-08-14T09:14:09Z</time>
      </trkpt>
      <trkpt lat="44.38178" lon="5.46298">
        <ele>591.9</ele>
        <time>2016-08-14T09:14:20Z</time>
      </trkpt>
      <trkpt lat="44.38173" lon="5.46309">
        <ele>591.7</ele>
        <time>2016-08-14T09:14:27Z</time>
      </trkpt>
      <trkpt lat="44.38172" lon="5.46321">
        <ele>591.4</ele>
        <time>2016-08-14T09:14:34Z</time>
      </trkpt>
      <trkpt lat="44.38166" lon="5.46332">
        <ele>592.1</ele>
        <time>2016-08-14T09:14:44Z</time>
      </trkpt>
      <trkpt lat="44.38171" lon="5.46344">
        <ele>592.4</ele>
        <time>2016-08-14T09:15:34Z</time>
      </trkpt>
      <trkpt lat="44.38174" lon="5.46356">
        <ele>592.5</ele>
        <time>2016-08-14T09:15:42Z</time>
      </trkpt>
      <trkpt lat="44.38175" lon="5.46369">
        <ele>592.8</ele>
        <time>2016-08-14T09:15:49Z</time>
      </trkpt>
      <trkpt lat="44.38176" lon="5.46382">
        <ele>593</ele>
        <time>2016-08-14T09:15:56Z</time>
      </trkpt>
      <trkpt lat="44.38176" lon="5.46395">
        <ele>593</ele>
        <time>2016-08-14T09:16:03Z</time>
      </trkpt>
      <trkpt lat="44.38175" lon="5.46409">
        <ele>593.1</ele>
        <time>2016-08-14T09:16:11Z</time>
      </trkpt>
      <trkpt lat="44.3817" lon="5.4642">
        <ele>593.9</ele>
        <time>2016-08-14T09:16:30Z</time>
      </trkpt>
      <trkpt lat="44.38161" lon="5.46418">
        <ele>593.9</ele>
        <time>2016-08-14T09:16:38Z</time>
      </trkpt>
      <trkpt lat="44.38152" lon="5.46414">
        <ele>594</ele>
        <time>2016-08-14T09:16:46Z</time>
      </trkpt>
      <trkpt lat="44.38144" lon="5.46409">
        <ele>594</ele>
        <time>2016-08-14T09:16:53Z</time>
      </trkpt>
      <trkpt lat="44.38135" lon="5.46403">
        <ele>593.9</ele>
        <time>2016-08-14T09:17:01Z</time>
      </trkpt>
      <trkpt lat="44.38127" lon="5.46397">
        <ele>593.4</ele>
        <time>2016-08-14T09:17:10Z</time>
      </trkpt>
      <trkpt lat="44.38118" lon="5.46392">
        <ele>593.1</ele>
        <time>2016-08-14T09:17:18Z</time>
      </trkpt>
      <trkpt lat="44.38108" lon="5.46391">
        <ele>592.8</ele>
        <time>2016-08-14T09:17:26Z</time>
      </trkpt>
      <trkpt lat="44.38099" lon="5.46393">
        <ele>592.9</ele>
        <time>2016-08-14T09:17:33Z</time>
      </trkpt>
      <trkpt lat="44.38089" lon="5.46396">
        <ele>593</ele>
        <time>2016-08-14T09:17:40Z</time>
      </trkpt>
      <trkpt lat="44.38079" lon="5.46397">
        <ele>592.9</ele>
        <time>2016-08-14T09:17:47Z</time>
      </trkpt>
      <trkpt lat="44.38069" lon="5.46395">
        <ele>592.5</ele>
        <time>2016-08-14T09:17:55Z</time>
      </trkpt>
      <trkpt lat="44.3806" lon="5.46388">
        <ele>592</ele>
        <time>2016-08-14T09:18:03Z</time>
      </trkpt>
      <trkpt lat="44.38054" lon="5.46379">
        <ele>591.7</ele>
        <time>2016-08-14T09:18:09Z</time>
      </trkpt>
      <trkpt lat="44.38047" lon="5.46369">
        <ele>591.5</ele>
        <time>2016-08-14T09:18:16Z</time>
      </trkpt>
      <trkpt lat="44.3804" lon="5.46359">
        <ele>591.2</ele>
        <time>2016-08-14T09:18:23Z</time>
      </trkpt>
      <trkpt lat="44.38032" lon="5.46351">
        <ele>590.9</ele>
        <time>2016-08-14T09:18:30Z</time>
      </trkpt>
      <trkpt lat="44.38024" lon="5.46345">
        <ele>590.6</ele>
        <time>2016-08-14T09:18:37Z</time>
      </trkpt>
      <trkpt lat="44.38015" lon="5.46341">
        <ele>590.4</ele>
        <time>2016-08-14T09:18:44Z</time>
      </trkpt>
      <trkpt lat="44.38006" lon="5.46339">
        <ele>590.1</ele>
        <time>2016-08-14T09:18:51Z</time>
      </trkpt>
      <trkpt lat="44.37996" lon="5.4634">
        <ele>589.9</ele>
        <time>2016-08-14T09:18:58Z</time>
      </trkpt>
      <trkpt lat="44.37986" lon="5.46343">
        <ele>589.7</ele>
        <time>2016-08-14T09:19:05Z</time>
      </trkpt>
      <trkpt lat="44.37976" lon="5.46348">
        <ele>589.5</ele>
        <time>2016-08-14T09:19:12Z</time>
      </trkpt>
      <trkpt lat="44.37967" lon="5.46352">
        <ele>589.4</ele>
        <time>2016-08-14T09:19:19Z</time>
      </trkpt>
      <trkpt lat="44.37957" lon="5.46356">
        <ele>589.3</ele>
        <time>2016-08-14T09:19:26Z</time>
      </trkpt>
      <trkpt lat="44.37947" lon="5.46358">
        <ele>589.2</ele>
        <time>2016-08-14T09:19:34Z</time>
      </trkpt>
      <trkpt lat="44.37937" lon="5.4636">
        <ele>589.1</ele>
        <time>2016-08-14T09:19:42Z</time>
      </trkpt>
      <trkpt lat="44.37928" lon="5.46362">
        <ele>588.8</ele>
        <time>2016-08-14T09:19:48Z</time>
      </trkpt>
      <trkpt lat="44.37919" lon="5.46364">
        <ele>588.5</ele>
        <time>2016-08-14T09:19:55Z</time>
      </trkpt>
      <trkpt lat="44.37909" lon="5.46367">
        <ele>588.3</ele>
        <time>2016-08-14T09:20:02Z</time>
      </trkpt>
      <trkpt lat="44.37899" lon="5.46372">
        <ele>588.1</ele>
        <time>2016-08-14T09:20:09Z</time>
      </trkpt>
      <trkpt lat="44.3789" lon="5.46376">
        <ele>587.8</ele>
        <time>2016-08-14T09:20:17Z</time>
      </trkpt>
      <trkpt lat="44.37882" lon="5.46382">
        <ele>587.5</ele>
        <time>2016-08-14T09:20:24Z</time>
      </trkpt>
      <trkpt lat="44.37873" lon="5.46387">
        <ele>587.4</ele>
        <time>2016-08-14T09:20:31Z</time>
      </trkpt>
      <trkpt lat="44.37864" lon="5.46392">
        <ele>587.3</ele>
        <time>2016-08-14T09:20:38Z</time>
      </trkpt>
      <trkpt lat="44.37855" lon="5.46396">
        <ele>587.2</ele>
        <time>2016-08-14T09:20:45Z</time>
      </trkpt>
      <trkpt lat="44.37846" lon="5.46399">
        <ele>587</ele>
        <time>2016-08-14T09:20:52Z</time>
      </trkpt>
      <trkpt lat="44.37837" lon="5.46399">
        <ele>586.8</ele>
        <time>2016-08-14T09:20:59Z</time>
      </trkpt>
      <trkpt lat="44.37827" lon="5.46398">
        <ele>586.7</ele>
        <time>2016-08-14T09:21:06Z</time>
      </trkpt>
      <trkpt lat="44.37817" lon="5.46396">
        <ele>586.6</ele>
        <time>2016-08-14T09:21:14Z</time>
      </trkpt>
      <trkpt lat="44.37807" lon="5.46394">
        <ele>586.7</ele>
        <time>2016-08-14T09:21:21Z</time>
      </trkpt>
      <trkpt lat="44.37797" lon="5.46392">
        <ele>586.9</ele>
        <time>2016-08-14T09:21:28Z</time>
      </trkpt>
      <trkpt lat="44.37787" lon="5.46393">
        <ele>587.2</ele>
        <time>2016-08-14T09:21:35Z</time>
      </trkpt>
      <trkpt lat="44.37778" lon="5.46397">
        <ele>587.4</ele>
        <time>2016-08-14T09:21:42Z</time>
      </trkpt>
      <trkpt lat="44.37769" lon="5.46401">
        <ele>587.4</ele>
        <time>2016-08-14T09:21:49Z</time>
      </trkpt>
      <trkpt lat="44.37759" lon="5.46405">
        <ele>587.2</ele>
        <time>2016-08-14T09:21:56Z</time>
      </trkpt>
      <trkpt lat="44.3775" lon="5.46408">
        <ele>587.2</ele>
        <time>2016-08-14T09:22:03Z</time>
      </trkpt>
      <trkpt lat="44.3774" lon="5.4641">
        <ele>587.3</ele>
        <time>2016-08-14T09:22:10Z</time>
      </trkpt>
      <trkpt lat="44.3773" lon="5.46408">
        <ele>587.1</ele>
        <time>2016-08-14T09:22:17Z</time>
      </trkpt>
      <trkpt lat="44.37721" lon="5.46407">
        <ele>587</ele>
        <time>2016-08-14T09:22:24Z</time>
      </trkpt>
      <trkpt lat="44.37711" lon="5.46405">
        <ele>586.9</ele>
        <time>2016-08-14T09:22:31Z</time>
      </trkpt>
      <trkpt lat="44.37701" lon="5.46403">
        <ele>587</ele>
        <time>2016-08-14T09:22:39Z</time>
      </trkpt>
      <trkpt lat="44.37691" lon="5.46401">
        <ele>587</ele>
        <time>2016-08-14T09:22:46Z</time>
      </trkpt>
      <trkpt lat="44.37681" lon="5.46398">
        <ele>587</ele>
        <time>2016-08-14T09:22:53Z</time>
      </trkpt>
      <trkpt lat="44.37671" lon="5.46396">
        <ele>587</ele>
        <time>2016-08-14T09:23:00Z</time>
      </trkpt>
      <trkpt lat="44.37662" lon="5.46394">
        <ele>587</ele>
        <time>2016-08-14T09:23:07Z</time>
      </trkpt>
      <trkpt lat="44.37652" lon="5.46393">
        <ele>586.8</ele>
        <time>2016-08-14T09:23:14Z</time>
      </trkpt>
      <trkpt lat="44.37642" lon="5.46394">
        <ele>586.9</ele>
        <time>2016-08-14T09:23:21Z</time>
      </trkpt>
      <trkpt lat="44.37633" lon="5.46395">
        <ele>586.9</ele>
        <time>2016-08-14T09:23:28Z</time>
      </trkpt>
      <trkpt lat="44.37623" lon="5.46399">
        <ele>586.8</ele>
        <time>2016-08-14T09:23:35Z</time>
      </trkpt>
      <trkpt lat="44.37614" lon="5.46401">
        <ele>586.6</ele>
        <time>2016-08-14T09:23:42Z</time>
      </trkpt>
      <trkpt lat="44.37604" lon="5.46404">
        <ele>586.3</ele>
        <time>2016-08-14T09:23:49Z</time>
      </trkpt>
      <trkpt lat="44.37595" lon="5.46407">
        <ele>586.1</ele>
        <time>2016-08-14T09:23:56Z</time>
      </trkpt>
      <trkpt lat="44.37586" lon="5.46411">
        <ele>585.6</ele>
        <time>2016-08-14T09:24:03Z</time>
      </trkpt>
      <trkpt lat="44.37577" lon="5.46415">
        <ele>584.1</ele>
        <time>2016-08-14T09:24:18Z</time>
      </trkpt>
      <trkpt lat="44.37568" lon="5.46419">
        <ele>583.1</ele>
        <time>2016-08-14T09:24:51Z</time>
      </trkpt>
      <trkpt lat="44.37559" lon="5.46424">
        <ele>582.4</ele>
        <time>2016-08-14T09:25:10Z</time>
      </trkpt>
      <trkpt lat="44.3755" lon="5.46428">
        <ele>582.5</ele>
        <time>2016-08-14T09:25:17Z</time>
      </trkpt>
      <trkpt lat="44.37541" lon="5.4643">
        <ele>582.3</ele>
        <time>2016-08-14T09:25:28Z</time>
      </trkpt>
      <trkpt lat="44.37532" lon="5.46432">
        <ele>581.5</ele>
        <time>2016-08-14T09:25:37Z</time>
      </trkpt>
      <trkpt lat="44.37522" lon="5.46432">
        <ele>580.9</ele>
        <time>2016-08-14T09:25:46Z</time>
      </trkpt>
      <trkpt lat="44.37514" lon="5.46426">
        <ele>580.3</ele>
        <time>2016-08-14T09:26:01Z</time>
      </trkpt>
      <trkpt lat="44.37506" lon="5.46419">
        <ele>580</ele>
        <time>2016-08-14T09:26:08Z</time>
      </trkpt>
      <trkpt lat="44.37498" lon="5.46412">
        <ele>579.7</ele>
        <time>2016-08-14T09:26:15Z</time>
      </trkpt>
      <trkpt lat="44.37491" lon="5.46404">
        <ele>579</ele>
        <time>2016-08-14T09:26:26Z</time>
      </trkpt>
      <trkpt lat="44.37483" lon="5.46395">
        <ele>578.5</ele>
        <time>2016-08-14T09:26:33Z</time>
      </trkpt>
      <trkpt lat="44.37477" lon="5.46385">
        <ele>578.2</ele>
        <time>2016-08-14T09:26:39Z</time>
      </trkpt>
      <trkpt lat="44.37471" lon="5.46375">
        <ele>577.7</ele>
        <time>2016-08-14T09:26:47Z</time>
      </trkpt>
      <trkpt lat="44.37465" lon="5.46365">
        <ele>577.4</ele>
        <time>2016-08-14T09:26:53Z</time>
      </trkpt>
      <trkpt lat="44.37459" lon="5.46353">
        <ele>577.1</ele>
        <time>2016-08-14T09:27:00Z</time>
      </trkpt>
      <trkpt lat="44.37454" lon="5.46341">
        <ele>576.6</ele>
        <time>2016-08-14T09:27:07Z</time>
      </trkpt>
      <trkpt lat="44.3745" lon="5.46329">
        <ele>576.1</ele>
        <time>2016-08-14T09:27:15Z</time>
      </trkpt>
      <trkpt lat="44.37444" lon="5.46317">
        <ele>575.4</ele>
        <time>2016-08-14T09:27:26Z</time>
      </trkpt>
      <trkpt lat="44.37439" lon="5.46305">
        <ele>575.2</ele>
        <time>2016-08-14T09:27:32Z</time>
      </trkpt>
      <trkpt lat="44.37435" lon="5.46294">
        <ele>574.7</ele>
        <time>2016-08-14T09:27:38Z</time>
      </trkpt>
      <trkpt lat="44.3743" lon="5.46283">
        <ele>574.4</ele>
        <time>2016-08-14T09:27:44Z</time>
      </trkpt>
      <trkpt lat="44.37426" lon="5.46272">
        <ele>574.2</ele>
        <time>2016-08-14T09:27:50Z</time>
      </trkpt>
      <trkpt lat="44.37419" lon="5.46261">
        <ele>573.7</ele>
        <time>2016-08-14T09:27:57Z</time>
      </trkpt>
      <trkpt lat="44.37411" lon="5.46254">
        <ele>573.2</ele>
        <time>2016-08-14T09:28:04Z</time>
      </trkpt>
      <trkpt lat="44.37401" lon="5.46252">
        <ele>573</ele>
        <time>2016-08-14T09:28:11Z</time>
      </trkpt>
      <trkpt lat="44.37391" lon="5.4625">
        <ele>572.5</ele>
        <time>2016-08-14T09:28:18Z</time>
      </trkpt>
      <trkpt lat="44.37381" lon="5.46248">
        <ele>572.3</ele>
        <time>2016-08-14T09:28:25Z</time>
      </trkpt>
      <trkpt lat="44.37371" lon="5.46245">
        <ele>572</ele>
        <time>2016-08-14T09:28:32Z</time>
      </trkpt>
      <trkpt lat="44.37361" lon="5.46242">
        <ele>571.9</ele>
        <time>2016-08-14T09:28:39Z</time>
      </trkpt>
      <trkpt lat="44.37351" lon="5.46238">
        <ele>571.7</ele>
        <time>2016-08-14T09:28:46Z</time>
      </trkpt>
      <trkpt lat="44.37342" lon="5.46234">
        <ele>571.5</ele>
        <time>2016-08-14T09:28:53Z</time>
      </trkpt>
      <trkpt lat="44.37333" lon="5.46229">
        <ele>571.3</ele>
        <time>2016-08-14T09:29:04Z</time>
      </trkpt>
      <trkpt lat="44.37326" lon="5.46221">
        <ele>571.2</ele>
        <time>2016-08-14T09:29:11Z</time>
      </trkpt>
      <trkpt lat="44.37317" lon="5.46216">
        <ele>570.7</ele>
        <time>2016-08-14T09:29:18Z</time>
      </trkpt>
      <trkpt lat="44.37307" lon="5.46213">
        <ele>570.5</ele>
        <time>2016-08-14T09:29:25Z</time>
      </trkpt>
      <trkpt lat="44.37297" lon="5.4621">
        <ele>570.3</ele>
        <time>2016-08-14T09:29:32Z</time>
      </trkpt>
      <trkpt lat="44.37287" lon="5.4621">
        <ele>570</ele>
        <time>2016-08-14T09:29:39Z</time>
      </trkpt>
      <trkpt lat="44.37277" lon="5.46208">
        <ele>569.8</ele>
        <time>2016-08-14T09:29:46Z</time>
      </trkpt>
      <trkpt lat="44.37267" lon="5.46207">
        <ele>569.5</ele>
        <time>2016-08-14T09:29:53Z</time>
      </trkpt>
      <trkpt lat="44.37257" lon="5.46203">
        <ele>569.3</ele>
        <time>2016-08-14T09:30:00Z</time>
      </trkpt>
      <trkpt lat="44.37248" lon="5.462">
        <ele>568.9</ele>
        <time>2016-08-14T09:30:08Z</time>
      </trkpt>
      <trkpt lat="44.37239" lon="5.46199">
        <ele>568.8</ele>
        <time>2016-08-14T09:30:15Z</time>
      </trkpt>
      <trkpt lat="44.3723" lon="5.46197">
        <ele>568.3</ele>
        <time>2016-08-14T09:30:22Z</time>
      </trkpt>
      <trkpt lat="44.3722" lon="5.46195">
        <ele>568.1</ele>
        <time>2016-08-14T09:30:29Z</time>
      </trkpt>
      <trkpt lat="44.3721" lon="5.46193">
        <ele>568.1</ele>
        <time>2016-08-14T09:30:37Z</time>
      </trkpt>
      <trkpt lat="44.372" lon="5.46192">
        <ele>568</ele>
        <time>2016-08-14T09:30:44Z</time>
      </trkpt>
      <trkpt lat="44.37191" lon="5.46192">
        <ele>568.3</ele>
        <time>2016-08-14T09:30:51Z</time>
      </trkpt>
      <trkpt lat="44.37182" lon="5.46196">
        <ele>568.5</ele>
        <time>2016-08-14T09:30:58Z</time>
      </trkpt>
      <trkpt lat="44.37174" lon="5.46204">
        <ele>568.5</ele>
        <time>2016-08-14T09:31:06Z</time>
      </trkpt>
      <trkpt lat="44.37167" lon="5.46212">
        <ele>568.3</ele>
        <time>2016-08-14T09:31:13Z</time>
      </trkpt>
      <trkpt lat="44.37159" lon="5.46221">
        <ele>568</ele>
        <time>2016-08-14T09:31:20Z</time>
      </trkpt>
      <trkpt lat="44.37153" lon="5.46232">
        <ele>567.9</ele>
        <time>2016-08-14T09:31:28Z</time>
      </trkpt>
      <trkpt lat="44.37146" lon="5.46242">
        <ele>567.6</ele>
        <time>2016-08-14T09:31:35Z</time>
      </trkpt>
      <trkpt lat="44.3714" lon="5.46253">
        <ele>567.4</ele>
        <time>2016-08-14T09:31:42Z</time>
      </trkpt>
      <trkpt lat="44.37134" lon="5.46264">
        <ele>567.4</ele>
        <time>2016-08-14T09:31:49Z</time>
      </trkpt>
      <trkpt lat="44.37127" lon="5.46275">
        <ele>567.2</ele>
        <time>2016-08-14T09:31:56Z</time>
      </trkpt>
      <trkpt lat="44.37121" lon="5.46286">
        <ele>567.3</ele>
        <time>2016-08-14T09:32:03Z</time>
      </trkpt>
      <trkpt lat="44.37115" lon="5.46297">
        <ele>567.4</ele>
        <time>2016-08-14T09:32:10Z</time>
      </trkpt>
      <trkpt lat="44.37109" lon="5.46309">
        <ele>567.5</ele>
        <time>2016-08-14T09:32:17Z</time>
      </trkpt>
      <trkpt lat="44.37103" lon="5.4632">
        <ele>567.3</ele>
        <time>2016-08-14T09:32:24Z</time>
      </trkpt>
      <trkpt lat="44.37098" lon="5.46332">
        <ele>567.1</ele>
        <time>2016-08-14T09:32:31Z</time>
      </trkpt>
      <trkpt lat="44.37093" lon="5.46344">
        <ele>567</ele>
        <time>2016-08-14T09:32:38Z</time>
      </trkpt>
      <trkpt lat="44.37088" lon="5.46355">
        <ele>567</ele>
        <time>2016-08-14T09:32:45Z</time>
      </trkpt>
      <trkpt lat="44.37083" lon="5.46365">
        <ele>566.9</ele>
        <time>2016-08-14T09:32:52Z</time>
      </trkpt>
      <trkpt lat="44.37078" lon="5.46377">
        <ele>566.8</ele>
        <time>2016-08-14T09:32:59Z</time>
      </trkpt>
      <trkpt lat="44.37072" lon="5.46389">
        <ele>566.8</ele>
        <time>2016-08-14T09:33:06Z</time>
      </trkpt>
      <trkpt lat="44.37067" lon="5.464">
        <ele>567</ele>
        <time>2016-08-14T09:33:13Z</time>
      </trkpt>
      <trkpt lat="44.37062" lon="5.46412">
        <ele>566.9</ele>
        <time>2016-08-14T09:33:20Z</time>
      </trkpt>
      <trkpt lat="44.37057" lon="5.46424">
        <ele>566.8</ele>
        <time>2016-08-14T09:33:27Z</time>
      </trkpt>
      <trkpt lat="44.37052" lon="5.46434">
        <ele>566.8</ele>
        <time>2016-08-14T09:33:40Z</time>
      </trkpt>
      <trkpt lat="44.37046" lon="5.46446">
        <ele>566.7</ele>
        <time>2016-08-14T09:33:48Z</time>
      </trkpt>
      <trkpt lat="44.37041" lon="5.46457">
        <ele>566.7</ele>
        <time>2016-08-14T09:33:55Z</time>
      </trkpt>
      <trkpt lat="44.37036" lon="5.46468">
        <ele>566.8</ele>
        <time>2016-08-14T09:34:02Z</time>
      </trkpt>
      <trkpt lat="44.37031" lon="5.4648">
        <ele>567</ele>
        <time>2016-08-14T09:34:10Z</time>
      </trkpt>
      <trkpt lat="44.37024" lon="5.46489">
        <ele>567.1</ele>
        <time>2016-08-14T09:34:19Z</time>
      </trkpt>
      <trkpt lat="44.37029" lon="5.46501">
        <ele>568</ele>
        <time>2016-08-14T09:34:29Z</time>
      </trkpt>
      <trkpt lat="44.37037" lon="5.46509">
        <ele>568.5</ele>
        <time>2016-08-14T09:34:37Z</time>
      </trkpt>
      <trkpt lat="44.37041" lon="5.46521">
        <ele>568.9</ele>
        <time>2016-08-14T09:34:46Z</time>
      </trkpt>
      <trkpt lat="44.3704" lon="5.46534">
        <ele>569.1</ele>
        <time>2016-08-14T09:34:56Z</time>
      </trkpt>
      <trkpt lat="44.3704" lon="5.46547">
        <ele>569</ele>
        <time>2016-08-14T09:36:09Z</time>
      </trkpt>
      <trkpt lat="44.37035" lon="5.46558">
        <ele>568.9</ele>
        <time>2016-08-14T09:36:38Z</time>
      </trkpt>
      <trkpt lat="44.37031" lon="5.46569">
        <ele>569</ele>
        <time>2016-08-14T09:36:47Z</time>
      </trkpt>
      <trkpt lat="44.37026" lon="5.46581">
        <ele>569.1</ele>
        <time>2016-08-14T09:36:55Z</time>
      </trkpt>
      <trkpt lat="44.3702" lon="5.46592">
        <ele>569</ele>
        <time>2016-08-14T09:37:02Z</time>
      </trkpt>
      <trkpt lat="44.37015" lon="5.46603">
        <ele>569.1</ele>
        <time>2016-08-14T09:37:09Z</time>
      </trkpt>
      <trkpt lat="44.3701" lon="5.46614">
        <ele>569.3</ele>
        <time>2016-08-14T09:37:16Z</time>
      </trkpt>
      <trkpt lat="44.37005" lon="5.46625">
        <ele>569.4</ele>
        <time>2016-08-14T09:37:23Z</time>
      </trkpt>
      <trkpt lat="44.37" lon="5.46637">
        <ele>569.2</ele>
        <time>2016-08-14T09:37:30Z</time>
      </trkpt>
      <trkpt lat="44.36995" lon="5.46648">
        <ele>568.8</ele>
        <time>2016-08-14T09:37:38Z</time>
      </trkpt>
      <trkpt lat="44.36991" lon="5.4666">
        <ele>568.8</ele>
        <time>2016-08-14T09:37:45Z</time>
      </trkpt>
      <trkpt lat="44.36986" lon="5.46671">
        <ele>568.9</ele>
        <time>2016-08-14T09:37:52Z</time>
      </trkpt>
      <trkpt lat="44.36981" lon="5.46683">
        <ele>568.9</ele>
        <time>2016-08-14T09:37:59Z</time>
      </trkpt>
      <trkpt lat="44.36976" lon="5.46694">
        <ele>569.2</ele>
        <time>2016-08-14T09:38:06Z</time>
      </trkpt>
      <trkpt lat="44.36971" lon="5.46706">
        <ele>569.6</ele>
        <time>2016-08-14T09:38:14Z</time>
      </trkpt>
      <trkpt lat="44.36967" lon="5.46718">
        <ele>569.8</ele>
        <time>2016-08-14T09:38:21Z</time>
      </trkpt>
      <trkpt lat="44.36963" lon="5.46731">
        <ele>570</ele>
        <time>2016-08-14T09:38:28Z</time>
      </trkpt>
      <trkpt lat="44.36961" lon="5.46744">
        <ele>570.3</ele>
        <time>2016-08-14T09:38:37Z</time>
      </trkpt>
      <trkpt lat="44.3696" lon="5.46758">
        <ele>570.9</ele>
        <time>2016-08-14T09:38:45Z</time>
      </trkpt>
      <trkpt lat="44.36959" lon="5.46772">
        <ele>571.4</ele>
        <time>2016-08-14T09:38:52Z</time>
      </trkpt>
      <trkpt lat="44.36959" lon="5.46785">
        <ele>572</ele>
        <time>2016-08-14T09:38:59Z</time>
      </trkpt>
      <trkpt lat="44.36959" lon="5.46799">
        <ele>572.5</ele>
        <time>2016-08-14T09:39:06Z</time>
      </trkpt>
      <trkpt lat="44.3696" lon="5.46813">
        <ele>572.8</ele>
        <time>2016-08-14T09:39:13Z</time>
      </trkpt>
      <trkpt lat="44.36961" lon="5.46827">
        <ele>573.1</ele>
        <time>2016-08-14T09:39:20Z</time>
      </trkpt>
      <trkpt lat="44.36962" lon="5.46842">
        <ele>573.4</ele>
        <time>2016-08-14T09:39:27Z</time>
      </trkpt>
      <trkpt lat="44.36962" lon="5.46855">
        <ele>573.5</ele>
        <time>2016-08-14T09:39:34Z</time>
      </trkpt>
      <trkpt lat="44.36963" lon="5.46869">
        <ele>573.6</ele>
        <time>2016-08-14T09:39:41Z</time>
      </trkpt>
      <trkpt lat="44.36963" lon="5.46882">
        <ele>573.6</ele>
        <time>2016-08-14T09:39:47Z</time>
      </trkpt>
      <trkpt lat="44.36962" lon="5.46896">
        <ele>573.7</ele>
        <time>2016-08-14T09:39:54Z</time>
      </trkpt>
      <trkpt lat="44.36963" lon="5.4691">
        <ele>573.8</ele>
        <time>2016-08-14T09:40:01Z</time>
      </trkpt>
      <trkpt lat="44.36963" lon="5.46924">
        <ele>574.1</ele>
        <time>2016-08-14T09:40:08Z</time>
      </trkpt>
      <trkpt lat="44.36964" lon="5.46938">
        <ele>574.3</ele>
        <time>2016-08-14T09:40:15Z</time>
      </trkpt>
      <trkpt lat="44.36965" lon="5.46953">
        <ele>574.5</ele>
        <time>2016-08-14T09:40:22Z</time>
      </trkpt>
      <trkpt lat="44.36965" lon="5.46967">
        <ele>574.7</ele>
        <time>2016-08-14T09:40:29Z</time>
      </trkpt>
      <trkpt lat="44.36965" lon="5.4698">
        <ele>575</ele>
        <time>2016-08-14T09:40:36Z</time>
      </trkpt>
      <trkpt lat="44.36966" lon="5.46993">
        <ele>575.1</ele>
        <time>2016-08-14T09:40:43Z</time>
      </trkpt>
      <trkpt lat="44.36964" lon="5.47005">
        <ele>575.3</ele>
        <time>2016-08-14T09:40:58Z</time>
      </trkpt>
      <trkpt lat="44.36958" lon="5.47014">
        <ele>575.3</ele>
        <time>2016-08-14T09:41:11Z</time>
      </trkpt>
      <trkpt lat="44.36948" lon="5.47016">
        <ele>575.1</ele>
        <time>2016-08-14T09:41:25Z</time>
      </trkpt>
      <trkpt lat="44.36939" lon="5.47017">
        <ele>575.1</ele>
        <time>2016-08-14T09:41:32Z</time>
      </trkpt>
      <trkpt lat="44.3693" lon="5.47018">
        <ele>575.1</ele>
        <time>2016-08-14T09:41:39Z</time>
      </trkpt>
      <trkpt lat="44.3692" lon="5.47019">
        <ele>574.9</ele>
        <time>2016-08-14T09:41:46Z</time>
      </trkpt>
      <trkpt lat="44.3691" lon="5.47021">
        <ele>574.8</ele>
        <time>2016-08-14T09:41:54Z</time>
      </trkpt>
      <trkpt lat="44.369" lon="5.47022">
        <ele>574.8</ele>
        <time>2016-08-14T09:42:01Z</time>
      </trkpt>
      <trkpt lat="44.36891" lon="5.47023">
        <ele>574.5</ele>
        <time>2016-08-14T09:42:08Z</time>
      </trkpt>
      <trkpt lat="44.36882" lon="5.47024">
        <ele>574.3</ele>
        <time>2016-08-14T09:42:16Z</time>
      </trkpt>
      <trkpt lat="44.36873" lon="5.47025">
        <ele>574.3</ele>
        <time>2016-08-14T09:42:23Z</time>
      </trkpt>
      <trkpt lat="44.36863" lon="5.47026">
        <ele>574.2</ele>
        <time>2016-08-14T09:42:30Z</time>
      </trkpt>
      <trkpt lat="44.36853" lon="5.47028">
        <ele>574.4</ele>
        <time>2016-08-14T09:42:37Z</time>
      </trkpt>
      <trkpt lat="44.36843" lon="5.47029">
        <ele>574.9</ele>
        <time>2016-08-14T09:42:44Z</time>
      </trkpt>
      <trkpt lat="44.36834" lon="5.47031">
        <ele>575.3</ele>
        <time>2016-08-14T09:42:51Z</time>
      </trkpt>
      <trkpt lat="44.36824" lon="5.47032">
        <ele>575.5</ele>
        <time>2016-08-14T09:42:58Z</time>
      </trkpt>
      <trkpt lat="44.36815" lon="5.47033">
        <ele>575.7</ele>
        <time>2016-08-14T09:43:05Z</time>
      </trkpt>
      <trkpt lat="44.36805" lon="5.47034">
        <ele>575.8</ele>
        <time>2016-08-14T09:43:12Z</time>
      </trkpt>
      <trkpt lat="44.36795" lon="5.47033">
        <ele>575.9</ele>
        <time>2016-08-14T09:43:19Z</time>
      </trkpt>
      <trkpt lat="44.36785" lon="5.4703">
        <ele>575.9</ele>
        <time>2016-08-14T09:43:26Z</time>
      </trkpt>
      <trkpt lat="44.36775" lon="5.47027">
        <ele>575.9</ele>
        <time>2016-08-14T09:43:33Z</time>
      </trkpt>
      <trkpt lat="44.36766" lon="5.47023">
        <ele>576.2</ele>
        <time>2016-08-14T09:43:40Z</time>
      </trkpt>
      <trkpt lat="44.36756" lon="5.47018">
        <ele>576.2</ele>
        <time>2016-08-14T09:43:47Z</time>
      </trkpt>
      <trkpt lat="44.36747" lon="5.47013">
        <ele>576.6</ele>
        <time>2016-08-14T09:43:54Z</time>
      </trkpt>
      <trkpt lat="44.36739" lon="5.47007">
        <ele>576.9</ele>
        <time>2016-08-14T09:44:01Z</time>
      </trkpt>
      <trkpt lat="44.36731" lon="5.47">
        <ele>577.6</ele>
        <time>2016-08-14T09:44:08Z</time>
      </trkpt>
      <trkpt lat="44.36723" lon="5.46993">
        <ele>578.4</ele>
        <time>2016-08-14T09:44:15Z</time>
      </trkpt>
      <trkpt lat="44.36715" lon="5.46985">
        <ele>579.3</ele>
        <time>2016-08-14T09:44:23Z</time>
      </trkpt>
      <trkpt lat="44.36708" lon="5.46975">
        <ele>580.2</ele>
        <time>2016-08-14T09:44:31Z</time>
      </trkpt>
      <trkpt lat="44.36701" lon="5.46965">
        <ele>581</ele>
        <time>2016-08-14T09:44:39Z</time>
      </trkpt>
      <trkpt lat="44.36694" lon="5.46955">
        <ele>581.8</ele>
        <time>2016-08-14T09:44:47Z</time>
      </trkpt>
      <trkpt lat="44.36686" lon="5.46946">
        <ele>582.6</ele>
        <time>2016-08-14T09:44:55Z</time>
      </trkpt>
      <trkpt lat="44.36677" lon="5.46939">
        <ele>583.6</ele>
        <time>2016-08-14T09:45:03Z</time>
      </trkpt>
      <trkpt lat="44.36668" lon="5.46934">
        <ele>584.8</ele>
        <time>2016-08-14T09:45:12Z</time>
      </trkpt>
      <trkpt lat="44.3666" lon="5.46929">
        <ele>585.4</ele>
        <time>2016-08-14T09:45:20Z</time>
      </trkpt>
      <trkpt lat="44.36651" lon="5.46925">
        <ele>585.8</ele>
        <time>2016-08-14T09:45:27Z</time>
      </trkpt>
      <trkpt lat="44.36642" lon="5.46923">
        <ele>585.8</ele>
        <time>2016-08-14T09:45:34Z</time>
      </trkpt>
      <trkpt lat="44.36632" lon="5.46922">
        <ele>586</ele>
        <time>2016-08-14T09:45:42Z</time>
      </trkpt>
      <trkpt lat="44.36641" lon="5.46924">
        <ele>585.9</ele>
        <time>2016-08-14T09:46:22Z</time>
      </trkpt>
      <trkpt lat="44.36647" lon="5.46934">
        <ele>586.3</ele>
        <time>2016-08-14T09:46:30Z</time>
      </trkpt>
      <trkpt lat="44.36651" lon="5.46947">
        <ele>587.1</ele>
        <time>2016-08-14T09:46:38Z</time>
      </trkpt>
      <trkpt lat="44.36653" lon="5.4696">
        <ele>587.9</ele>
        <time>2016-08-14T09:46:46Z</time>
      </trkpt>
      <trkpt lat="44.36657" lon="5.46972">
        <ele>589</ele>
        <time>2016-08-14T09:46:54Z</time>
      </trkpt>
      <trkpt lat="44.36663" lon="5.46983">
        <ele>589.7</ele>
        <time>2016-08-14T09:47:02Z</time>
      </trkpt>
      <trkpt lat="44.36668" lon="5.46994">
        <ele>590.5</ele>
        <time>2016-08-14T09:47:10Z</time>
      </trkpt>
      <trkpt lat="44.36672" lon="5.47008">
        <ele>591.4</ele>
        <time>2016-08-14T09:47:18Z</time>
      </trkpt>
      <trkpt lat="44.36674" lon="5.4702">
        <ele>592.4</ele>
        <time>2016-08-14T09:47:25Z</time>
      </trkpt>
      <trkpt lat="44.36675" lon="5.47033">
        <ele>593.2</ele>
        <time>2016-08-14T09:47:32Z</time>
      </trkpt>
      <trkpt lat="44.36674" lon="5.47045">
        <ele>594.2</ele>
        <time>2016-08-14T09:47:39Z</time>
      </trkpt>
      <trkpt lat="44.36673" lon="5.47058">
        <ele>595</ele>
        <time>2016-08-14T09:47:46Z</time>
      </trkpt>
      <trkpt lat="44.36669" lon="5.47075">
        <ele>595</ele>
        <time>2016-08-14T09:47:56Z</time>
      </trkpt>
      <trkpt lat="44.36666" lon="5.47088">
        <ele>597.3</ele>
        <time>2016-08-14T09:48:04Z</time>
      </trkpt>
      <trkpt lat="44.36664" lon="5.471">
        <ele>597.9</ele>
        <time>2016-08-14T09:48:11Z</time>
      </trkpt>
      <trkpt lat="44.3666" lon="5.47112">
        <ele>598.6</ele>
        <time>2016-08-14T09:48:19Z</time>
      </trkpt>
      <trkpt lat="44.36654" lon="5.47121">
        <ele>599.8</ele>
        <time>2016-08-14T09:49:43Z</time>
      </trkpt>
      <trkpt lat="44.36652" lon="5.47135">
        <ele>599.7</ele>
        <time>2016-08-14T09:50:08Z</time>
      </trkpt>
      <trkpt lat="44.36657" lon="5.47148">
        <ele>599.9</ele>
        <time>2016-08-14T09:50:15Z</time>
      </trkpt>
      <trkpt lat="44.36657" lon="5.47162">
        <ele>600.3</ele>
        <time>2016-08-14T09:50:22Z</time>
      </trkpt>
      <trkpt lat="44.36657" lon="5.47175">
        <ele>600.7</ele>
        <time>2016-08-14T09:50:28Z</time>
      </trkpt>
      <trkpt lat="44.36656" lon="5.47189">
        <ele>601</ele>
        <time>2016-08-14T09:50:35Z</time>
      </trkpt>
      <trkpt lat="44.36658" lon="5.47203">
        <ele>601.4</ele>
        <time>2016-08-14T09:50:42Z</time>
      </trkpt>
      <trkpt lat="44.36659" lon="5.47217">
        <ele>602</ele>
        <time>2016-08-14T09:50:49Z</time>
      </trkpt>
      <trkpt lat="44.3666" lon="5.4723">
        <ele>602.7</ele>
        <time>2016-08-14T09:50:55Z</time>
      </trkpt>
      <trkpt lat="44.36662" lon="5.47244">
        <ele>603.3</ele>
        <time>2016-08-14T09:51:02Z</time>
      </trkpt>
      <trkpt lat="44.36665" lon="5.47258">
        <ele>603.9</ele>
        <time>2016-08-14T09:51:10Z</time>
      </trkpt>
      <trkpt lat="44.36668" lon="5.47271">
        <ele>604.6</ele>
        <time>2016-08-14T09:51:18Z</time>
      </trkpt>
      <trkpt lat="44.36673" lon="5.47284">
        <ele>605.1</ele>
        <time>2016-08-14T09:51:24Z</time>
      </trkpt>
      <trkpt lat="44.36675" lon="5.47297">
        <ele>606.2</ele>
        <time>2016-08-14T09:51:31Z</time>
      </trkpt>
      <trkpt lat="44.3668" lon="5.47309">
        <ele>606.9</ele>
        <time>2016-08-14T09:51:36Z</time>
      </trkpt>
      <trkpt lat="44.36685" lon="5.4732">
        <ele>607.4</ele>
        <time>2016-08-14T09:51:41Z</time>
      </trkpt>
      <trkpt lat="44.36689" lon="5.47332">
        <ele>607.7</ele>
        <time>2016-08-14T09:51:47Z</time>
      </trkpt>
      <trkpt lat="44.36693" lon="5.47344">
        <ele>608.1</ele>
        <time>2016-08-14T09:51:53Z</time>
      </trkpt>
      <trkpt lat="44.36697" lon="5.47356">
        <ele>608.2</ele>
        <time>2016-08-14T09:51:59Z</time>
      </trkpt>
      <trkpt lat="44.36701" lon="5.47368">
        <ele>608.3</ele>
        <time>2016-08-14T09:52:05Z</time>
      </trkpt>
      <trkpt lat="44.36704" lon="5.47381">
        <ele>608.4</ele>
        <time>2016-08-14T09:52:11Z</time>
      </trkpt>
      <trkpt lat="44.36706" lon="5.47394">
        <ele>608.4</ele>
        <time>2016-08-14T09:52:17Z</time>
      </trkpt>
      <trkpt lat="44.36708" lon="5.47407">
        <ele>608.5</ele>
        <time>2016-08-14T09:52:23Z</time>
      </trkpt>
      <trkpt lat="44.36708" lon="5.4742">
        <ele>608.5</ele>
        <time>2016-08-14T09:52:29Z</time>
      </trkpt>
      <trkpt lat="44.36709" lon="5.47434">
        <ele>608.5</ele>
        <time>2016-08-14T09:52:36Z</time>
      </trkpt>
      <trkpt lat="44.36707" lon="5.47448">
        <ele>608.4</ele>
        <time>2016-08-14T09:52:44Z</time>
      </trkpt>
      <trkpt lat="44.36705" lon="5.47461">
        <ele>607.8</ele>
        <time>2016-08-14T09:52:51Z</time>
      </trkpt>
      <trkpt lat="44.36702" lon="5.47472">
        <ele>607.4</ele>
        <time>2016-08-14T09:52:58Z</time>
      </trkpt>
      <trkpt lat="44.36697" lon="5.47485">
        <ele>606.7</ele>
        <time>2016-08-14T09:53:05Z</time>
      </trkpt>
      <trkpt lat="44.36693" lon="5.47496">
        <ele>606.1</ele>
        <time>2016-08-14T09:53:12Z</time>
      </trkpt>
      <trkpt lat="44.36688" lon="5.47507">
        <ele>605.2</ele>
        <time>2016-08-14T09:53:19Z</time>
      </trkpt>
      <trkpt lat="44.3668" lon="5.47517">
        <ele>604.2</ele>
        <time>2016-08-14T09:53:27Z</time>
      </trkpt>
      <trkpt lat="44.36672" lon="5.47524">
        <ele>603.5</ele>
        <time>2016-08-14T09:53:34Z</time>
      </trkpt>
      <trkpt lat="44.36664" lon="5.47532">
        <ele>602.9</ele>
        <time>2016-08-14T09:53:40Z</time>
      </trkpt>
      <trkpt lat="44.36659" lon="5.47542">
        <ele>602.3</ele>
        <time>2016-08-14T09:53:47Z</time>
      </trkpt>
      <trkpt lat="44.36654" lon="5.47553">
        <ele>601.8</ele>
        <time>2016-08-14T09:53:54Z</time>
      </trkpt>
      <trkpt lat="44.36647" lon="5.47562">
        <ele>600.6</ele>
        <time>2016-08-14T09:54:00Z</time>
      </trkpt>
      <trkpt lat="44.36641" lon="5.47576">
        <ele>599.7</ele>
        <time>2016-08-14T09:54:06Z</time>
      </trkpt>
      <trkpt lat="44.36639" lon="5.47589">
        <ele>599</ele>
        <time>2016-08-14T09:54:12Z</time>
      </trkpt>
      <trkpt lat="44.36637" lon="5.47603">
        <ele>598.6</ele>
        <time>2016-08-14T09:54:18Z</time>
      </trkpt>
      <trkpt lat="44.36635" lon="5.47617">
        <ele>598.5</ele>
        <time>2016-08-14T09:54:24Z</time>
      </trkpt>
      <trkpt lat="44.36633" lon="5.4763">
        <ele>598.4</ele>
        <time>2016-08-14T09:54:30Z</time>
      </trkpt>
      <trkpt lat="44.36631" lon="5.47642">
        <ele>598.5</ele>
        <time>2016-08-14T09:54:36Z</time>
      </trkpt>
      <trkpt lat="44.36629" lon="5.47656">
        <ele>598.5</ele>
        <time>2016-08-14T09:54:43Z</time>
      </trkpt>
      <trkpt lat="44.36629" lon="5.47669">
        <ele>598.8</ele>
        <time>2016-08-14T09:54:50Z</time>
      </trkpt>
      <trkpt lat="44.3663" lon="5.47683">
        <ele>599.2</ele>
        <time>2016-08-14T09:54:57Z</time>
      </trkpt>
      <trkpt lat="44.3663" lon="5.47696">
        <ele>599.4</ele>
        <time>2016-08-14T09:55:03Z</time>
      </trkpt>
      <trkpt lat="44.36631" lon="5.47709">
        <ele>599.5</ele>
        <time>2016-08-14T09:55:09Z</time>
      </trkpt>
      <trkpt lat="44.36633" lon="5.47723">
        <ele>599.5</ele>
        <time>2016-08-14T09:55:16Z</time>
      </trkpt>
      <trkpt lat="44.36635" lon="5.47737">
        <ele>599.5</ele>
        <time>2016-08-14T09:55:23Z</time>
      </trkpt>
      <trkpt lat="44.36637" lon="5.4775">
        <ele>599.5</ele>
        <time>2016-08-14T09:55:30Z</time>
      </trkpt>
      <trkpt lat="44.36641" lon="5.47764">
        <ele>599.4</ele>
        <time>2016-08-14T09:55:37Z</time>
      </trkpt>
      <trkpt lat="44.36646" lon="5.47776">
        <ele>599.1</ele>
        <time>2016-08-14T09:55:44Z</time>
      </trkpt>
      <trkpt lat="44.36652" lon="5.47786">
        <ele>598.7</ele>
        <time>2016-08-14T09:55:52Z</time>
      </trkpt>
      <trkpt lat="44.36661" lon="5.4779">
        <ele>598.5</ele>
        <time>2016-08-14T09:56:01Z</time>
      </trkpt>
      <trkpt lat="44.36671" lon="5.4779">
        <ele>599.3</ele>
        <time>2016-08-14T09:56:20Z</time>
      </trkpt>
      <trkpt lat="44.3668" lon="5.47793">
        <ele>599.5</ele>
        <time>2016-08-14T09:56:27Z</time>
      </trkpt>
      <trkpt lat="44.36688" lon="5.47801">
        <ele>599.9</ele>
        <time>2016-08-14T09:56:34Z</time>
      </trkpt>
      <trkpt lat="44.36694" lon="5.47812">
        <ele>600.6</ele>
        <time>2016-08-14T09:56:40Z</time>
      </trkpt>
      <trkpt lat="44.36698" lon="5.47823">
        <ele>601.2</ele>
        <time>2016-08-14T09:56:46Z</time>
      </trkpt>
      <trkpt lat="44.36704" lon="5.47834">
        <ele>601.7</ele>
        <time>2016-08-14T09:56:52Z</time>
      </trkpt>
      <trkpt lat="44.36713" lon="5.47834">
        <ele>602.1</ele>
        <time>2016-08-14T09:56:59Z</time>
      </trkpt>
      <trkpt lat="44.36722" lon="5.47827">
        <ele>602.4</ele>
        <time>2016-08-14T09:57:07Z</time>
      </trkpt>
      <trkpt lat="44.36727" lon="5.47814">
        <ele>602.7</ele>
        <time>2016-08-14T09:57:14Z</time>
      </trkpt>
      <trkpt lat="44.36733" lon="5.47803">
        <ele>602.8</ele>
        <time>2016-08-14T09:57:21Z</time>
      </trkpt>
      <trkpt lat="44.36741" lon="5.47794">
        <ele>602.8</ele>
        <time>2016-08-14T09:57:28Z</time>
      </trkpt>
      <trkpt lat="44.36748" lon="5.47785">
        <ele>602.9</ele>
        <time>2016-08-14T09:57:35Z</time>
      </trkpt>
      <trkpt lat="44.36757" lon="5.47776">
        <ele>602.8</ele>
        <time>2016-08-14T09:57:42Z</time>
      </trkpt>
      <trkpt lat="44.36766" lon="5.47771">
        <ele>602.5</ele>
        <time>2016-08-14T09:57:49Z</time>
      </trkpt>
      <trkpt lat="44.36776" lon="5.47768">
        <ele>601.9</ele>
        <time>2016-08-14T09:57:56Z</time>
      </trkpt>
      <trkpt lat="44.36785" lon="5.47764">
        <ele>600.9</ele>
        <time>2016-08-14T09:58:03Z</time>
      </trkpt>
      <trkpt lat="44.36795" lon="5.47762">
        <ele>599.8</ele>
        <time>2016-08-14T09:58:10Z</time>
      </trkpt>
      <trkpt lat="44.36804" lon="5.47759">
        <ele>599.1</ele>
        <time>2016-08-14T09:58:17Z</time>
      </trkpt>
      <trkpt lat="44.36815" lon="5.47758">
        <ele>598.5</ele>
        <time>2016-08-14T09:58:24Z</time>
      </trkpt>
      <trkpt lat="44.36825" lon="5.47757">
        <ele>597.8</ele>
        <time>2016-08-14T09:58:31Z</time>
      </trkpt>
      <trkpt lat="44.36834" lon="5.47754">
        <ele>597</ele>
        <time>2016-08-14T09:58:38Z</time>
      </trkpt>
      <trkpt lat="44.36844" lon="5.47752">
        <ele>595.8</ele>
        <time>2016-08-14T09:58:44Z</time>
      </trkpt>
      <trkpt lat="44.36854" lon="5.47749">
        <ele>595</ele>
        <time>2016-08-14T09:58:50Z</time>
      </trkpt>
      <trkpt lat="44.36862" lon="5.47744">
        <ele>594.6</ele>
        <time>2016-08-14T09:58:57Z</time>
      </trkpt>
      <trkpt lat="44.36871" lon="5.47739">
        <ele>594.2</ele>
        <time>2016-08-14T09:59:05Z</time>
      </trkpt>
      <trkpt lat="44.36879" lon="5.47743">
        <ele>594</ele>
        <time>2016-08-14T09:59:13Z</time>
      </trkpt>
      <trkpt lat="44.36887" lon="5.47751">
        <ele>594.1</ele>
        <time>2016-08-14T09:59:22Z</time>
      </trkpt>
      <trkpt lat="44.36896" lon="5.47757">
        <ele>593.6</ele>
        <time>2016-08-14T09:59:29Z</time>
      </trkpt>
      <trkpt lat="44.36904" lon="5.47764">
        <ele>592.9</ele>
        <time>2016-08-14T09:59:36Z</time>
      </trkpt>
      <trkpt lat="44.36913" lon="5.4777">
        <ele>592.2</ele>
        <time>2016-08-14T09:59:42Z</time>
      </trkpt>
      <trkpt lat="44.36921" lon="5.47777">
        <ele>591.4</ele>
        <time>2016-08-14T09:59:48Z</time>
      </trkpt>
      <trkpt lat="44.36929" lon="5.47783">
        <ele>590.6</ele>
        <time>2016-08-14T09:59:53Z</time>
      </trkpt>
      <trkpt lat="44.36937" lon="5.4779">
        <ele>589.9</ele>
        <time>2016-08-14T09:59:58Z</time>
      </trkpt>
      <trkpt lat="44.36946" lon="5.47797">
        <ele>589.1</ele>
        <time>2016-08-14T10:00:04Z</time>
      </trkpt>
      <trkpt lat="44.36953" lon="5.47806">
        <ele>588.1</ele>
        <time>2016-08-14T10:00:12Z</time>
      </trkpt>
      <trkpt lat="44.36962" lon="5.47814">
        <ele>587.2</ele>
        <time>2016-08-14T10:00:19Z</time>
      </trkpt>
      <trkpt lat="44.3697" lon="5.47819">
        <ele>586.6</ele>
        <time>2016-08-14T10:00:26Z</time>
      </trkpt>
      <trkpt lat="44.3698" lon="5.47822">
        <ele>586.1</ele>
        <time>2016-08-14T10:00:33Z</time>
      </trkpt>
      <trkpt lat="44.36991" lon="5.47826">
        <ele>585.9</ele>
        <time>2016-08-14T10:00:40Z</time>
      </trkpt>
      <trkpt lat="44.36998" lon="5.47833">
        <ele>585.8</ele>
        <time>2016-08-14T10:00:47Z</time>
      </trkpt>
      <trkpt lat="44.37006" lon="5.4784">
        <ele>585.8</ele>
        <time>2016-08-14T10:00:55Z</time>
      </trkpt>
      <trkpt lat="44.37014" lon="5.47847">
        <ele>585.8</ele>
        <time>2016-08-14T10:01:02Z</time>
      </trkpt>
      <trkpt lat="44.37022" lon="5.47855">
        <ele>585.8</ele>
        <time>2016-08-14T10:01:08Z</time>
      </trkpt>
      <trkpt lat="44.37028" lon="5.47865">
        <ele>585.7</ele>
        <time>2016-08-14T10:01:14Z</time>
      </trkpt>
      <trkpt lat="44.37033" lon="5.47877">
        <ele>585.9</ele>
        <time>2016-08-14T10:01:21Z</time>
      </trkpt>
      <trkpt lat="44.37036" lon="5.47891">
        <ele>586</ele>
        <time>2016-08-14T10:01:28Z</time>
      </trkpt>
      <trkpt lat="44.37038" lon="5.47905">
        <ele>586.4</ele>
        <time>2016-08-14T10:01:35Z</time>
      </trkpt>
      <trkpt lat="44.37044" lon="5.47915">
        <ele>586.6</ele>
        <time>2016-08-14T10:01:41Z</time>
      </trkpt>
      <trkpt lat="44.37051" lon="5.47927">
        <ele>587.1</ele>
        <time>2016-08-14T10:01:48Z</time>
      </trkpt>
      <trkpt lat="44.37056" lon="5.47939">
        <ele>587.5</ele>
        <time>2016-08-14T10:01:54Z</time>
      </trkpt>
      <trkpt lat="44.37062" lon="5.47951">
        <ele>588.1</ele>
        <time>2016-08-14T10:02:00Z</time>
      </trkpt>
      <trkpt lat="44.37069" lon="5.4796">
        <ele>588.5</ele>
        <time>2016-08-14T10:02:06Z</time>
      </trkpt>
      <trkpt lat="44.37077" lon="5.47969">
        <ele>589</ele>
        <time>2016-08-14T10:02:13Z</time>
      </trkpt>
      <trkpt lat="44.37086" lon="5.47976">
        <ele>589.1</ele>
        <time>2016-08-14T10:02:20Z</time>
      </trkpt>
      <trkpt lat="44.37094" lon="5.47982">
        <ele>589.3</ele>
        <time>2016-08-14T10:02:26Z</time>
      </trkpt>
      <trkpt lat="44.37103" lon="5.47987">
        <ele>589.4</ele>
        <time>2016-08-14T10:02:32Z</time>
      </trkpt>
      <trkpt lat="44.37112" lon="5.47989">
        <ele>589</ele>
        <time>2016-08-14T10:02:38Z</time>
      </trkpt>
      <trkpt lat="44.37122" lon="5.47988">
        <ele>588.6</ele>
        <time>2016-08-14T10:02:45Z</time>
      </trkpt>
      <trkpt lat="44.37131" lon="5.47988">
        <ele>588.4</ele>
        <time>2016-08-14T10:02:52Z</time>
      </trkpt>
      <trkpt lat="44.37141" lon="5.4799">
        <ele>588.3</ele>
        <time>2016-08-14T10:02:59Z</time>
      </trkpt>
      <trkpt lat="44.3715" lon="5.47991">
        <ele>588.7</ele>
        <time>2016-08-14T10:03:07Z</time>
      </trkpt>
      <trkpt lat="44.37159" lon="5.4799">
        <ele>588.7</ele>
        <time>2016-08-14T10:03:14Z</time>
      </trkpt>
      <trkpt lat="44.37169" lon="5.47988">
        <ele>588.8</ele>
        <time>2016-08-14T10:03:21Z</time>
      </trkpt>
      <trkpt lat="44.37178" lon="5.47985">
        <ele>588.8</ele>
        <time>2016-08-14T10:03:28Z</time>
      </trkpt>
      <trkpt lat="44.37188" lon="5.47986">
        <ele>588.9</ele>
        <time>2016-08-14T10:03:36Z</time>
      </trkpt>
      <trkpt lat="44.37197" lon="5.47987">
        <ele>589.1</ele>
        <time>2016-08-14T10:03:46Z</time>
      </trkpt>
      <trkpt lat="44.37207" lon="5.47988">
        <ele>589.2</ele>
        <time>2016-08-14T10:03:55Z</time>
      </trkpt>
      <trkpt lat="44.37216" lon="5.47991">
        <ele>589.3</ele>
        <time>2016-08-14T10:04:03Z</time>
      </trkpt>
      <trkpt lat="44.37225" lon="5.47996">
        <ele>589.4</ele>
        <time>2016-08-14T10:04:10Z</time>
      </trkpt>
      <trkpt lat="44.37232" lon="5.48004">
        <ele>589.7</ele>
        <time>2016-08-14T10:04:17Z</time>
      </trkpt>
      <trkpt lat="44.37238" lon="5.48015">
        <ele>589.7</ele>
        <time>2016-08-14T10:04:24Z</time>
      </trkpt>
      <trkpt lat="44.37243" lon="5.48026">
        <ele>589.9</ele>
        <time>2016-08-14T10:04:31Z</time>
      </trkpt>
      <trkpt lat="44.3725" lon="5.48037">
        <ele>590.2</ele>
        <time>2016-08-14T10:04:38Z</time>
      </trkpt>
      <trkpt lat="44.37258" lon="5.48045">
        <ele>590.5</ele>
        <time>2016-08-14T10:04:45Z</time>
      </trkpt>
      <trkpt lat="44.37266" lon="5.48049">
        <ele>590.7</ele>
        <time>2016-08-14T10:04:52Z</time>
      </trkpt>
      <trkpt lat="44.37274" lon="5.48058">
        <ele>590.9</ele>
        <time>2016-08-14T10:04:59Z</time>
      </trkpt>
      <trkpt lat="44.3728" lon="5.48069">
        <ele>591.3</ele>
        <time>2016-08-14T10:05:06Z</time>
      </trkpt>
      <trkpt lat="44.37285" lon="5.4808">
        <ele>591.6</ele>
        <time>2016-08-14T10:05:12Z</time>
      </trkpt>
      <trkpt lat="44.3729" lon="5.48092">
        <ele>592.1</ele>
        <time>2016-08-14T10:05:19Z</time>
      </trkpt>
      <trkpt lat="44.37297" lon="5.48103">
        <ele>592.2</ele>
        <time>2016-08-14T10:05:27Z</time>
      </trkpt>
      <trkpt lat="44.37302" lon="5.48114">
        <ele>592.2</ele>
        <time>2016-08-14T10:05:34Z</time>
      </trkpt>
      <trkpt lat="44.3731" lon="5.48121">
        <ele>592.3</ele>
        <time>2016-08-14T10:05:41Z</time>
      </trkpt>
      <trkpt lat="44.37317" lon="5.4813">
        <ele>592.6</ele>
        <time>2016-08-14T10:05:47Z</time>
      </trkpt>
      <trkpt lat="44.37324" lon="5.48139">
        <ele>592.8</ele>
        <time>2016-08-14T10:05:54Z</time>
      </trkpt>
      <trkpt lat="44.3733" lon="5.48148">
        <ele>592.9</ele>
        <time>2016-08-14T10:06:00Z</time>
      </trkpt>
      <trkpt lat="44.37337" lon="5.4816">
        <ele>593</ele>
        <time>2016-08-14T10:06:07Z</time>
      </trkpt>
      <trkpt lat="44.37343" lon="5.4817">
        <ele>593</ele>
        <time>2016-08-14T10:06:13Z</time>
      </trkpt>
      <trkpt lat="44.3735" lon="5.48181">
        <ele>593.1</ele>
        <time>2016-08-14T10:06:20Z</time>
      </trkpt>
      <trkpt lat="44.37357" lon="5.4819">
        <ele>593.2</ele>
        <time>2016-08-14T10:06:27Z</time>
      </trkpt>
      <trkpt lat="44.37364" lon="5.48198">
        <ele>593.7</ele>
        <time>2016-08-14T10:06:34Z</time>
      </trkpt>
      <trkpt lat="44.37372" lon="5.48206">
        <ele>594.1</ele>
        <time>2016-08-14T10:06:42Z</time>
      </trkpt>
      <trkpt lat="44.37381" lon="5.48214">
        <ele>594.3</ele>
        <time>2016-08-14T10:06:50Z</time>
      </trkpt>
      <trkpt lat="44.37389" lon="5.48219">
        <ele>594.1</ele>
        <time>2016-08-14T10:06:58Z</time>
      </trkpt>
      <trkpt lat="44.37397" lon="5.48227">
        <ele>594.2</ele>
        <time>2016-08-14T10:07:04Z</time>
      </trkpt>
      <trkpt lat="44.37406" lon="5.48234">
        <ele>594.3</ele>
        <time>2016-08-14T10:07:11Z</time>
      </trkpt>
      <trkpt lat="44.37415" lon="5.48239">
        <ele>594.4</ele>
        <time>2016-08-14T10:07:17Z</time>
      </trkpt>
      <trkpt lat="44.37423" lon="5.48244">
        <ele>594.6</ele>
        <time>2016-08-14T10:07:23Z</time>
      </trkpt>
      <trkpt lat="44.37432" lon="5.48249">
        <ele>595</ele>
        <time>2016-08-14T10:07:29Z</time>
      </trkpt>
      <trkpt lat="44.3744" lon="5.48254">
        <ele>595.4</ele>
        <time>2016-08-14T10:07:35Z</time>
      </trkpt>
      <trkpt lat="44.37448" lon="5.48263">
        <ele>595.7</ele>
        <time>2016-08-14T10:07:42Z</time>
      </trkpt>
      <trkpt lat="44.37454" lon="5.48273">
        <ele>595.9</ele>
        <time>2016-08-14T10:07:48Z</time>
      </trkpt>
      <trkpt lat="44.37458" lon="5.48286">
        <ele>596.3</ele>
        <time>2016-08-14T10:07:55Z</time>
      </trkpt>
      <trkpt lat="44.37461" lon="5.48298">
        <ele>596.6</ele>
        <time>2016-08-14T10:08:01Z</time>
      </trkpt>
      <trkpt lat="44.37464" lon="5.48312">
        <ele>596.8</ele>
        <time>2016-08-14T10:08:08Z</time>
      </trkpt>
      <trkpt lat="44.37468" lon="5.48326">
        <ele>597</ele>
        <time>2016-08-14T10:08:15Z</time>
      </trkpt>
      <trkpt lat="44.37473" lon="5.48338">
        <ele>597.3</ele>
        <time>2016-08-14T10:08:22Z</time>
      </trkpt>
      <trkpt lat="44.37477" lon="5.4835">
        <ele>597.6</ele>
        <time>2016-08-14T10:08:29Z</time>
      </trkpt>
      <trkpt lat="44.37482" lon="5.48362">
        <ele>598</ele>
        <time>2016-08-14T10:08:37Z</time>
      </trkpt>
      <trkpt lat="44.37483" lon="5.48376">
        <ele>598.1</ele>
        <time>2016-08-14T10:08:44Z</time>
      </trkpt>
      <trkpt lat="44.37486" lon="5.48389">
        <ele>598.8</ele>
        <time>2016-08-14T10:08:51Z</time>
      </trkpt>
      <trkpt lat="44.3749" lon="5.48402">
        <ele>599.8</ele>
        <time>2016-08-14T10:08:58Z</time>
      </trkpt>
      <trkpt lat="44.37496" lon="5.48412">
        <ele>600.7</ele>
        <time>2016-08-14T10:09:04Z</time>
      </trkpt>
      <trkpt lat="44.37504" lon="5.48421">
        <ele>602.2</ele>
        <time>2016-08-14T10:09:11Z</time>
      </trkpt>
      <trkpt lat="44.3751" lon="5.48431">
        <ele>603.7</ele>
        <time>2016-08-14T10:09:19Z</time>
      </trkpt>
      <trkpt lat="44.37515" lon="5.48442">
        <ele>605.2</ele>
        <time>2016-08-14T10:09:26Z</time>
      </trkpt>
      <trkpt lat="44.37519" lon="5.48453">
        <ele>606.7</ele>
        <time>2016-08-14T10:09:33Z</time>
      </trkpt>
      <trkpt lat="44.37523" lon="5.48464">
        <ele>608.3</ele>
        <time>2016-08-14T10:09:40Z</time>
      </trkpt>
      <trkpt lat="44.37527" lon="5.48478">
        <ele>609.7</ele>
        <time>2016-08-14T10:09:48Z</time>
      </trkpt>
      <trkpt lat="44.37529" lon="5.48492">
        <ele>611.2</ele>
        <time>2016-08-14T10:09:55Z</time>
      </trkpt>
      <trkpt lat="44.37532" lon="5.48503">
        <ele>612.6</ele>
        <time>2016-08-14T10:10:01Z</time>
      </trkpt>
      <trkpt lat="44.37536" lon="5.48516">
        <ele>613.8</ele>
        <time>2016-08-14T10:10:07Z</time>
      </trkpt>
      <trkpt lat="44.37538" lon="5.48529">
        <ele>615.1</ele>
        <time>2016-08-14T10:10:14Z</time>
      </trkpt>
      <trkpt lat="44.37538" lon="5.48544">
        <ele>616.2</ele>
        <time>2016-08-14T10:10:21Z</time>
      </trkpt>
      <trkpt lat="44.37538" lon="5.48557">
        <ele>617.4</ele>
        <time>2016-08-14T10:10:28Z</time>
      </trkpt>
      <trkpt lat="44.37536" lon="5.48571">
        <ele>619</ele>
        <time>2016-08-14T10:10:35Z</time>
      </trkpt>
      <trkpt lat="44.37534" lon="5.48584">
        <ele>620.4</ele>
        <time>2016-08-14T10:10:43Z</time>
      </trkpt>
      <trkpt lat="44.37533" lon="5.48598">
        <ele>622.1</ele>
        <time>2016-08-14T10:10:51Z</time>
      </trkpt>
      <trkpt lat="44.37532" lon="5.48611">
        <ele>623.4</ele>
        <time>2016-08-14T10:10:58Z</time>
      </trkpt>
      <trkpt lat="44.37532" lon="5.48623">
        <ele>625.1</ele>
        <time>2016-08-14T10:11:05Z</time>
      </trkpt>
      <trkpt lat="44.37532" lon="5.48637">
        <ele>626.7</ele>
        <time>2016-08-14T10:11:12Z</time>
      </trkpt>
      <trkpt lat="44.37531" lon="5.48652">
        <ele>628.4</ele>
        <time>2016-08-14T10:11:19Z</time>
      </trkpt>
      <trkpt lat="44.37529" lon="5.48665">
        <ele>629.6</ele>
        <time>2016-08-14T10:11:25Z</time>
      </trkpt>
      <trkpt lat="44.37527" lon="5.48679">
        <ele>631.1</ele>
        <time>2016-08-14T10:11:32Z</time>
      </trkpt>
      <trkpt lat="44.37523" lon="5.48691">
        <ele>632.5</ele>
        <time>2016-08-14T10:11:39Z</time>
      </trkpt>
      <trkpt lat="44.37517" lon="5.48702">
        <ele>633.7</ele>
        <time>2016-08-14T10:11:46Z</time>
      </trkpt>
      <trkpt lat="44.37513" lon="5.48715">
        <ele>635.4</ele>
        <time>2016-08-14T10:11:53Z</time>
      </trkpt>
      <trkpt lat="44.37509" lon="5.48727">
        <ele>637.2</ele>
        <time>2016-08-14T10:12:00Z</time>
      </trkpt>
      <trkpt lat="44.37509" lon="5.48739">
        <ele>638.9</ele>
        <time>2016-08-14T10:12:09Z</time>
      </trkpt>
      <trkpt lat="44.37515" lon="5.48749">
        <ele>640.6</ele>
        <time>2016-08-14T10:12:23Z</time>
      </trkpt>
      <trkpt lat="44.3752" lon="5.4876">
        <ele>641.4</ele>
        <time>2016-08-14T10:12:30Z</time>
      </trkpt>
      <trkpt lat="44.37521" lon="5.48772">
        <ele>641.9</ele>
        <time>2016-08-14T10:12:36Z</time>
      </trkpt>
      <trkpt lat="44.37521" lon="5.48786">
        <ele>642.9</ele>
        <time>2016-08-14T10:12:43Z</time>
      </trkpt>
      <trkpt lat="44.37521" lon="5.488">
        <ele>643.7</ele>
        <time>2016-08-14T10:12:50Z</time>
      </trkpt>
      <trkpt lat="44.37522" lon="5.48813">
        <ele>645.1</ele>
        <time>2016-08-14T10:12:57Z</time>
      </trkpt>
      <trkpt lat="44.37522" lon="5.48827">
        <ele>646.5</ele>
        <time>2016-08-14T10:13:05Z</time>
      </trkpt>
      <trkpt lat="44.37519" lon="5.48841">
        <ele>647.3</ele>
        <time>2016-08-14T10:13:12Z</time>
      </trkpt>
      <trkpt lat="44.37514" lon="5.48853">
        <ele>648.2</ele>
        <time>2016-08-14T10:13:19Z</time>
      </trkpt>
      <trkpt lat="44.37509" lon="5.48865">
        <ele>649</ele>
        <time>2016-08-14T10:13:26Z</time>
      </trkpt>
      <trkpt lat="44.37507" lon="5.48878">
        <ele>649.7</ele>
        <time>2016-08-14T10:13:33Z</time>
      </trkpt>
      <trkpt lat="44.37505" lon="5.48891">
        <ele>650.4</ele>
        <time>2016-08-14T10:13:40Z</time>
      </trkpt>
      <trkpt lat="44.37505" lon="5.48905">
        <ele>651.7</ele>
        <time>2016-08-14T10:13:47Z</time>
      </trkpt>
      <trkpt lat="44.37505" lon="5.48919">
        <ele>652.8</ele>
        <time>2016-08-14T10:13:54Z</time>
      </trkpt>
      <trkpt lat="44.37505" lon="5.48933">
        <ele>654.1</ele>
        <time>2016-08-14T10:14:01Z</time>
      </trkpt>
      <trkpt lat="44.37503" lon="5.48946">
        <ele>655.5</ele>
        <time>2016-08-14T10:14:08Z</time>
      </trkpt>
      <trkpt lat="44.375" lon="5.48958">
        <ele>657.5</ele>
        <time>2016-08-14T10:14:15Z</time>
      </trkpt>
      <trkpt lat="44.37496" lon="5.4897">
        <ele>659.2</ele>
        <time>2016-08-14T10:14:23Z</time>
      </trkpt>
      <trkpt lat="44.37492" lon="5.48983">
        <ele>661.1</ele>
        <time>2016-08-14T10:14:31Z</time>
      </trkpt>
      <trkpt lat="44.37486" lon="5.48995">
        <ele>663.2</ele>
        <time>2016-08-14T10:14:39Z</time>
      </trkpt>
      <trkpt lat="44.3748" lon="5.49004">
        <ele>664.9</ele>
        <time>2016-08-14T10:14:47Z</time>
      </trkpt>
      <trkpt lat="44.37478" lon="5.49017">
        <ele>667.8</ele>
        <time>2016-08-14T10:14:57Z</time>
      </trkpt>
      <trkpt lat="44.37476" lon="5.49029">
        <ele>669.5</ele>
        <time>2016-08-14T10:15:04Z</time>
      </trkpt>
      <trkpt lat="44.37475" lon="5.49042">
        <ele>671.1</ele>
        <time>2016-08-14T10:15:11Z</time>
      </trkpt>
      <trkpt lat="44.37472" lon="5.49056">
        <ele>672.4</ele>
        <time>2016-08-14T10:15:19Z</time>
      </trkpt>
      <trkpt lat="44.3747" lon="5.49069">
        <ele>673.8</ele>
        <time>2016-08-14T10:15:26Z</time>
      </trkpt>
      <trkpt lat="44.37469" lon="5.49082">
        <ele>675.2</ele>
        <time>2016-08-14T10:15:33Z</time>
      </trkpt>
      <trkpt lat="44.37466" lon="5.49095">
        <ele>676.8</ele>
        <time>2016-08-14T10:15:41Z</time>
      </trkpt>
      <trkpt lat="44.37463" lon="5.49107">
        <ele>678.5</ele>
        <time>2016-08-14T10:15:49Z</time>
      </trkpt>
      <trkpt lat="44.3746" lon="5.4912">
        <ele>680</ele>
        <time>2016-08-14T10:15:57Z</time>
      </trkpt>
      <trkpt lat="44.37457" lon="5.49133">
        <ele>680.6</ele>
        <time>2016-08-14T10:16:05Z</time>
      </trkpt>
      <trkpt lat="44.37453" lon="5.49144">
        <ele>680.8</ele>
        <time>2016-08-14T10:16:12Z</time>
      </trkpt>
      <trkpt lat="44.37451" lon="5.49157">
        <ele>680.9</ele>
        <time>2016-08-14T10:16:19Z</time>
      </trkpt>
      <trkpt lat="44.37448" lon="5.49171">
        <ele>681</ele>
        <time>2016-08-14T10:16:28Z</time>
      </trkpt>
      <trkpt lat="44.37445" lon="5.49183">
        <ele>681.1</ele>
        <time>2016-08-14T10:16:34Z</time>
      </trkpt>
      <trkpt lat="44.37442" lon="5.49196">
        <ele>681.8</ele>
        <time>2016-08-14T10:16:41Z</time>
      </trkpt>
      <trkpt lat="44.37436" lon="5.49206">
        <ele>683.1</ele>
        <time>2016-08-14T10:16:48Z</time>
      </trkpt>
      <trkpt lat="44.37428" lon="5.49214">
        <ele>684.9</ele>
        <time>2016-08-14T10:16:56Z</time>
      </trkpt>
      <trkpt lat="44.37421" lon="5.49222">
        <ele>686.5</ele>
        <time>2016-08-14T10:17:03Z</time>
      </trkpt>
      <trkpt lat="44.37414" lon="5.49232">
        <ele>687.9</ele>
        <time>2016-08-14T10:17:10Z</time>
      </trkpt>
      <trkpt lat="44.3741" lon="5.49245">
        <ele>689.4</ele>
        <time>2016-08-14T10:17:16Z</time>
      </trkpt>
      <trkpt lat="44.37408" lon="5.49257">
        <ele>690.6</ele>
        <time>2016-08-14T10:17:21Z</time>
      </trkpt>
      <trkpt lat="44.37406" lon="5.4927">
        <ele>692.6</ele>
        <time>2016-08-14T10:17:28Z</time>
      </trkpt>
      <trkpt lat="44.37404" lon="5.49284">
        <ele>694.4</ele>
        <time>2016-08-14T10:17:35Z</time>
      </trkpt>
      <trkpt lat="44.37403" lon="5.49296">
        <ele>696.1</ele>
        <time>2016-08-14T10:17:42Z</time>
      </trkpt>
      <trkpt lat="44.37401" lon="5.4931">
        <ele>697.8</ele>
        <time>2016-08-14T10:17:50Z</time>
      </trkpt>
      <trkpt lat="44.37399" lon="5.49322">
        <ele>699</ele>
        <time>2016-08-14T10:17:57Z</time>
      </trkpt>
      <trkpt lat="44.37397" lon="5.49335">
        <ele>700.3</ele>
        <time>2016-08-14T10:18:04Z</time>
      </trkpt>
      <trkpt lat="44.37394" lon="5.49348">
        <ele>701.5</ele>
        <time>2016-08-14T10:18:12Z</time>
      </trkpt>
      <trkpt lat="44.3739" lon="5.49361">
        <ele>702.8</ele>
        <time>2016-08-14T10:18:20Z</time>
      </trkpt>
      <trkpt lat="44.37387" lon="5.49373">
        <ele>703.6</ele>
        <time>2016-08-14T10:18:27Z</time>
      </trkpt>
      <trkpt lat="44.37385" lon="5.49385">
        <ele>704.3</ele>
        <time>2016-08-14T10:18:34Z</time>
      </trkpt>
      <trkpt lat="44.37382" lon="5.49398">
        <ele>705.1</ele>
        <time>2016-08-14T10:18:41Z</time>
      </trkpt>
      <trkpt lat="44.37381" lon="5.49411">
        <ele>705.8</ele>
        <time>2016-08-14T10:18:48Z</time>
      </trkpt>
      <trkpt lat="44.37379" lon="5.49424">
        <ele>706.3</ele>
        <time>2016-08-14T10:18:55Z</time>
      </trkpt>
      <trkpt lat="44.37379" lon="5.49437">
        <ele>706.8</ele>
        <time>2016-08-14T10:19:02Z</time>
      </trkpt>
      <trkpt lat="44.37379" lon="5.49451">
        <ele>707.1</ele>
        <time>2016-08-14T10:19:09Z</time>
      </trkpt>
      <trkpt lat="44.3738" lon="5.49464">
        <ele>707.6</ele>
        <time>2016-08-14T10:19:16Z</time>
      </trkpt>
      <trkpt lat="44.37381" lon="5.49479">
        <ele>708.3</ele>
        <time>2016-08-14T10:19:23Z</time>
      </trkpt>
      <trkpt lat="44.37381" lon="5.49492">
        <ele>709.4</ele>
        <time>2016-08-14T10:19:30Z</time>
      </trkpt>
      <trkpt lat="44.37382" lon="5.49506">
        <ele>710.1</ele>
        <time>2016-08-14T10:19:37Z</time>
      </trkpt>
      <trkpt lat="44.3738" lon="5.49519">
        <ele>710.8</ele>
        <time>2016-08-14T10:19:44Z</time>
      </trkpt>
      <trkpt lat="44.37377" lon="5.49533">
        <ele>711.5</ele>
        <time>2016-08-14T10:19:51Z</time>
      </trkpt>
      <trkpt lat="44.37374" lon="5.49546">
        <ele>712.3</ele>
        <time>2016-08-14T10:19:58Z</time>
      </trkpt>
      <trkpt lat="44.37373" lon="5.49559">
        <ele>713.2</ele>
        <time>2016-08-14T10:20:05Z</time>
      </trkpt>
      <trkpt lat="44.37372" lon="5.49573">
        <ele>713.8</ele>
        <time>2016-08-14T10:20:12Z</time>
      </trkpt>
      <trkpt lat="44.37372" lon="5.49586">
        <ele>714.3</ele>
        <time>2016-08-14T10:20:19Z</time>
      </trkpt>
      <trkpt lat="44.37372" lon="5.496">
        <ele>714.8</ele>
        <time>2016-08-14T10:20:26Z</time>
      </trkpt>
      <trkpt lat="44.37373" lon="5.49614">
        <ele>715.2</ele>
        <time>2016-08-14T10:20:33Z</time>
      </trkpt>
      <trkpt lat="44.37374" lon="5.49629">
        <ele>715.6</ele>
        <time>2016-08-14T10:20:40Z</time>
      </trkpt>
      <trkpt lat="44.37376" lon="5.49641">
        <ele>715.9</ele>
        <time>2016-08-14T10:20:47Z</time>
      </trkpt>
      <trkpt lat="44.37379" lon="5.49654">
        <ele>716.3</ele>
        <time>2016-08-14T10:20:54Z</time>
      </trkpt>
      <trkpt lat="44.3738" lon="5.49667">
        <ele>716.5</ele>
        <time>2016-08-14T10:21:01Z</time>
      </trkpt>
      <trkpt lat="44.37381" lon="5.4968">
        <ele>716.6</ele>
        <time>2016-08-14T10:21:08Z</time>
      </trkpt>
      <trkpt lat="44.37381" lon="5.49693">
        <ele>716.6</ele>
        <time>2016-08-14T10:21:15Z</time>
      </trkpt>
      <trkpt lat="44.37381" lon="5.49706">
        <ele>716.5</ele>
        <time>2016-08-14T10:21:22Z</time>
      </trkpt>
      <trkpt lat="44.3738" lon="5.49719">
        <ele>716</ele>
        <time>2016-08-14T10:21:29Z</time>
      </trkpt>
      <trkpt lat="44.3738" lon="5.49732">
        <ele>715.8</ele>
        <time>2016-08-14T10:21:36Z</time>
      </trkpt>
      <trkpt lat="44.37381" lon="5.49746">
        <ele>715.6</ele>
        <time>2016-08-14T10:21:44Z</time>
      </trkpt>
      <trkpt lat="44.37382" lon="5.49759">
        <ele>715.6</ele>
        <time>2016-08-14T10:21:53Z</time>
      </trkpt>
      <trkpt lat="44.37381" lon="5.49772">
        <ele>715.8</ele>
        <time>2016-08-14T10:22:01Z</time>
      </trkpt>
      <trkpt lat="44.37379" lon="5.49785">
        <ele>716</ele>
        <time>2016-08-14T10:22:08Z</time>
      </trkpt>
      <trkpt lat="44.37376" lon="5.49798">
        <ele>716.2</ele>
        <time>2016-08-14T10:22:15Z</time>
      </trkpt>
      <trkpt lat="44.37372" lon="5.49811">
        <ele>716.5</ele>
        <time>2016-08-14T10:22:21Z</time>
      </trkpt>
      <trkpt lat="44.37368" lon="5.49823">
        <ele>716.7</ele>
        <time>2016-08-14T10:22:28Z</time>
      </trkpt>
      <trkpt lat="44.37363" lon="5.49835">
        <ele>717</ele>
        <time>2016-08-14T10:22:35Z</time>
      </trkpt>
      <trkpt lat="44.37359" lon="5.49846">
        <ele>717.3</ele>
        <time>2016-08-14T10:22:41Z</time>
      </trkpt>
      <trkpt lat="44.37354" lon="5.49857">
        <ele>717.5</ele>
        <time>2016-08-14T10:22:47Z</time>
      </trkpt>
      <trkpt lat="44.37351" lon="5.49869">
        <ele>717.9</ele>
        <time>2016-08-14T10:22:53Z</time>
      </trkpt>
      <trkpt lat="44.37349" lon="5.49882">
        <ele>718.6</ele>
        <time>2016-08-14T10:23:00Z</time>
      </trkpt>
      <trkpt lat="44.37346" lon="5.49894">
        <ele>719.2</ele>
        <time>2016-08-14T10:23:08Z</time>
      </trkpt>
      <trkpt lat="44.37348" lon="5.49909">
        <ele>719.9</ele>
        <time>2016-08-14T10:23:14Z</time>
      </trkpt>
      <trkpt lat="44.37351" lon="5.49921">
        <ele>719.6</ele>
        <time>2016-08-14T10:23:20Z</time>
      </trkpt>
      <trkpt lat="44.37353" lon="5.49935">
        <ele>719</ele>
        <time>2016-08-14T10:23:28Z</time>
      </trkpt>
      <trkpt lat="44.37357" lon="5.49946">
        <ele>718.5</ele>
        <time>2016-08-14T10:23:34Z</time>
      </trkpt>
      <trkpt lat="44.37362" lon="5.49958">
        <ele>717.9</ele>
        <time>2016-08-14T10:23:40Z</time>
      </trkpt>
      <trkpt lat="44.37367" lon="5.49969">
        <ele>717.6</ele>
        <time>2016-08-14T10:23:46Z</time>
      </trkpt>
      <trkpt lat="44.37372" lon="5.49982">
        <ele>717.3</ele>
        <time>2016-08-14T10:23:52Z</time>
      </trkpt>
      <trkpt lat="44.37377" lon="5.49993">
        <ele>716.5</ele>
        <time>2016-08-14T10:23:58Z</time>
      </trkpt>
      <trkpt lat="44.37383" lon="5.50005">
        <ele>715.8</ele>
        <time>2016-08-14T10:24:05Z</time>
      </trkpt>
      <trkpt lat="44.3739" lon="5.50016">
        <ele>715</ele>
        <time>2016-08-14T10:24:13Z</time>
      </trkpt>
      <trkpt lat="44.37395" lon="5.50027">
        <ele>714.6</ele>
        <time>2016-08-14T10:24:19Z</time>
      </trkpt>
      <trkpt lat="44.374" lon="5.50039">
        <ele>714.2</ele>
        <time>2016-08-14T10:24:26Z</time>
      </trkpt>
      <trkpt lat="44.37406" lon="5.5005">
        <ele>714.1</ele>
        <time>2016-08-14T10:24:32Z</time>
      </trkpt>
      <trkpt lat="44.37411" lon="5.5006">
        <ele>714.3</ele>
        <time>2016-08-14T10:24:38Z</time>
      </trkpt>
      <trkpt lat="44.37416" lon="5.50072">
        <ele>714.5</ele>
        <time>2016-08-14T10:24:45Z</time>
      </trkpt>
      <trkpt lat="44.37421" lon="5.50084">
        <ele>714.8</ele>
        <time>2016-08-14T10:24:52Z</time>
      </trkpt>
      <trkpt lat="44.37425" lon="5.50097">
        <ele>715</ele>
        <time>2016-08-14T10:24:59Z</time>
      </trkpt>
      <trkpt lat="44.37432" lon="5.50106">
        <ele>715.8</ele>
        <time>2016-08-14T10:25:05Z</time>
      </trkpt>
      <trkpt lat="44.37442" lon="5.50109">
        <ele>716.2</ele>
        <time>2016-08-14T10:25:12Z</time>
      </trkpt>
      <trkpt lat="44.37452" lon="5.50108">
        <ele>716.8</ele>
        <time>2016-08-14T10:25:19Z</time>
      </trkpt>
      <trkpt lat="44.37462" lon="5.50108">
        <ele>717.8</ele>
        <time>2016-08-14T10:25:26Z</time>
      </trkpt>
      <trkpt lat="44.37472" lon="5.5011">
        <ele>718.6</ele>
        <time>2016-08-14T10:25:33Z</time>
      </trkpt>
      <trkpt lat="44.37481" lon="5.50113">
        <ele>719.1</ele>
        <time>2016-08-14T10:25:40Z</time>
      </trkpt>
      <trkpt lat="44.3749" lon="5.50117">
        <ele>719.4</ele>
        <time>2016-08-14T10:25:47Z</time>
      </trkpt>
      <trkpt lat="44.37499" lon="5.50118">
        <ele>719.6</ele>
        <time>2016-08-14T10:25:54Z</time>
      </trkpt>
      <trkpt lat="44.37508" lon="5.50121">
        <ele>720.3</ele>
        <time>2016-08-14T10:26:01Z</time>
      </trkpt>
      <trkpt lat="44.37517" lon="5.50126">
        <ele>721.5</ele>
        <time>2016-08-14T10:26:08Z</time>
      </trkpt>
      <trkpt lat="44.37525" lon="5.50132">
        <ele>722.5</ele>
        <time>2016-08-14T10:26:15Z</time>
      </trkpt>
      <trkpt lat="44.37533" lon="5.50138">
        <ele>723.3</ele>
        <time>2016-08-14T10:26:21Z</time>
      </trkpt>
      <trkpt lat="44.37542" lon="5.50145">
        <ele>724.6</ele>
        <time>2016-08-14T10:26:28Z</time>
      </trkpt>
      <trkpt lat="44.37551" lon="5.50152">
        <ele>725.9</ele>
        <time>2016-08-14T10:26:35Z</time>
      </trkpt>
      <trkpt lat="44.37559" lon="5.5016">
        <ele>726.8</ele>
        <time>2016-08-14T10:26:41Z</time>
      </trkpt>
      <trkpt lat="44.37565" lon="5.50169">
        <ele>728.2</ele>
        <time>2016-08-14T10:26:48Z</time>
      </trkpt>
      <trkpt lat="44.3757" lon="5.50182">
        <ele>730</ele>
        <time>2016-08-14T10:26:56Z</time>
      </trkpt>
      <trkpt lat="44.37575" lon="5.50193">
        <ele>731.3</ele>
        <time>2016-08-14T10:27:03Z</time>
      </trkpt>
      <trkpt lat="44.3758" lon="5.50205">
        <ele>732.3</ele>
        <time>2016-08-14T10:27:10Z</time>
      </trkpt>
      <trkpt lat="44.37584" lon="5.50217">
        <ele>733.7</ele>
        <time>2016-08-14T10:27:18Z</time>
      </trkpt>
      <trkpt lat="44.37587" lon="5.5023">
        <ele>735.1</ele>
        <time>2016-08-14T10:27:25Z</time>
      </trkpt>
      <trkpt lat="44.37588" lon="5.50243">
        <ele>736.8</ele>
        <time>2016-08-14T10:27:33Z</time>
      </trkpt>
      <trkpt lat="44.37587" lon="5.50257">
        <ele>737.9</ele>
        <time>2016-08-14T10:27:40Z</time>
      </trkpt>
      <trkpt lat="44.37586" lon="5.50271">
        <ele>739.2</ele>
        <time>2016-08-14T10:27:46Z</time>
      </trkpt>
      <trkpt lat="44.37586" lon="5.50284">
        <ele>741</ele>
        <time>2016-08-14T10:27:53Z</time>
      </trkpt>
      <trkpt lat="44.37586" lon="5.50298">
        <ele>742.6</ele>
        <time>2016-08-14T10:28:01Z</time>
      </trkpt>
      <trkpt lat="44.37587" lon="5.50311">
        <ele>744</ele>
        <time>2016-08-14T10:28:08Z</time>
      </trkpt>
      <trkpt lat="44.37589" lon="5.50324">
        <ele>745.6</ele>
        <time>2016-08-14T10:28:16Z</time>
      </trkpt>
      <trkpt lat="44.37592" lon="5.50337">
        <ele>747.2</ele>
        <time>2016-08-14T10:28:23Z</time>
      </trkpt>
      <trkpt lat="44.37595" lon="5.5035">
        <ele>748.2</ele>
        <time>2016-08-14T10:28:31Z</time>
      </trkpt>
      <trkpt lat="44.37594" lon="5.50364">
        <ele>748.6</ele>
        <time>2016-08-14T10:28:38Z</time>
      </trkpt>
      <trkpt lat="44.37588" lon="5.50374">
        <ele>748.9</ele>
        <time>2016-08-14T10:28:45Z</time>
      </trkpt>
      <trkpt lat="44.3758" lon="5.5038">
        <ele>749.1</ele>
        <time>2016-08-14T10:28:51Z</time>
      </trkpt>
      <trkpt lat="44.37571" lon="5.50387">
        <ele>749.8</ele>
        <time>2016-08-14T10:28:57Z</time>
      </trkpt>
      <trkpt lat="44.37563" lon="5.50394">
        <ele>750.5</ele>
        <time>2016-08-14T10:29:03Z</time>
      </trkpt>
      <trkpt lat="44.37555" lon="5.50403">
        <ele>751.1</ele>
        <time>2016-08-14T10:29:10Z</time>
      </trkpt>
      <trkpt lat="44.37548" lon="5.50413">
        <ele>751.8</ele>
        <time>2016-08-14T10:29:17Z</time>
      </trkpt>
      <trkpt lat="44.3754" lon="5.50422">
        <ele>752.4</ele>
        <time>2016-08-14T10:29:24Z</time>
      </trkpt>
      <trkpt lat="44.37532" lon="5.50431">
        <ele>752.6</ele>
        <time>2016-08-14T10:29:31Z</time>
      </trkpt>
      <trkpt lat="44.37526" lon="5.50441">
        <ele>752.4</ele>
        <time>2016-08-14T10:29:38Z</time>
      </trkpt>
      <trkpt lat="44.3752" lon="5.50452">
        <ele>752.3</ele>
        <time>2016-08-14T10:29:45Z</time>
      </trkpt>
      <trkpt lat="44.37516" lon="5.50464">
        <ele>752.1</ele>
        <time>2016-08-14T10:29:51Z</time>
      </trkpt>
      <trkpt lat="44.37514" lon="5.50477">
        <ele>751.9</ele>
        <time>2016-08-14T10:29:58Z</time>
      </trkpt>
      <trkpt lat="44.37514" lon="5.50491">
        <ele>752.2</ele>
        <time>2016-08-14T10:30:05Z</time>
      </trkpt>
      <trkpt lat="44.37515" lon="5.50505">
        <ele>752.5</ele>
        <time>2016-08-14T10:30:11Z</time>
      </trkpt>
      <trkpt lat="44.37519" lon="5.50518">
        <ele>753.3</ele>
        <time>2016-08-14T10:30:18Z</time>
      </trkpt>
      <trkpt lat="44.37524" lon="5.50529">
        <ele>754</ele>
        <time>2016-08-14T10:30:23Z</time>
      </trkpt>
      <trkpt lat="44.37527" lon="5.50542">
        <ele>754.8</ele>
        <time>2016-08-14T10:30:29Z</time>
      </trkpt>
      <trkpt lat="44.3753" lon="5.50555">
        <ele>756</ele>
        <time>2016-08-14T10:30:36Z</time>
      </trkpt>
      <trkpt lat="44.37534" lon="5.50568">
        <ele>757.2</ele>
        <time>2016-08-14T10:30:42Z</time>
      </trkpt>
      <trkpt lat="44.37538" lon="5.5058">
        <ele>758.1</ele>
        <time>2016-08-14T10:30:48Z</time>
      </trkpt>
      <trkpt lat="44.37543" lon="5.50592">
        <ele>758.9</ele>
        <time>2016-08-14T10:30:55Z</time>
      </trkpt>
      <trkpt lat="44.37549" lon="5.50605">
        <ele>759.6</ele>
        <time>2016-08-14T10:31:02Z</time>
      </trkpt>
      <trkpt lat="44.37553" lon="5.50617">
        <ele>760.7</ele>
        <time>2016-08-14T10:31:09Z</time>
      </trkpt>
      <trkpt lat="44.37559" lon="5.50628">
        <ele>761.4</ele>
        <time>2016-08-14T10:31:16Z</time>
      </trkpt>
      <trkpt lat="44.37563" lon="5.5064">
        <ele>761.9</ele>
        <time>2016-08-14T10:31:23Z</time>
      </trkpt>
      <trkpt lat="44.37565" lon="5.50653">
        <ele>762.7</ele>
        <time>2016-08-14T10:31:30Z</time>
      </trkpt>
      <trkpt lat="44.37566" lon="5.50667">
        <ele>763</ele>
        <time>2016-08-14T10:31:38Z</time>
      </trkpt>
      <trkpt lat="44.37567" lon="5.5068">
        <ele>763</ele>
        <time>2016-08-14T10:31:45Z</time>
      </trkpt>
      <trkpt lat="44.37567" lon="5.50694">
        <ele>762.5</ele>
        <time>2016-08-14T10:31:52Z</time>
      </trkpt>
      <trkpt lat="44.37567" lon="5.50707">
        <ele>762.1</ele>
        <time>2016-08-14T10:31:59Z</time>
      </trkpt>
      <trkpt lat="44.37569" lon="5.50722">
        <ele>761.6</ele>
        <time>2016-08-14T10:32:06Z</time>
      </trkpt>
      <trkpt lat="44.37573" lon="5.50733">
        <ele>761.2</ele>
        <time>2016-08-14T10:32:12Z</time>
      </trkpt>
      <trkpt lat="44.37576" lon="5.50747">
        <ele>760.8</ele>
        <time>2016-08-14T10:32:19Z</time>
      </trkpt>
      <trkpt lat="44.37575" lon="5.50761">
        <ele>759.9</ele>
        <time>2016-08-14T10:32:27Z</time>
      </trkpt>
      <trkpt lat="44.37573" lon="5.50773">
        <ele>759</ele>
        <time>2016-08-14T10:32:44Z</time>
      </trkpt>
      <trkpt lat="44.37568" lon="5.50785">
        <ele>759.2</ele>
        <time>2016-08-14T10:33:00Z</time>
      </trkpt>
      <trkpt lat="44.37564" lon="5.50797">
        <ele>758.7</ele>
        <time>2016-08-14T10:33:08Z</time>
      </trkpt>
      <trkpt lat="44.37559" lon="5.50808">
        <ele>758.1</ele>
        <time>2016-08-14T10:33:16Z</time>
      </trkpt>
      <trkpt lat="44.37554" lon="5.5082">
        <ele>757.5</ele>
        <time>2016-08-14T10:33:24Z</time>
      </trkpt>
      <trkpt lat="44.37549" lon="5.50831">
        <ele>756.4</ele>
        <time>2016-08-14T10:33:32Z</time>
      </trkpt>
      <trkpt lat="44.37543" lon="5.50841">
        <ele>755.4</ele>
        <time>2016-08-14T10:33:39Z</time>
      </trkpt>
      <trkpt lat="44.37537" lon="5.50851">
        <ele>754.6</ele>
        <time>2016-08-14T10:33:46Z</time>
      </trkpt>
      <trkpt lat="44.37534" lon="5.50863">
        <ele>753.8</ele>
        <time>2016-08-14T10:33:53Z</time>
      </trkpt>
      <trkpt lat="44.37534" lon="5.50877">
        <ele>753.3</ele>
        <time>2016-08-14T10:34:01Z</time>
      </trkpt>
      <trkpt lat="44.37536" lon="5.5089">
        <ele>752.5</ele>
        <time>2016-08-14T10:34:09Z</time>
      </trkpt>
      <trkpt lat="44.37538" lon="5.50904">
        <ele>751.3</ele>
        <time>2016-08-14T10:34:16Z</time>
      </trkpt>
      <trkpt lat="44.3754" lon="5.50918">
        <ele>750.5</ele>
        <time>2016-08-14T10:34:23Z</time>
      </trkpt>
      <trkpt lat="44.37539" lon="5.50932">
        <ele>749.7</ele>
        <time>2016-08-14T10:34:30Z</time>
      </trkpt>
      <trkpt lat="44.3754" lon="5.50946">
        <ele>748.8</ele>
        <time>2016-08-14T10:34:39Z</time>
      </trkpt>
      <trkpt lat="44.37544" lon="5.50959">
        <ele>748.1</ele>
        <time>2016-08-14T10:34:46Z</time>
      </trkpt>
      <trkpt lat="44.37549" lon="5.5097">
        <ele>747.8</ele>
        <time>2016-08-14T10:34:53Z</time>
      </trkpt>
      <trkpt lat="44.37554" lon="5.50981">
        <ele>748.1</ele>
        <time>2016-08-14T10:35:01Z</time>
      </trkpt>
      <trkpt lat="44.3756" lon="5.50991">
        <ele>748.4</ele>
        <time>2016-08-14T10:35:09Z</time>
      </trkpt>
      <trkpt lat="44.37565" lon="5.51002">
        <ele>748.8</ele>
        <time>2016-08-14T10:35:17Z</time>
      </trkpt>
      <trkpt lat="44.3757" lon="5.51012">
        <ele>749.9</ele>
        <time>2016-08-14T10:35:25Z</time>
      </trkpt>
      <trkpt lat="44.37573" lon="5.51026">
        <ele>751</ele>
        <time>2016-08-14T10:35:33Z</time>
      </trkpt>
      <trkpt lat="44.37576" lon="5.51038">
        <ele>751.6</ele>
        <time>2016-08-14T10:35:41Z</time>
      </trkpt>
      <trkpt lat="44.37578" lon="5.51052">
        <ele>752.3</ele>
        <time>2016-08-14T10:35:50Z</time>
      </trkpt>
      <trkpt lat="44.3758" lon="5.51066">
        <ele>752.7</ele>
        <time>2016-08-14T10:35:59Z</time>
      </trkpt>
      <trkpt lat="44.37582" lon="5.51079">
        <ele>753.1</ele>
        <time>2016-08-14T10:36:07Z</time>
      </trkpt>
      <trkpt lat="44.37585" lon="5.51092">
        <ele>752.7</ele>
        <time>2016-08-14T10:36:15Z</time>
      </trkpt>
      <trkpt lat="44.37588" lon="5.51104">
        <ele>751.9</ele>
        <time>2016-08-14T10:36:26Z</time>
      </trkpt>
      <trkpt lat="44.37591" lon="5.51116">
        <ele>750.2</ele>
        <time>2016-08-14T10:36:46Z</time>
      </trkpt>
      <trkpt lat="44.37594" lon="5.51129">
        <ele>748.4</ele>
        <time>2016-08-14T10:37:13Z</time>
      </trkpt>
      <trkpt lat="44.376" lon="5.5114">
        <ele>747.5</ele>
        <time>2016-08-14T10:37:25Z</time>
      </trkpt>
      <trkpt lat="44.37606" lon="5.51152">
        <ele>747.1</ele>
        <time>2016-08-14T10:37:32Z</time>
      </trkpt>
      <trkpt lat="44.37611" lon="5.51165">
        <ele>746.5</ele>
        <time>2016-08-14T10:37:39Z</time>
      </trkpt>
      <trkpt lat="44.37616" lon="5.51176">
        <ele>745.8</ele>
        <time>2016-08-14T10:37:46Z</time>
      </trkpt>
      <trkpt lat="44.3762" lon="5.51188">
        <ele>745.2</ele>
        <time>2016-08-14T10:37:53Z</time>
      </trkpt>
      <trkpt lat="44.37622" lon="5.51201">
        <ele>744.7</ele>
        <time>2016-08-14T10:38:00Z</time>
      </trkpt>
      <trkpt lat="44.37624" lon="5.51213">
        <ele>743.4</ele>
        <time>2016-08-14T10:38:16Z</time>
      </trkpt>
      <trkpt lat="44.37623" lon="5.51227">
        <ele>742.5</ele>
        <time>2016-08-14T10:38:24Z</time>
      </trkpt>
      <trkpt lat="44.37627" lon="5.51239">
        <ele>741.2</ele>
        <time>2016-08-14T10:38:35Z</time>
      </trkpt>
      <trkpt lat="44.37628" lon="5.51252">
        <ele>739.4</ele>
        <time>2016-08-14T10:38:52Z</time>
      </trkpt>
      <trkpt lat="44.3763" lon="5.51265">
        <ele>738.8</ele>
        <time>2016-08-14T10:38:59Z</time>
      </trkpt>
      <trkpt lat="44.37633" lon="5.51277">
        <ele>738.1</ele>
        <time>2016-08-14T10:39:06Z</time>
      </trkpt>
      <trkpt lat="44.37637" lon="5.5129">
        <ele>737.1</ele>
        <time>2016-08-14T10:39:20Z</time>
      </trkpt>
      <trkpt lat="44.3764" lon="5.51305">
        <ele>736.9</ele>
        <time>2016-08-14T10:39:27Z</time>
      </trkpt>
      <trkpt lat="44.3764" lon="5.51321">
        <ele>736.8</ele>
        <time>2016-08-14T10:39:31Z</time>
      </trkpt>
      <trkpt lat="44.3764" lon="5.51336">
        <ele>736.7</ele>
        <time>2016-08-14T10:39:35Z</time>
      </trkpt>
      <trkpt lat="44.37641" lon="5.51349">
        <ele>736.6</ele>
        <time>2016-08-14T10:39:39Z</time>
      </trkpt>
      <trkpt lat="44.37643" lon="5.51362">
        <ele>736.3</ele>
        <time>2016-08-14T10:39:46Z</time>
      </trkpt>
      <trkpt lat="44.37644" lon="5.51375">
        <ele>736.3</ele>
        <time>2016-08-14T10:39:55Z</time>
      </trkpt>
      <trkpt lat="44.37647" lon="5.51388">
        <ele>736.2</ele>
        <time>2016-08-14T10:40:03Z</time>
      </trkpt>
      <trkpt lat="44.37654" lon="5.51397">
        <ele>736.2</ele>
        <time>2016-08-14T10:40:12Z</time>
      </trkpt>
      <trkpt lat="44.37661" lon="5.51407">
        <ele>736.4</ele>
        <time>2016-08-14T10:40:21Z</time>
      </trkpt>
      <trkpt lat="44.37668" lon="5.51416">
        <ele>736.3</ele>
        <time>2016-08-14T10:40:29Z</time>
      </trkpt>
      <trkpt lat="44.37676" lon="5.51423">
        <ele>735.9</ele>
        <time>2016-08-14T10:40:36Z</time>
      </trkpt>
      <trkpt lat="44.37685" lon="5.51429">
        <ele>735.8</ele>
        <time>2016-08-14T10:40:44Z</time>
      </trkpt>
      <trkpt lat="44.37689" lon="5.5144">
        <ele>735.9</ele>
        <time>2016-08-14T10:41:01Z</time>
      </trkpt>
      <trkpt lat="44.37686" lon="5.51452">
        <ele>735.7</ele>
        <time>2016-08-14T10:41:18Z</time>
      </trkpt>
      <trkpt lat="44.37695" lon="5.5145">
        <ele>736.8</ele>
        <time>2016-08-14T10:50:20Z</time>
      </trkpt>
      <trkpt lat="44.37697" lon="5.51437">
        <ele>736.7</ele>
        <time>2016-08-14T10:50:36Z</time>
      </trkpt>
      <trkpt lat="44.37688" lon="5.5144">
        <ele>737.3</ele>
        <time>2016-08-14T10:53:02Z</time>
      </trkpt>
      <trkpt lat="44.37695" lon="5.51432">
        <ele>737.4</ele>
        <time>2016-08-14T10:54:42Z</time>
      </trkpt>
      <trkpt lat="44.377" lon="5.51444">
        <ele>737.7</ele>
        <time>2016-08-14T10:56:00Z</time>
      </trkpt>
      <trkpt lat="44.37695" lon="5.51432">
        <ele>738.7</ele>
        <time>2016-08-14T11:06:20Z</time>
      </trkpt>
      <trkpt lat="44.37699" lon="5.51445">
        <ele>738.8</ele>
        <time>2016-08-14T11:10:35Z</time>
      </trkpt>
      <trkpt lat="44.37705" lon="5.51434">
        <ele>737.9</ele>
        <time>2016-08-14T11:11:20Z</time>
      </trkpt>
      <trkpt lat="44.3771" lon="5.51422">
        <ele>738.1</ele>
        <time>2016-08-14T11:11:30Z</time>
      </trkpt>
      <trkpt lat="44.37716" lon="5.51412">
        <ele>738.3</ele>
        <time>2016-08-14T11:11:38Z</time>
      </trkpt>
      <trkpt lat="44.37721" lon="5.514">
        <ele>738.3</ele>
        <time>2016-08-14T11:11:46Z</time>
      </trkpt>
      <trkpt lat="44.37727" lon="5.51389">
        <ele>738.2</ele>
        <time>2016-08-14T11:11:54Z</time>
      </trkpt>
      <trkpt lat="44.37732" lon="5.51379">
        <ele>738.6</ele>
        <time>2016-08-14T11:12:02Z</time>
      </trkpt>
      <trkpt lat="44.37738" lon="5.51368">
        <ele>738.8</ele>
        <time>2016-08-14T11:12:10Z</time>
      </trkpt>
      <trkpt lat="44.37751" lon="5.51368">
        <ele>738</ele>
        <time>2016-08-14T11:12:29Z</time>
      </trkpt>
      <trkpt lat="44.37758" lon="5.51379">
        <ele>739.4</ele>
        <time>2016-08-14T11:12:41Z</time>
      </trkpt>
      <trkpt lat="44.3776" lon="5.51391">
        <ele>740.3</ele>
        <time>2016-08-14T11:13:08Z</time>
      </trkpt>
      <trkpt lat="44.37751" lon="5.51393">
        <ele>740.1</ele>
        <time>2016-08-14T11:16:05Z</time>
      </trkpt>
      <trkpt lat="44.37756" lon="5.51403">
        <ele>740.2</ele>
        <time>2016-08-14T11:17:08Z</time>
      </trkpt>
      <trkpt lat="44.37761" lon="5.51393">
        <ele>740</ele>
        <time>2016-08-14T11:18:05Z</time>
      </trkpt>
      <trkpt lat="44.37758" lon="5.5138">
        <ele>740.6</ele>
        <time>2016-08-14T11:18:26Z</time>
      </trkpt>
      <trkpt lat="44.37747" lon="5.51386">
        <ele>740</ele>
        <time>2016-08-14T11:18:40Z</time>
      </trkpt>
      <trkpt lat="44.37738" lon="5.51389">
        <ele>739.8</ele>
        <time>2016-08-14T11:18:51Z</time>
      </trkpt>
      <trkpt lat="44.37729" lon="5.5139">
        <ele>739.6</ele>
        <time>2016-08-14T11:19:05Z</time>
      </trkpt>
      <trkpt lat="44.37721" lon="5.51397">
        <ele>739.6</ele>
        <time>2016-08-14T11:19:14Z</time>
      </trkpt>
      <trkpt lat="44.37716" lon="5.51408">
        <ele>739.9</ele>
        <time>2016-08-14T11:19:24Z</time>
      </trkpt>
      <trkpt lat="44.37709" lon="5.51417">
        <ele>739.7</ele>
        <time>2016-08-14T11:19:32Z</time>
      </trkpt>
      <trkpt lat="44.37703" lon="5.51427">
        <ele>739.2</ele>
        <time>2016-08-14T11:19:44Z</time>
      </trkpt>
      <trkpt lat="44.37697" lon="5.51437">
        <ele>738.6</ele>
        <time>2016-08-14T11:19:56Z</time>
      </trkpt>
      <trkpt lat="44.37692" lon="5.51447">
        <ele>738.5</ele>
        <time>2016-08-14T11:20:05Z</time>
      </trkpt>
      <trkpt lat="44.37683" lon="5.51447">
        <ele>738.5</ele>
        <time>2016-08-14T11:20:16Z</time>
      </trkpt>
      <trkpt lat="44.37674" lon="5.51443">
        <ele>738.4</ele>
        <time>2016-08-14T11:20:23Z</time>
      </trkpt>
      <trkpt lat="44.37665" lon="5.51438">
        <ele>738</ele>
        <time>2016-08-14T11:20:30Z</time>
      </trkpt>
      <trkpt lat="44.37656" lon="5.51432">
        <ele>737.6</ele>
        <time>2016-08-14T11:20:37Z</time>
      </trkpt>
      <trkpt lat="44.37647" lon="5.51426">
        <ele>737.9</ele>
        <time>2016-08-14T11:20:45Z</time>
      </trkpt>
      <trkpt lat="44.37638" lon="5.5142">
        <ele>738</ele>
        <time>2016-08-14T11:20:53Z</time>
      </trkpt>
      <trkpt lat="44.37629" lon="5.51416">
        <ele>737.8</ele>
        <time>2016-08-14T11:21:00Z</time>
      </trkpt>
      <trkpt lat="44.37618" lon="5.51411">
        <ele>737</ele>
        <time>2016-08-14T11:21:09Z</time>
      </trkpt>
      <trkpt lat="44.3761" lon="5.51407">
        <ele>736</ele>
        <time>2016-08-14T11:21:17Z</time>
      </trkpt>
      <trkpt lat="44.37596" lon="5.51401">
        <ele>736.1</ele>
        <time>2016-08-14T11:21:24Z</time>
      </trkpt>
      <trkpt lat="44.37586" lon="5.51399">
        <ele>735.5</ele>
        <time>2016-08-14T11:21:31Z</time>
      </trkpt>
      <trkpt lat="44.37577" lon="5.51397">
        <ele>734.9</ele>
        <time>2016-08-14T11:21:39Z</time>
      </trkpt>
      <trkpt lat="44.37567" lon="5.51395">
        <ele>734.4</ele>
        <time>2016-08-14T11:21:47Z</time>
      </trkpt>
      <trkpt lat="44.37557" lon="5.51393">
        <ele>733.7</ele>
        <time>2016-08-14T11:21:54Z</time>
      </trkpt>
      <trkpt lat="44.37547" lon="5.51391">
        <ele>732.5</ele>
        <time>2016-08-14T11:22:02Z</time>
      </trkpt>
      <trkpt lat="44.37537" lon="5.5139">
        <ele>731.7</ele>
        <time>2016-08-14T11:22:10Z</time>
      </trkpt>
      <trkpt lat="44.37528" lon="5.5139">
        <ele>731.2</ele>
        <time>2016-08-14T11:22:17Z</time>
      </trkpt>
      <trkpt lat="44.37518" lon="5.5139">
        <ele>730.5</ele>
        <time>2016-08-14T11:22:24Z</time>
      </trkpt>
      <trkpt lat="44.37509" lon="5.51391">
        <ele>729.7</ele>
        <time>2016-08-14T11:22:31Z</time>
      </trkpt>
      <trkpt lat="44.375" lon="5.51391">
        <ele>728.9</ele>
        <time>2016-08-14T11:22:38Z</time>
      </trkpt>
      <trkpt lat="44.37491" lon="5.51392">
        <ele>728.3</ele>
        <time>2016-08-14T11:22:46Z</time>
      </trkpt>
      <trkpt lat="44.37481" lon="5.51392">
        <ele>727.1</ele>
        <time>2016-08-14T11:22:57Z</time>
      </trkpt>
      <trkpt lat="44.37471" lon="5.51392">
        <ele>726.5</ele>
        <time>2016-08-14T11:23:04Z</time>
      </trkpt>
      <trkpt lat="44.37461" lon="5.51393">
        <ele>725.9</ele>
        <time>2016-08-14T11:23:11Z</time>
      </trkpt>
      <trkpt lat="44.37452" lon="5.51393">
        <ele>725.2</ele>
        <time>2016-08-14T11:23:18Z</time>
      </trkpt>
      <trkpt lat="44.37442" lon="5.51394">
        <ele>724.2</ele>
        <time>2016-08-14T11:23:25Z</time>
      </trkpt>
      <trkpt lat="44.37432" lon="5.51393">
        <ele>723.5</ele>
        <time>2016-08-14T11:23:32Z</time>
      </trkpt>
      <trkpt lat="44.37423" lon="5.51393">
        <ele>723.2</ele>
        <time>2016-08-14T11:23:39Z</time>
      </trkpt>
      <trkpt lat="44.37413" lon="5.51392">
        <ele>722.5</ele>
        <time>2016-08-14T11:23:48Z</time>
      </trkpt>
      <trkpt lat="44.37404" lon="5.51394">
        <ele>721.7</ele>
        <time>2016-08-14T11:23:58Z</time>
      </trkpt>
      <trkpt lat="44.37394" lon="5.51396">
        <ele>721.4</ele>
        <time>2016-08-14T11:24:05Z</time>
      </trkpt>
      <trkpt lat="44.37385" lon="5.51398">
        <ele>721</ele>
        <time>2016-08-14T11:24:12Z</time>
      </trkpt>
      <trkpt lat="44.37375" lon="5.51402">
        <ele>720.6</ele>
        <time>2016-08-14T11:24:20Z</time>
      </trkpt>
      <trkpt lat="44.37366" lon="5.51405">
        <ele>720.5</ele>
        <time>2016-08-14T11:24:27Z</time>
      </trkpt>
      <trkpt lat="44.37357" lon="5.51408">
        <ele>720.1</ele>
        <time>2016-08-14T11:24:33Z</time>
      </trkpt>
      <trkpt lat="44.37348" lon="5.51412">
        <ele>719.6</ele>
        <time>2016-08-14T11:24:40Z</time>
      </trkpt>
      <trkpt lat="44.37338" lon="5.51415">
        <ele>719.3</ele>
        <time>2016-08-14T11:24:48Z</time>
      </trkpt>
      <trkpt lat="44.37329" lon="5.51418">
        <ele>718.7</ele>
        <time>2016-08-14T11:24:55Z</time>
      </trkpt>
      <trkpt lat="44.3732" lon="5.51421">
        <ele>717.9</ele>
        <time>2016-08-14T11:25:02Z</time>
      </trkpt>
      <trkpt lat="44.37311" lon="5.51424">
        <ele>717.2</ele>
        <time>2016-08-14T11:25:09Z</time>
      </trkpt>
      <trkpt lat="44.37302" lon="5.51428">
        <ele>716.5</ele>
        <time>2016-08-14T11:25:17Z</time>
      </trkpt>
      <trkpt lat="44.37293" lon="5.51431">
        <ele>715.9</ele>
        <time>2016-08-14T11:25:25Z</time>
      </trkpt>
      <trkpt lat="44.37283" lon="5.51435">
        <ele>715</ele>
        <time>2016-08-14T11:25:33Z</time>
      </trkpt>
      <trkpt lat="44.37274" lon="5.51439">
        <ele>714.3</ele>
        <time>2016-08-14T11:25:41Z</time>
      </trkpt>
      <trkpt lat="44.37266" lon="5.51445">
        <ele>713.9</ele>
        <time>2016-08-14T11:25:49Z</time>
      </trkpt>
      <trkpt lat="44.37259" lon="5.51454">
        <ele>713</ele>
        <time>2016-08-14T11:25:57Z</time>
      </trkpt>
      <trkpt lat="44.37251" lon="5.51461">
        <ele>711.9</ele>
        <time>2016-08-14T11:26:09Z</time>
      </trkpt>
      <trkpt lat="44.37245" lon="5.5147">
        <ele>710.8</ele>
        <time>2016-08-14T11:26:39Z</time>
      </trkpt>
      <trkpt lat="44.37238" lon="5.51479">
        <ele>710.6</ele>
        <time>2016-08-14T11:26:48Z</time>
      </trkpt>
      <trkpt lat="44.3723" lon="5.51488">
        <ele>710.2</ele>
        <time>2016-08-14T11:26:56Z</time>
      </trkpt>
      <trkpt lat="44.37224" lon="5.51497">
        <ele>709.5</ele>
        <time>2016-08-14T11:27:07Z</time>
      </trkpt>
      <trkpt lat="44.37216" lon="5.51505">
        <ele>709.3</ele>
        <time>2016-08-14T11:27:15Z</time>
      </trkpt>
      <trkpt lat="44.37209" lon="5.51514">
        <ele>708.3</ele>
        <time>2016-08-14T11:27:55Z</time>
      </trkpt>
      <trkpt lat="44.372" lon="5.5152">
        <ele>708.3</ele>
        <time>2016-08-14T11:28:03Z</time>
      </trkpt>
      <trkpt lat="44.37192" lon="5.51527">
        <ele>707.5</ele>
        <time>2016-08-14T11:28:11Z</time>
      </trkpt>
      <trkpt lat="44.37183" lon="5.51533">
        <ele>707.1</ele>
        <time>2016-08-14T11:28:19Z</time>
      </trkpt>
      <trkpt lat="44.37176" lon="5.5154">
        <ele>706.5</ele>
        <time>2016-08-14T11:28:27Z</time>
      </trkpt>
      <trkpt lat="44.37168" lon="5.51549">
        <ele>706.1</ele>
        <time>2016-08-14T11:28:35Z</time>
      </trkpt>
      <trkpt lat="44.37161" lon="5.5156">
        <ele>705.9</ele>
        <time>2016-08-14T11:28:42Z</time>
      </trkpt>
      <trkpt lat="44.37154" lon="5.51571">
        <ele>705.6</ele>
        <time>2016-08-14T11:28:48Z</time>
      </trkpt>
      <trkpt lat="44.37147" lon="5.51581">
        <ele>705.2</ele>
        <time>2016-08-14T11:28:53Z</time>
      </trkpt>
      <trkpt lat="44.37139" lon="5.5159">
        <ele>704.4</ele>
        <time>2016-08-14T11:28:59Z</time>
      </trkpt>
      <trkpt lat="44.3713" lon="5.51596">
        <ele>703.9</ele>
        <time>2016-08-14T11:29:05Z</time>
      </trkpt>
      <trkpt lat="44.37122" lon="5.51603">
        <ele>703.5</ele>
        <time>2016-08-14T11:29:11Z</time>
      </trkpt>
      <trkpt lat="44.37113" lon="5.51608">
        <ele>702.9</ele>
        <time>2016-08-14T11:29:18Z</time>
      </trkpt>
      <trkpt lat="44.37105" lon="5.51615">
        <ele>702.4</ele>
        <time>2016-08-14T11:29:24Z</time>
      </trkpt>
      <trkpt lat="44.37096" lon="5.51623">
        <ele>702.1</ele>
        <time>2016-08-14T11:29:29Z</time>
      </trkpt>
      <trkpt lat="44.37088" lon="5.51629">
        <ele>701.8</ele>
        <time>2016-08-14T11:29:34Z</time>
      </trkpt>
      <trkpt lat="44.3708" lon="5.51636">
        <ele>701.4</ele>
        <time>2016-08-14T11:29:40Z</time>
      </trkpt>
      <trkpt lat="44.37071" lon="5.51643">
        <ele>701.1</ele>
        <time>2016-08-14T11:29:46Z</time>
      </trkpt>
      <trkpt lat="44.37062" lon="5.51651">
        <ele>700.6</ele>
        <time>2016-08-14T11:29:53Z</time>
      </trkpt>
      <trkpt lat="44.37056" lon="5.5166">
        <ele>700.4</ele>
        <time>2016-08-14T11:29:59Z</time>
      </trkpt>
      <trkpt lat="44.37048" lon="5.5167">
        <ele>699.9</ele>
        <time>2016-08-14T11:30:05Z</time>
      </trkpt>
      <trkpt lat="44.37041" lon="5.5168">
        <ele>699.4</ele>
        <time>2016-08-14T11:30:11Z</time>
      </trkpt>
      <trkpt lat="44.37035" lon="5.51689">
        <ele>698.9</ele>
        <time>2016-08-14T11:30:17Z</time>
      </trkpt>
      <trkpt lat="44.3703" lon="5.517">
        <ele>698.6</ele>
        <time>2016-08-14T11:30:23Z</time>
      </trkpt>
      <trkpt lat="44.37025" lon="5.51712">
        <ele>698.4</ele>
        <time>2016-08-14T11:30:29Z</time>
      </trkpt>
      <trkpt lat="44.37021" lon="5.51724">
        <ele>697.9</ele>
        <time>2016-08-14T11:30:35Z</time>
      </trkpt>
      <trkpt lat="44.37016" lon="5.51735">
        <ele>697.6</ele>
        <time>2016-08-14T11:30:41Z</time>
      </trkpt>
      <trkpt lat="44.3701" lon="5.51747">
        <ele>697.4</ele>
        <time>2016-08-14T11:30:47Z</time>
      </trkpt>
      <trkpt lat="44.37003" lon="5.51758">
        <ele>697</ele>
        <time>2016-08-14T11:30:55Z</time>
      </trkpt>
      <trkpt lat="44.36995" lon="5.51767">
        <ele>696</ele>
        <time>2016-08-14T11:31:04Z</time>
      </trkpt>
      <trkpt lat="44.36988" lon="5.51776">
        <ele>695.7</ele>
        <time>2016-08-14T11:31:08Z</time>
      </trkpt>
      <trkpt lat="44.3698" lon="5.51785">
        <ele>695.3</ele>
        <time>2016-08-14T11:31:14Z</time>
      </trkpt>
      <trkpt lat="44.36973" lon="5.51794">
        <ele>694.8</ele>
        <time>2016-08-14T11:31:19Z</time>
      </trkpt>
      <trkpt lat="44.36965" lon="5.51803">
        <ele>694.3</ele>
        <time>2016-08-14T11:31:25Z</time>
      </trkpt>
      <trkpt lat="44.36958" lon="5.51811">
        <ele>693.9</ele>
        <time>2016-08-14T11:31:31Z</time>
      </trkpt>
      <trkpt lat="44.36951" lon="5.5182">
        <ele>693.5</ele>
        <time>2016-08-14T11:31:37Z</time>
      </trkpt>
      <trkpt lat="44.36944" lon="5.5183">
        <ele>693.1</ele>
        <time>2016-08-14T11:31:43Z</time>
      </trkpt>
      <trkpt lat="44.36936" lon="5.51837">
        <ele>692.4</ele>
        <time>2016-08-14T11:31:49Z</time>
      </trkpt>
      <trkpt lat="44.36927" lon="5.51843">
        <ele>691.9</ele>
        <time>2016-08-14T11:31:55Z</time>
      </trkpt>
      <trkpt lat="44.36919" lon="5.51849">
        <ele>690.3</ele>
        <time>2016-08-14T11:32:15Z</time>
      </trkpt>
      <trkpt lat="44.36911" lon="5.51856">
        <ele>689.5</ele>
        <time>2016-08-14T11:32:40Z</time>
      </trkpt>
      <trkpt lat="44.36902" lon="5.51862">
        <ele>689.4</ele>
        <time>2016-08-14T11:32:48Z</time>
      </trkpt>
      <trkpt lat="44.36894" lon="5.51868">
        <ele>689.4</ele>
        <time>2016-08-14T11:32:55Z</time>
      </trkpt>
      <trkpt lat="44.36886" lon="5.51875">
        <ele>689.6</ele>
        <time>2016-08-14T11:33:02Z</time>
      </trkpt>
      <trkpt lat="44.36878" lon="5.51883">
        <ele>689.5</ele>
        <time>2016-08-14T11:33:09Z</time>
      </trkpt>
      <trkpt lat="44.3687" lon="5.51892">
        <ele>689.4</ele>
        <time>2016-08-14T11:33:16Z</time>
      </trkpt>
      <trkpt lat="44.36862" lon="5.51901">
        <ele>689.2</ele>
        <time>2016-08-14T11:33:23Z</time>
      </trkpt>
      <trkpt lat="44.36853" lon="5.51907">
        <ele>688.7</ele>
        <time>2016-08-14T11:33:30Z</time>
      </trkpt>
      <trkpt lat="44.36843" lon="5.51911">
        <ele>688.5</ele>
        <time>2016-08-14T11:33:37Z</time>
      </trkpt>
      <trkpt lat="44.36834" lon="5.51913">
        <ele>688.4</ele>
        <time>2016-08-14T11:33:43Z</time>
      </trkpt>
      <trkpt lat="44.36823" lon="5.51916">
        <ele>688.2</ele>
        <time>2016-08-14T11:33:50Z</time>
      </trkpt>
      <trkpt lat="44.36814" lon="5.51917">
        <ele>687.8</ele>
        <time>2016-08-14T11:33:57Z</time>
      </trkpt>
      <trkpt lat="44.36805" lon="5.51924">
        <ele>687.9</ele>
        <time>2016-08-14T11:34:04Z</time>
      </trkpt>
      <trkpt lat="44.36803" lon="5.51938">
        <ele>688</ele>
        <time>2016-08-14T11:34:12Z</time>
      </trkpt>
      <trkpt lat="44.36802" lon="5.51951">
        <ele>687.9</ele>
        <time>2016-08-14T11:34:19Z</time>
      </trkpt>
      <trkpt lat="44.36799" lon="5.51965">
        <ele>687.5</ele>
        <time>2016-08-14T11:34:26Z</time>
      </trkpt>
      <trkpt lat="44.36792" lon="5.51976">
        <ele>687.3</ele>
        <time>2016-08-14T11:34:33Z</time>
      </trkpt>
      <trkpt lat="44.36783" lon="5.51977">
        <ele>686.6</ele>
        <time>2016-08-14T11:34:39Z</time>
      </trkpt>
      <trkpt lat="44.36774" lon="5.51972">
        <ele>685.4</ele>
        <time>2016-08-14T11:34:48Z</time>
      </trkpt>
      <trkpt lat="44.36765" lon="5.51964">
        <ele>684</ele>
        <time>2016-08-14T11:34:56Z</time>
      </trkpt>
      <trkpt lat="44.36758" lon="5.51956">
        <ele>682.6</ele>
        <time>2016-08-14T11:35:03Z</time>
      </trkpt>
      <trkpt lat="44.3675" lon="5.51946">
        <ele>681.6</ele>
        <time>2016-08-14T11:35:10Z</time>
      </trkpt>
      <trkpt lat="44.36742" lon="5.51937">
        <ele>680.9</ele>
        <time>2016-08-14T11:35:17Z</time>
      </trkpt>
      <trkpt lat="44.36734" lon="5.51928">
        <ele>679.8</ele>
        <time>2016-08-14T11:35:24Z</time>
      </trkpt>
      <trkpt lat="44.36726" lon="5.5192">
        <ele>678.6</ele>
        <time>2016-08-14T11:35:31Z</time>
      </trkpt>
      <trkpt lat="44.36718" lon="5.51914">
        <ele>677</ele>
        <time>2016-08-14T11:35:38Z</time>
      </trkpt>
      <trkpt lat="44.36709" lon="5.51908">
        <ele>675.7</ele>
        <time>2016-08-14T11:35:46Z</time>
      </trkpt>
      <trkpt lat="44.367" lon="5.51905">
        <ele>674.6</ele>
        <time>2016-08-14T11:35:56Z</time>
      </trkpt>
      <trkpt lat="44.3669" lon="5.51903">
        <ele>673.4</ele>
        <time>2016-08-14T11:36:03Z</time>
      </trkpt>
      <trkpt lat="44.36681" lon="5.51898">
        <ele>671.7</ele>
        <time>2016-08-14T11:36:11Z</time>
      </trkpt>
      <trkpt lat="44.36673" lon="5.51893">
        <ele>670.2</ele>
        <time>2016-08-14T11:36:19Z</time>
      </trkpt>
      <trkpt lat="44.36664" lon="5.51897">
        <ele>668.6</ele>
        <time>2016-08-14T11:36:28Z</time>
      </trkpt>
      <trkpt lat="44.36654" lon="5.519">
        <ele>667.8</ele>
        <time>2016-08-14T11:36:33Z</time>
      </trkpt>
      <trkpt lat="44.36645" lon="5.51904">
        <ele>667.1</ele>
        <time>2016-08-14T11:36:40Z</time>
      </trkpt>
      <trkpt lat="44.36636" lon="5.51912">
        <ele>666.8</ele>
        <time>2016-08-14T11:36:46Z</time>
      </trkpt>
      <trkpt lat="44.36629" lon="5.51921">
        <ele>666.8</ele>
        <time>2016-08-14T11:36:52Z</time>
      </trkpt>
      <trkpt lat="44.36623" lon="5.51932">
        <ele>667.2</ele>
        <time>2016-08-14T11:36:58Z</time>
      </trkpt>
      <trkpt lat="44.36618" lon="5.51942">
        <ele>667.5</ele>
        <time>2016-08-14T11:37:04Z</time>
      </trkpt>
      <trkpt lat="44.36611" lon="5.51953">
        <ele>667.9</ele>
        <time>2016-08-14T11:37:10Z</time>
      </trkpt>
      <trkpt lat="44.36603" lon="5.51962">
        <ele>668.5</ele>
        <time>2016-08-14T11:37:16Z</time>
      </trkpt>
      <trkpt lat="44.36595" lon="5.51969">
        <ele>669</ele>
        <time>2016-08-14T11:37:22Z</time>
      </trkpt>
      <trkpt lat="44.36586" lon="5.51975">
        <ele>669.1</ele>
        <time>2016-08-14T11:37:30Z</time>
      </trkpt>
      <trkpt lat="44.36577" lon="5.51977">
        <ele>668.9</ele>
        <time>2016-08-14T11:37:38Z</time>
      </trkpt>
      <trkpt lat="44.36568" lon="5.51977">
        <ele>667.9</ele>
        <time>2016-08-14T11:37:48Z</time>
      </trkpt>
      <trkpt lat="44.36558" lon="5.51978">
        <ele>667.3</ele>
        <time>2016-08-14T11:37:55Z</time>
      </trkpt>
      <trkpt lat="44.36548" lon="5.51979">
        <ele>666.3</ele>
        <time>2016-08-14T11:38:02Z</time>
      </trkpt>
      <trkpt lat="44.36538" lon="5.51979">
        <ele>665</ele>
        <time>2016-08-14T11:38:11Z</time>
      </trkpt>
      <trkpt lat="44.36528" lon="5.51979">
        <ele>663.5</ele>
        <time>2016-08-14T11:38:19Z</time>
      </trkpt>
      <trkpt lat="44.36518" lon="5.51982">
        <ele>662.7</ele>
        <time>2016-08-14T11:38:26Z</time>
      </trkpt>
      <trkpt lat="44.36508" lon="5.51984">
        <ele>661.9</ele>
        <time>2016-08-14T11:38:32Z</time>
      </trkpt>
      <trkpt lat="44.36498" lon="5.51985">
        <ele>660.6</ele>
        <time>2016-08-14T11:38:37Z</time>
      </trkpt>
      <trkpt lat="44.36488" lon="5.51987">
        <ele>659.4</ele>
        <time>2016-08-14T11:38:43Z</time>
      </trkpt>
      <trkpt lat="44.36477" lon="5.51991">
        <ele>658.6</ele>
        <time>2016-08-14T11:38:49Z</time>
      </trkpt>
      <trkpt lat="44.36467" lon="5.51991">
        <ele>657.8</ele>
        <time>2016-08-14T11:38:55Z</time>
      </trkpt>
      <trkpt lat="44.36457" lon="5.5199">
        <ele>657</ele>
        <time>2016-08-14T11:39:02Z</time>
      </trkpt>
      <trkpt lat="44.36449" lon="5.51996">
        <ele>656.5</ele>
        <time>2016-08-14T11:39:08Z</time>
      </trkpt>
      <trkpt lat="44.3644" lon="5.52002">
        <ele>655.7</ele>
        <time>2016-08-14T11:39:14Z</time>
      </trkpt>
      <trkpt lat="44.36431" lon="5.52012">
        <ele>655</ele>
        <time>2016-08-14T11:39:21Z</time>
      </trkpt>
      <trkpt lat="44.36423" lon="5.52021">
        <ele>654.8</ele>
        <time>2016-08-14T11:39:27Z</time>
      </trkpt>
      <trkpt lat="44.36417" lon="5.5203">
        <ele>654.3</ele>
        <time>2016-08-14T11:39:34Z</time>
      </trkpt>
      <trkpt lat="44.36409" lon="5.52037">
        <ele>652.1</ele>
        <time>2016-08-14T11:40:34Z</time>
      </trkpt>
      <trkpt lat="44.36401" lon="5.52044">
        <ele>651.9</ele>
        <time>2016-08-14T11:42:03Z</time>
      </trkpt>
      <trkpt lat="44.364" lon="5.52056">
        <ele>652.3</ele>
        <time>2016-08-14T11:42:11Z</time>
      </trkpt>
      <trkpt lat="44.36392" lon="5.52064">
        <ele>653</ele>
        <time>2016-08-14T11:42:20Z</time>
      </trkpt>
      <trkpt lat="44.36382" lon="5.52066">
        <ele>653.7</ele>
        <time>2016-08-14T11:42:28Z</time>
      </trkpt>
      <trkpt lat="44.36376" lon="5.52076">
        <ele>654.1</ele>
        <time>2016-08-14T11:42:37Z</time>
      </trkpt>
      <trkpt lat="44.36371" lon="5.52087">
        <ele>654</ele>
        <time>2016-08-14T11:42:45Z</time>
      </trkpt>
      <trkpt lat="44.36364" lon="5.52097">
        <ele>654</ele>
        <time>2016-08-14T11:42:57Z</time>
      </trkpt>
      <trkpt lat="44.36361" lon="5.52084">
        <ele>654.9</ele>
        <time>2016-08-14T11:45:31Z</time>
      </trkpt>
      <trkpt lat="44.36356" lon="5.52094">
        <ele>653.4</ele>
        <time>2016-08-14T11:47:37Z</time>
      </trkpt>
      <trkpt lat="44.36365" lon="5.52093">
        <ele>653.6</ele>
        <time>2016-08-14T11:49:54Z</time>
      </trkpt>
      <trkpt lat="44.36356" lon="5.52093">
        <ele>653.3</ele>
        <time>2016-08-14T11:59:16Z</time>
      </trkpt>
      <trkpt lat="44.36365" lon="5.52095">
        <ele>654.3</ele>
        <time>2016-08-14T12:03:36Z</time>
      </trkpt>
      <trkpt lat="44.36374" lon="5.52092">
        <ele>654.2</ele>
        <time>2016-08-14T12:05:17Z</time>
      </trkpt>
      <trkpt lat="44.36365" lon="5.52093">
        <ele>654.7</ele>
        <time>2016-08-14T12:06:41Z</time>
      </trkpt>
      <trkpt lat="44.36356" lon="5.52095">
        <ele>654.3</ele>
        <time>2016-08-14T12:07:28Z</time>
      </trkpt>
      <trkpt lat="44.36347" lon="5.52098">
        <ele>654.5</ele>
        <time>2016-08-14T12:13:07Z</time>
      </trkpt>
      <trkpt lat="44.36356" lon="5.52098">
        <ele>654.5</ele>
        <time>2016-08-14T12:14:36Z</time>
      </trkpt>
      <trkpt lat="44.36347" lon="5.52096">
        <ele>654.6</ele>
        <time>2016-08-14T12:29:06Z</time>
      </trkpt>
      <trkpt lat="44.36356" lon="5.52096">
        <ele>654.8</ele>
        <time>2016-08-14T12:31:18Z</time>
      </trkpt>
      <trkpt lat="44.36365" lon="5.52097">
        <ele>656.6</ele>
        <time>2016-08-14T12:48:53Z</time>
      </trkpt>
      <trkpt lat="44.36355" lon="5.52096">
        <ele>656.7</ele>
        <time>2016-08-14T12:49:52Z</time>
      </trkpt>
      <trkpt lat="44.3635" lon="5.52086">
        <ele>657.9</ele>
        <time>2016-08-14T13:04:30Z</time>
      </trkpt>
      <trkpt lat="44.36355" lon="5.52076">
        <ele>658.1</ele>
        <time>2016-08-14T13:05:36Z</time>
      </trkpt>
      <trkpt lat="44.36352" lon="5.52088">
        <ele>658.1</ele>
        <time>2016-08-14T13:05:57Z</time>
      </trkpt>
      <trkpt lat="44.36359" lon="5.52097">
        <ele>657.4</ele>
        <time>2016-08-14T13:08:53Z</time>
      </trkpt>
      <trkpt lat="44.3636" lon="5.5211">
        <ele>658.9</ele>
        <time>2016-08-14T13:14:17Z</time>
      </trkpt>
      <trkpt lat="44.36362" lon="5.52123">
        <ele>658.6</ele>
        <time>2016-08-14T13:14:29Z</time>
      </trkpt>
      <trkpt lat="44.36363" lon="5.52135">
        <ele>658.6</ele>
        <time>2016-08-14T13:14:39Z</time>
      </trkpt>
      <trkpt lat="44.36356" lon="5.52145">
        <ele>658.9</ele>
        <time>2016-08-14T13:14:49Z</time>
      </trkpt>
      <trkpt lat="44.36348" lon="5.52149">
        <ele>659.3</ele>
        <time>2016-08-14T13:14:58Z</time>
      </trkpt>
      <trkpt lat="44.36339" lon="5.52146">
        <ele>660</ele>
        <time>2016-08-14T13:15:08Z</time>
      </trkpt>
      <trkpt lat="44.36331" lon="5.5214">
        <ele>660.9</ele>
        <time>2016-08-14T13:15:18Z</time>
      </trkpt>
      <trkpt lat="44.36321" lon="5.52139">
        <ele>662.6</ele>
        <time>2016-08-14T13:15:29Z</time>
      </trkpt>
      <trkpt lat="44.36312" lon="5.52139">
        <ele>664.8</ele>
        <time>2016-08-14T13:15:40Z</time>
      </trkpt>
      <trkpt lat="44.36303" lon="5.52138">
        <ele>667.1</ele>
        <time>2016-08-14T13:15:50Z</time>
      </trkpt>
      <trkpt lat="44.36294" lon="5.52136">
        <ele>669.3</ele>
        <time>2016-08-14T13:15:59Z</time>
      </trkpt>
      <trkpt lat="44.36284" lon="5.52134">
        <ele>671</ele>
        <time>2016-08-14T13:16:08Z</time>
      </trkpt>
      <trkpt lat="44.36274" lon="5.52137">
        <ele>672.6</ele>
        <time>2016-08-14T13:16:18Z</time>
      </trkpt>
      <trkpt lat="44.36265" lon="5.5214">
        <ele>674.2</ele>
        <time>2016-08-14T13:16:28Z</time>
      </trkpt>
      <trkpt lat="44.36256" lon="5.52141">
        <ele>676</ele>
        <time>2016-08-14T13:16:37Z</time>
      </trkpt>
      <trkpt lat="44.36247" lon="5.52141">
        <ele>678</ele>
        <time>2016-08-14T13:16:46Z</time>
      </trkpt>
      <trkpt lat="44.36238" lon="5.52137">
        <ele>679.5</ele>
        <time>2016-08-14T13:16:56Z</time>
      </trkpt>
      <trkpt lat="44.3623" lon="5.52133">
        <ele>680.8</ele>
        <time>2016-08-14T13:17:06Z</time>
      </trkpt>
      <trkpt lat="44.36221" lon="5.52138">
        <ele>683.6</ele>
        <time>2016-08-14T13:17:32Z</time>
      </trkpt>
      <trkpt lat="44.36229" lon="5.52134">
        <ele>684.5</ele>
        <time>2016-08-14T13:19:46Z</time>
      </trkpt>
      <trkpt lat="44.36238" lon="5.52139">
        <ele>683.8</ele>
        <time>2016-08-14T13:19:59Z</time>
      </trkpt>
      <trkpt lat="44.36248" lon="5.52142">
        <ele>682.6</ele>
        <time>2016-08-14T13:20:10Z</time>
      </trkpt>
      <trkpt lat="44.36258" lon="5.52142">
        <ele>681.3</ele>
        <time>2016-08-14T13:20:20Z</time>
      </trkpt>
      <trkpt lat="44.36268" lon="5.52139">
        <ele>680</ele>
        <time>2016-08-14T13:20:30Z</time>
      </trkpt>
      <trkpt lat="44.36277" lon="5.52135">
        <ele>678.6</ele>
        <time>2016-08-14T13:20:40Z</time>
      </trkpt>
      <trkpt lat="44.36287" lon="5.52136">
        <ele>676.8</ele>
        <time>2016-08-14T13:20:49Z</time>
      </trkpt>
      <trkpt lat="44.36295" lon="5.52138">
        <ele>675.5</ele>
        <time>2016-08-14T13:20:56Z</time>
      </trkpt>
      <trkpt lat="44.36305" lon="5.5214">
        <ele>674.1</ele>
        <time>2016-08-14T13:21:06Z</time>
      </trkpt>
      <trkpt lat="44.36314" lon="5.5214">
        <ele>671.4</ele>
        <time>2016-08-14T13:21:18Z</time>
      </trkpt>
      <trkpt lat="44.36324" lon="5.5214">
        <ele>669</ele>
        <time>2016-08-14T13:21:31Z</time>
      </trkpt>
      <trkpt lat="44.36333" lon="5.52144">
        <ele>666.5</ele>
        <time>2016-08-14T13:21:41Z</time>
      </trkpt>
      <trkpt lat="44.36342" lon="5.52148">
        <ele>665</ele>
        <time>2016-08-14T13:21:50Z</time>
      </trkpt>
      <trkpt lat="44.36352" lon="5.52145">
        <ele>663.1</ele>
        <time>2016-08-14T13:21:59Z</time>
      </trkpt>
      <trkpt lat="44.36361" lon="5.52142">
        <ele>661.6</ele>
        <time>2016-08-14T13:22:07Z</time>
      </trkpt>
      <trkpt lat="44.36368" lon="5.5215">
        <ele>660.3</ele>
        <time>2016-08-14T13:22:17Z</time>
      </trkpt>
      <trkpt lat="44.36361" lon="5.52159">
        <ele>659.9</ele>
        <time>2016-08-14T13:22:29Z</time>
      </trkpt>
      <trkpt lat="44.36353" lon="5.52165">
        <ele>659.9</ele>
        <time>2016-08-14T13:22:41Z</time>
      </trkpt>
      <trkpt lat="44.36343" lon="5.52169">
        <ele>660.2</ele>
        <time>2016-08-14T13:22:51Z</time>
      </trkpt>
      <trkpt lat="44.36337" lon="5.52179">
        <ele>660.9</ele>
        <time>2016-08-14T13:22:59Z</time>
      </trkpt>
      <trkpt lat="44.36331" lon="5.52189">
        <ele>661.4</ele>
        <time>2016-08-14T13:23:07Z</time>
      </trkpt>
      <trkpt lat="44.36326" lon="5.52199">
        <ele>662.3</ele>
        <time>2016-08-14T13:23:19Z</time>
      </trkpt>
      <trkpt lat="44.3632" lon="5.52208">
        <ele>664.4</ele>
        <time>2016-08-14T13:24:13Z</time>
      </trkpt>
      <trkpt lat="44.36315" lon="5.52219">
        <ele>664.3</ele>
        <time>2016-08-14T13:24:30Z</time>
      </trkpt>
      <trkpt lat="44.36307" lon="5.52227">
        <ele>664.8</ele>
        <time>2016-08-14T13:24:39Z</time>
      </trkpt>
      <trkpt lat="44.36301" lon="5.52237">
        <ele>665.3</ele>
        <time>2016-08-14T13:24:48Z</time>
      </trkpt>
      <trkpt lat="44.36294" lon="5.52245">
        <ele>666.4</ele>
        <time>2016-08-14T13:24:56Z</time>
      </trkpt>
      <trkpt lat="44.36289" lon="5.52256">
        <ele>668</ele>
        <time>2016-08-14T13:25:04Z</time>
      </trkpt>
      <trkpt lat="44.36287" lon="5.5227">
        <ele>669.4</ele>
        <time>2016-08-14T13:25:11Z</time>
      </trkpt>
      <trkpt lat="44.36284" lon="5.52282">
        <ele>670.7</ele>
        <time>2016-08-14T13:25:18Z</time>
      </trkpt>
      <trkpt lat="44.36283" lon="5.52296">
        <ele>672.3</ele>
        <time>2016-08-14T13:25:27Z</time>
      </trkpt>
      <trkpt lat="44.36283" lon="5.52309">
        <ele>674.3</ele>
        <time>2016-08-14T13:25:40Z</time>
      </trkpt>
      <trkpt lat="44.36284" lon="5.52323">
        <ele>675.6</ele>
        <time>2016-08-14T13:25:47Z</time>
      </trkpt>
      <trkpt lat="44.36285" lon="5.52336">
        <ele>676.8</ele>
        <time>2016-08-14T13:25:54Z</time>
      </trkpt>
      <trkpt lat="44.36285" lon="5.52349">
        <ele>678</ele>
        <time>2016-08-14T13:26:00Z</time>
      </trkpt>
      <trkpt lat="44.36283" lon="5.52362">
        <ele>679.7</ele>
        <time>2016-08-14T13:26:07Z</time>
      </trkpt>
      <trkpt lat="44.36281" lon="5.52375">
        <ele>681.7</ele>
        <time>2016-08-14T13:26:15Z</time>
      </trkpt>
      <trkpt lat="44.36277" lon="5.52387">
        <ele>683.9</ele>
        <time>2016-08-14T13:26:23Z</time>
      </trkpt>
      <trkpt lat="44.36274" lon="5.524">
        <ele>685.8</ele>
        <time>2016-08-14T13:26:31Z</time>
      </trkpt>
      <trkpt lat="44.36274" lon="5.52413">
        <ele>687.6</ele>
        <time>2016-08-14T13:26:38Z</time>
      </trkpt>
      <trkpt lat="44.36272" lon="5.52427">
        <ele>689.1</ele>
        <time>2016-08-14T13:26:46Z</time>
      </trkpt>
      <trkpt lat="44.36269" lon="5.5244">
        <ele>690.2</ele>
        <time>2016-08-14T13:26:53Z</time>
      </trkpt>
      <trkpt lat="44.36265" lon="5.52454">
        <ele>690.9</ele>
        <time>2016-08-14T13:27:01Z</time>
      </trkpt>
      <trkpt lat="44.36262" lon="5.52467">
        <ele>691.8</ele>
        <time>2016-08-14T13:27:08Z</time>
      </trkpt>
      <trkpt lat="44.3626" lon="5.52481">
        <ele>692.7</ele>
        <time>2016-08-14T13:27:15Z</time>
      </trkpt>
      <trkpt lat="44.36259" lon="5.52494">
        <ele>693.8</ele>
        <time>2016-08-14T13:27:21Z</time>
      </trkpt>
      <trkpt lat="44.36258" lon="5.52507">
        <ele>695</ele>
        <time>2016-08-14T13:27:28Z</time>
      </trkpt>
      <trkpt lat="44.36255" lon="5.5252">
        <ele>696.2</ele>
        <time>2016-08-14T13:27:35Z</time>
      </trkpt>
      <trkpt lat="44.36252" lon="5.52533">
        <ele>697.4</ele>
        <time>2016-08-14T13:27:42Z</time>
      </trkpt>
      <trkpt lat="44.3625" lon="5.52546">
        <ele>698.3</ele>
        <time>2016-08-14T13:27:49Z</time>
      </trkpt>
      <trkpt lat="44.36248" lon="5.5256">
        <ele>699.1</ele>
        <time>2016-08-14T13:27:57Z</time>
      </trkpt>
      <trkpt lat="44.36246" lon="5.52573">
        <ele>699.6</ele>
        <time>2016-08-14T13:28:05Z</time>
      </trkpt>
      <trkpt lat="44.36241" lon="5.52583">
        <ele>700.9</ele>
        <time>2016-08-14T13:28:19Z</time>
      </trkpt>
      <trkpt lat="44.36235" lon="5.52595">
        <ele>702</ele>
        <time>2016-08-14T13:28:31Z</time>
      </trkpt>
      <trkpt lat="44.36231" lon="5.52608">
        <ele>702.2</ele>
        <time>2016-08-14T13:28:38Z</time>
      </trkpt>
      <trkpt lat="44.36225" lon="5.52618">
        <ele>703</ele>
        <time>2016-08-14T13:28:45Z</time>
      </trkpt>
      <trkpt lat="44.36219" lon="5.5263">
        <ele>703.7</ele>
        <time>2016-08-14T13:28:52Z</time>
      </trkpt>
      <trkpt lat="44.36214" lon="5.52641">
        <ele>704.4</ele>
        <time>2016-08-14T13:28:59Z</time>
      </trkpt>
      <trkpt lat="44.36208" lon="5.52651">
        <ele>705</ele>
        <time>2016-08-14T13:29:06Z</time>
      </trkpt>
      <trkpt lat="44.36201" lon="5.52658">
        <ele>706</ele>
        <time>2016-08-14T13:29:13Z</time>
      </trkpt>
      <trkpt lat="44.36193" lon="5.52665">
        <ele>707.1</ele>
        <time>2016-08-14T13:29:20Z</time>
      </trkpt>
      <trkpt lat="44.36186" lon="5.52674">
        <ele>708.4</ele>
        <time>2016-08-14T13:29:29Z</time>
      </trkpt>
      <trkpt lat="44.3618" lon="5.52685">
        <ele>709.9</ele>
        <time>2016-08-14T13:29:38Z</time>
      </trkpt>
      <trkpt lat="44.36171" lon="5.52692">
        <ele>711</ele>
        <time>2016-08-14T13:29:47Z</time>
      </trkpt>
      <trkpt lat="44.36162" lon="5.52694">
        <ele>711.8</ele>
        <time>2016-08-14T13:29:55Z</time>
      </trkpt>
      <trkpt lat="44.36153" lon="5.52699">
        <ele>712.8</ele>
        <time>2016-08-14T13:30:03Z</time>
      </trkpt>
      <trkpt lat="44.36146" lon="5.52709">
        <ele>713.4</ele>
        <time>2016-08-14T13:30:10Z</time>
      </trkpt>
      <trkpt lat="44.36142" lon="5.52721">
        <ele>714.2</ele>
        <time>2016-08-14T13:30:17Z</time>
      </trkpt>
      <trkpt lat="44.36136" lon="5.52733">
        <ele>715.5</ele>
        <time>2016-08-14T13:30:23Z</time>
      </trkpt>
      <trkpt lat="44.36132" lon="5.52746">
        <ele>716.9</ele>
        <time>2016-08-14T13:30:30Z</time>
      </trkpt>
      <trkpt lat="44.36129" lon="5.52758">
        <ele>718.1</ele>
        <time>2016-08-14T13:30:37Z</time>
      </trkpt>
      <trkpt lat="44.36122" lon="5.52767">
        <ele>719.6</ele>
        <time>2016-08-14T13:30:46Z</time>
      </trkpt>
      <trkpt lat="44.36115" lon="5.52776">
        <ele>722.1</ele>
        <time>2016-08-14T13:31:04Z</time>
      </trkpt>
      <trkpt lat="44.36109" lon="5.52786">
        <ele>723.3</ele>
        <time>2016-08-14T13:31:47Z</time>
      </trkpt>
      <trkpt lat="44.36101" lon="5.52791">
        <ele>723.7</ele>
        <time>2016-08-14T13:32:41Z</time>
      </trkpt>
      <trkpt lat="44.36092" lon="5.52797">
        <ele>723.8</ele>
        <time>2016-08-14T13:32:53Z</time>
      </trkpt>
      <trkpt lat="44.36086" lon="5.52807">
        <ele>723.7</ele>
        <time>2016-08-14T13:33:02Z</time>
      </trkpt>
      <trkpt lat="44.36079" lon="5.52817">
        <ele>723.4</ele>
        <time>2016-08-14T13:33:10Z</time>
      </trkpt>
      <trkpt lat="44.36074" lon="5.52829">
        <ele>723.5</ele>
        <time>2016-08-14T13:33:17Z</time>
      </trkpt>
      <trkpt lat="44.36068" lon="5.52839">
        <ele>723.7</ele>
        <time>2016-08-14T13:33:25Z</time>
      </trkpt>
      <trkpt lat="44.36061" lon="5.52848">
        <ele>724.1</ele>
        <time>2016-08-14T13:33:32Z</time>
      </trkpt>
      <trkpt lat="44.36054" lon="5.52858">
        <ele>724.6</ele>
        <time>2016-08-14T13:33:39Z</time>
      </trkpt>
      <trkpt lat="44.36047" lon="5.52868">
        <ele>724.9</ele>
        <time>2016-08-14T13:33:45Z</time>
      </trkpt>
      <trkpt lat="44.36041" lon="5.52879">
        <ele>725.3</ele>
        <time>2016-08-14T13:33:52Z</time>
      </trkpt>
      <trkpt lat="44.36034" lon="5.52888">
        <ele>725.7</ele>
        <time>2016-08-14T13:33:58Z</time>
      </trkpt>
      <trkpt lat="44.36026" lon="5.52898">
        <ele>726.1</ele>
        <time>2016-08-14T13:34:04Z</time>
      </trkpt>
      <trkpt lat="44.36019" lon="5.52907">
        <ele>726.7</ele>
        <time>2016-08-14T13:34:10Z</time>
      </trkpt>
      <trkpt lat="44.36015" lon="5.52919">
        <ele>727.2</ele>
        <time>2016-08-14T13:34:18Z</time>
      </trkpt>
      <trkpt lat="44.36009" lon="5.52929">
        <ele>727.2</ele>
        <time>2016-08-14T13:34:25Z</time>
      </trkpt>
      <trkpt lat="44.35999" lon="5.52934">
        <ele>727.1</ele>
        <time>2016-08-14T13:34:33Z</time>
      </trkpt>
      <trkpt lat="44.35992" lon="5.52942">
        <ele>727.6</ele>
        <time>2016-08-14T13:34:40Z</time>
      </trkpt>
      <trkpt lat="44.35986" lon="5.52951">
        <ele>727.9</ele>
        <time>2016-08-14T13:34:47Z</time>
      </trkpt>
      <trkpt lat="44.35977" lon="5.52957">
        <ele>728.6</ele>
        <time>2016-08-14T13:34:56Z</time>
      </trkpt>
      <trkpt lat="44.3597" lon="5.52965">
        <ele>729.2</ele>
        <time>2016-08-14T13:35:04Z</time>
      </trkpt>
      <trkpt lat="44.35962" lon="5.52974">
        <ele>729.8</ele>
        <time>2016-08-14T13:35:11Z</time>
      </trkpt>
      <trkpt lat="44.35956" lon="5.52985">
        <ele>730.6</ele>
        <time>2016-08-14T13:35:18Z</time>
      </trkpt>
      <trkpt lat="44.35951" lon="5.52996">
        <ele>731.4</ele>
        <time>2016-08-14T13:35:24Z</time>
      </trkpt>
      <trkpt lat="44.35946" lon="5.53008">
        <ele>732.3</ele>
        <time>2016-08-14T13:35:31Z</time>
      </trkpt>
      <trkpt lat="44.35942" lon="5.53021">
        <ele>733.5</ele>
        <time>2016-08-14T13:35:38Z</time>
      </trkpt>
      <trkpt lat="44.35936" lon="5.53032">
        <ele>735</ele>
        <time>2016-08-14T13:35:46Z</time>
      </trkpt>
      <trkpt lat="44.3593" lon="5.53043">
        <ele>736.2</ele>
        <time>2016-08-14T13:35:54Z</time>
      </trkpt>
      <trkpt lat="44.35923" lon="5.53053">
        <ele>737.4</ele>
        <time>2016-08-14T13:36:01Z</time>
      </trkpt>
      <trkpt lat="44.35919" lon="5.53064">
        <ele>738.3</ele>
        <time>2016-08-14T13:36:08Z</time>
      </trkpt>
      <trkpt lat="44.35916" lon="5.53078">
        <ele>739</ele>
        <time>2016-08-14T13:36:16Z</time>
      </trkpt>
      <trkpt lat="44.35914" lon="5.53092">
        <ele>739.5</ele>
        <time>2016-08-14T13:36:24Z</time>
      </trkpt>
      <trkpt lat="44.3591" lon="5.53104">
        <ele>740.5</ele>
        <time>2016-08-14T13:36:33Z</time>
      </trkpt>
      <trkpt lat="44.35906" lon="5.53115">
        <ele>741.4</ele>
        <time>2016-08-14T13:36:48Z</time>
      </trkpt>
      <trkpt lat="44.35897" lon="5.5312">
        <ele>741.8</ele>
        <time>2016-08-14T13:37:08Z</time>
      </trkpt>
      <trkpt lat="44.35888" lon="5.53115">
        <ele>741.9</ele>
        <time>2016-08-14T13:37:17Z</time>
      </trkpt>
      <trkpt lat="44.35878" lon="5.53112">
        <ele>741.7</ele>
        <time>2016-08-14T13:37:26Z</time>
      </trkpt>
      <trkpt lat="44.35868" lon="5.53107">
        <ele>741.4</ele>
        <time>2016-08-14T13:37:34Z</time>
      </trkpt>
      <trkpt lat="44.35859" lon="5.53102">
        <ele>741.2</ele>
        <time>2016-08-14T13:37:40Z</time>
      </trkpt>
      <trkpt lat="44.3585" lon="5.53097">
        <ele>740.9</ele>
        <time>2016-08-14T13:37:47Z</time>
      </trkpt>
      <trkpt lat="44.3584" lon="5.53092">
        <ele>740.8</ele>
        <time>2016-08-14T13:37:54Z</time>
      </trkpt>
      <trkpt lat="44.35831" lon="5.53087">
        <ele>740.8</ele>
        <time>2016-08-14T13:38:01Z</time>
      </trkpt>
      <trkpt lat="44.35823" lon="5.53083">
        <ele>740.8</ele>
        <time>2016-08-14T13:38:08Z</time>
      </trkpt>
      <trkpt lat="44.35819" lon="5.53071">
        <ele>740.8</ele>
        <time>2016-08-14T13:38:23Z</time>
      </trkpt>
      <trkpt lat="44.35814" lon="5.5306">
        <ele>741.4</ele>
        <time>2016-08-14T13:38:32Z</time>
      </trkpt>
      <trkpt lat="44.35806" lon="5.53052">
        <ele>742.7</ele>
        <time>2016-08-14T13:38:41Z</time>
      </trkpt>
      <trkpt lat="44.35798" lon="5.53047">
        <ele>743.6</ele>
        <time>2016-08-14T13:38:48Z</time>
      </trkpt>
      <trkpt lat="44.35788" lon="5.53043">
        <ele>745</ele>
        <time>2016-08-14T13:38:56Z</time>
      </trkpt>
      <trkpt lat="44.35781" lon="5.53034">
        <ele>746.4</ele>
        <time>2016-08-14T13:39:05Z</time>
      </trkpt>
      <trkpt lat="44.35771" lon="5.53029">
        <ele>747.3</ele>
        <time>2016-08-14T13:39:12Z</time>
      </trkpt>
      <trkpt lat="44.35762" lon="5.53027">
        <ele>748.6</ele>
        <time>2016-08-14T13:39:20Z</time>
      </trkpt>
      <trkpt lat="44.35753" lon="5.53021">
        <ele>750</ele>
        <time>2016-08-14T13:39:29Z</time>
      </trkpt>
      <trkpt lat="44.35745" lon="5.53013">
        <ele>752</ele>
        <time>2016-08-14T13:39:38Z</time>
      </trkpt>
      <trkpt lat="44.35742" lon="5.53001">
        <ele>754.8</ele>
        <time>2016-08-14T13:39:51Z</time>
      </trkpt>
      <trkpt lat="44.35734" lon="5.52993">
        <ele>756.6</ele>
        <time>2016-08-14T13:39:59Z</time>
      </trkpt>
      <trkpt lat="44.35725" lon="5.52988">
        <ele>758.3</ele>
        <time>2016-08-14T13:40:06Z</time>
      </trkpt>
      <trkpt lat="44.35716" lon="5.52985">
        <ele>760.6</ele>
        <time>2016-08-14T13:40:15Z</time>
      </trkpt>
      <trkpt lat="44.35707" lon="5.52979">
        <ele>762.4</ele>
        <time>2016-08-14T13:40:24Z</time>
      </trkpt>
      <trkpt lat="44.35698" lon="5.52975">
        <ele>766.7</ele>
        <time>2016-08-14T13:40:52Z</time>
      </trkpt>
      <trkpt lat="44.35688" lon="5.52971">
        <ele>767.4</ele>
        <time>2016-08-14T13:41:01Z</time>
      </trkpt>
      <trkpt lat="44.35679" lon="5.52969">
        <ele>769</ele>
        <time>2016-08-14T13:41:10Z</time>
      </trkpt>
      <trkpt lat="44.3567" lon="5.52971">
        <ele>769.8</ele>
        <time>2016-08-14T13:41:19Z</time>
      </trkpt>
      <trkpt lat="44.35661" lon="5.52975">
        <ele>770.6</ele>
        <time>2016-08-14T13:41:28Z</time>
      </trkpt>
      <trkpt lat="44.35652" lon="5.52981">
        <ele>771.4</ele>
        <time>2016-08-14T13:41:36Z</time>
      </trkpt>
      <trkpt lat="44.35643" lon="5.52983">
        <ele>772.8</ele>
        <time>2016-08-14T13:41:44Z</time>
      </trkpt>
      <trkpt lat="44.35635" lon="5.5299">
        <ele>774.6</ele>
        <time>2016-08-14T13:41:51Z</time>
      </trkpt>
      <trkpt lat="44.35627" lon="5.52997">
        <ele>775.6</ele>
        <time>2016-08-14T13:41:58Z</time>
      </trkpt>
      <trkpt lat="44.3562" lon="5.53007">
        <ele>776.8</ele>
        <time>2016-08-14T13:42:06Z</time>
      </trkpt>
      <trkpt lat="44.35613" lon="5.53016">
        <ele>778</ele>
        <time>2016-08-14T13:42:14Z</time>
      </trkpt>
      <trkpt lat="44.35606" lon="5.53024">
        <ele>779.7</ele>
        <time>2016-08-14T13:42:21Z</time>
      </trkpt>
      <trkpt lat="44.35597" lon="5.53029">
        <ele>781.5</ele>
        <time>2016-08-14T13:42:31Z</time>
      </trkpt>
      <trkpt lat="44.35587" lon="5.53028">
        <ele>782.3</ele>
        <time>2016-08-14T13:42:40Z</time>
      </trkpt>
      <trkpt lat="44.35579" lon="5.53034">
        <ele>782.4</ele>
        <time>2016-08-14T13:42:47Z</time>
      </trkpt>
      <trkpt lat="44.35571" lon="5.53041">
        <ele>782.1</ele>
        <time>2016-08-14T13:42:55Z</time>
      </trkpt>
      <trkpt lat="44.35562" lon="5.53049">
        <ele>782</ele>
        <time>2016-08-14T13:43:02Z</time>
      </trkpt>
      <trkpt lat="44.35553" lon="5.53056">
        <ele>781.9</ele>
        <time>2016-08-14T13:43:09Z</time>
      </trkpt>
      <trkpt lat="44.35544" lon="5.5306">
        <ele>781.6</ele>
        <time>2016-08-14T13:43:19Z</time>
      </trkpt>
      <trkpt lat="44.35535" lon="5.53064">
        <ele>781.4</ele>
        <time>2016-08-14T13:43:28Z</time>
      </trkpt>
      <trkpt lat="44.35528" lon="5.53073">
        <ele>781.5</ele>
        <time>2016-08-14T13:43:35Z</time>
      </trkpt>
      <trkpt lat="44.35519" lon="5.53078">
        <ele>782.1</ele>
        <time>2016-08-14T13:43:43Z</time>
      </trkpt>
      <trkpt lat="44.35512" lon="5.53087">
        <ele>782.4</ele>
        <time>2016-08-14T13:43:52Z</time>
      </trkpt>
      <trkpt lat="44.35507" lon="5.53099">
        <ele>782.4</ele>
        <time>2016-08-14T13:44:00Z</time>
      </trkpt>
      <trkpt lat="44.35503" lon="5.53111">
        <ele>782.2</ele>
        <time>2016-08-14T13:44:08Z</time>
      </trkpt>
      <trkpt lat="44.35496" lon="5.53119">
        <ele>782.2</ele>
        <time>2016-08-14T13:44:15Z</time>
      </trkpt>
      <trkpt lat="44.3549" lon="5.5313">
        <ele>782.8</ele>
        <time>2016-08-14T13:44:24Z</time>
      </trkpt>
      <trkpt lat="44.35487" lon="5.53142">
        <ele>783.4</ele>
        <time>2016-08-14T13:44:32Z</time>
      </trkpt>
      <trkpt lat="44.35481" lon="5.53152">
        <ele>784</ele>
        <time>2016-08-14T13:44:39Z</time>
      </trkpt>
      <trkpt lat="44.35478" lon="5.53164">
        <ele>784.4</ele>
        <time>2016-08-14T13:44:46Z</time>
      </trkpt>
      <trkpt lat="44.35475" lon="5.53178">
        <ele>785</ele>
        <time>2016-08-14T13:44:53Z</time>
      </trkpt>
      <trkpt lat="44.35472" lon="5.53191">
        <ele>785.9</ele>
        <time>2016-08-14T13:45:02Z</time>
      </trkpt>
      <trkpt lat="44.35469" lon="5.53205">
        <ele>786.8</ele>
        <time>2016-08-14T13:45:10Z</time>
      </trkpt>
      <trkpt lat="44.35464" lon="5.53216">
        <ele>787.9</ele>
        <time>2016-08-14T13:45:17Z</time>
      </trkpt>
      <trkpt lat="44.35457" lon="5.53225">
        <ele>789.2</ele>
        <time>2016-08-14T13:45:25Z</time>
      </trkpt>
      <trkpt lat="44.35452" lon="5.53237">
        <ele>789.9</ele>
        <time>2016-08-14T13:45:32Z</time>
      </trkpt>
      <trkpt lat="44.35451" lon="5.5325">
        <ele>790.2</ele>
        <time>2016-08-14T13:45:39Z</time>
      </trkpt>
      <trkpt lat="44.35451" lon="5.53263">
        <ele>790.5</ele>
        <time>2016-08-14T13:45:46Z</time>
      </trkpt>
      <trkpt lat="44.35453" lon="5.53277">
        <ele>790.9</ele>
        <time>2016-08-14T13:45:53Z</time>
      </trkpt>
      <trkpt lat="44.35456" lon="5.53289">
        <ele>791.3</ele>
        <time>2016-08-14T13:46:01Z</time>
      </trkpt>
      <trkpt lat="44.3546" lon="5.53302">
        <ele>792</ele>
        <time>2016-08-14T13:46:09Z</time>
      </trkpt>
      <trkpt lat="44.35463" lon="5.53313">
        <ele>792.5</ele>
        <time>2016-08-14T13:46:16Z</time>
      </trkpt>
      <trkpt lat="44.35467" lon="5.53326">
        <ele>792.7</ele>
        <time>2016-08-14T13:46:23Z</time>
      </trkpt>
      <trkpt lat="44.3547" lon="5.53337">
        <ele>792.9</ele>
        <time>2016-08-14T13:46:30Z</time>
      </trkpt>
      <trkpt lat="44.35473" lon="5.5335">
        <ele>793.4</ele>
        <time>2016-08-14T13:46:37Z</time>
      </trkpt>
      <trkpt lat="44.35476" lon="5.53363">
        <ele>794.1</ele>
        <time>2016-08-14T13:46:45Z</time>
      </trkpt>
      <trkpt lat="44.3548" lon="5.53376">
        <ele>794.5</ele>
        <time>2016-08-14T13:46:53Z</time>
      </trkpt>
      <trkpt lat="44.35484" lon="5.53389">
        <ele>794.7</ele>
        <time>2016-08-14T13:47:00Z</time>
      </trkpt>
      <trkpt lat="44.35486" lon="5.53402">
        <ele>794.9</ele>
        <time>2016-08-14T13:47:07Z</time>
      </trkpt>
      <trkpt lat="44.35489" lon="5.53415">
        <ele>795</ele>
        <time>2016-08-14T13:47:14Z</time>
      </trkpt>
      <trkpt lat="44.35494" lon="5.53428">
        <ele>794.7</ele>
        <time>2016-08-14T13:47:22Z</time>
      </trkpt>
      <trkpt lat="44.35498" lon="5.5344">
        <ele>794.1</ele>
        <time>2016-08-14T13:47:29Z</time>
      </trkpt>
      <trkpt lat="44.35504" lon="5.53451">
        <ele>793</ele>
        <time>2016-08-14T13:47:37Z</time>
      </trkpt>
      <trkpt lat="44.35508" lon="5.53463">
        <ele>792.1</ele>
        <time>2016-08-14T13:47:44Z</time>
      </trkpt>
      <trkpt lat="44.35512" lon="5.53476">
        <ele>791.3</ele>
        <time>2016-08-14T13:47:52Z</time>
      </trkpt>
      <trkpt lat="44.35512" lon="5.5349">
        <ele>790.6</ele>
        <time>2016-08-14T13:48:00Z</time>
      </trkpt>
      <trkpt lat="44.35512" lon="5.53503">
        <ele>789.5</ele>
        <time>2016-08-14T13:48:08Z</time>
      </trkpt>
      <trkpt lat="44.35513" lon="5.53516">
        <ele>788.2</ele>
        <time>2016-08-14T13:48:15Z</time>
      </trkpt>
      <trkpt lat="44.35515" lon="5.53529">
        <ele>787.1</ele>
        <time>2016-08-14T13:48:22Z</time>
      </trkpt>
      <trkpt lat="44.35519" lon="5.53542">
        <ele>786.5</ele>
        <time>2016-08-14T13:48:29Z</time>
      </trkpt>
      <trkpt lat="44.35523" lon="5.53555">
        <ele>786.1</ele>
        <time>2016-08-14T13:48:36Z</time>
      </trkpt>
      <trkpt lat="44.35526" lon="5.53567">
        <ele>785.6</ele>
        <time>2016-08-14T13:48:44Z</time>
      </trkpt>
      <trkpt lat="44.35529" lon="5.53581">
        <ele>784.8</ele>
        <time>2016-08-14T13:48:54Z</time>
      </trkpt>
      <trkpt lat="44.35529" lon="5.53594">
        <ele>783.9</ele>
        <time>2016-08-14T13:49:05Z</time>
      </trkpt>
      <trkpt lat="44.35524" lon="5.53605">
        <ele>783.1</ele>
        <time>2016-08-14T13:49:33Z</time>
      </trkpt>
      <trkpt lat="44.35515" lon="5.53604">
        <ele>782.8</ele>
        <time>2016-08-14T13:49:40Z</time>
      </trkpt>
      <trkpt lat="44.35506" lon="5.53608">
        <ele>782.5</ele>
        <time>2016-08-14T13:49:47Z</time>
      </trkpt>
      <trkpt lat="44.35498" lon="5.53615">
        <ele>782.3</ele>
        <time>2016-08-14T13:49:53Z</time>
      </trkpt>
      <trkpt lat="44.3549" lon="5.53622">
        <ele>781.9</ele>
        <time>2016-08-14T13:49:59Z</time>
      </trkpt>
      <trkpt lat="44.35482" lon="5.53627">
        <ele>781.4</ele>
        <time>2016-08-14T13:50:05Z</time>
      </trkpt>
      <trkpt lat="44.35473" lon="5.53632">
        <ele>780.9</ele>
        <time>2016-08-14T13:50:12Z</time>
      </trkpt>
      <trkpt lat="44.35464" lon="5.53636">
        <ele>780.4</ele>
        <time>2016-08-14T13:50:19Z</time>
      </trkpt>
      <trkpt lat="44.35455" lon="5.5364">
        <ele>779.6</ele>
        <time>2016-08-14T13:50:25Z</time>
      </trkpt>
      <trkpt lat="44.35447" lon="5.53645">
        <ele>778.7</ele>
        <time>2016-08-14T13:50:32Z</time>
      </trkpt>
      <trkpt lat="44.35438" lon="5.53651">
        <ele>778</ele>
        <time>2016-08-14T13:50:40Z</time>
      </trkpt>
      <trkpt lat="44.35428" lon="5.53653">
        <ele>777.4</ele>
        <time>2016-08-14T13:50:48Z</time>
      </trkpt>
      <trkpt lat="44.35418" lon="5.53654">
        <ele>776.8</ele>
        <time>2016-08-14T13:50:55Z</time>
      </trkpt>
      <trkpt lat="44.35408" lon="5.53657">
        <ele>776.4</ele>
        <time>2016-08-14T13:51:02Z</time>
      </trkpt>
      <trkpt lat="44.35399" lon="5.53662">
        <ele>776.1</ele>
        <time>2016-08-14T13:51:08Z</time>
      </trkpt>
      <trkpt lat="44.3539" lon="5.53667">
        <ele>775.4</ele>
        <time>2016-08-14T13:51:14Z</time>
      </trkpt>
      <trkpt lat="44.35382" lon="5.53672">
        <ele>774.9</ele>
        <time>2016-08-14T13:51:20Z</time>
      </trkpt>
      <trkpt lat="44.35373" lon="5.53677">
        <ele>774.5</ele>
        <time>2016-08-14T13:51:26Z</time>
      </trkpt>
      <trkpt lat="44.35363" lon="5.53681">
        <ele>774.2</ele>
        <time>2016-08-14T13:51:32Z</time>
      </trkpt>
      <trkpt lat="44.35353" lon="5.53685">
        <ele>773.6</ele>
        <time>2016-08-14T13:51:39Z</time>
      </trkpt>
      <trkpt lat="44.35344" lon="5.53691">
        <ele>773.1</ele>
        <time>2016-08-14T13:51:46Z</time>
      </trkpt>
      <trkpt lat="44.35338" lon="5.53701">
        <ele>772.2</ele>
        <time>2016-08-14T13:51:53Z</time>
      </trkpt>
      <trkpt lat="44.3534" lon="5.53715">
        <ele>771.6</ele>
        <time>2016-08-14T13:52:00Z</time>
      </trkpt>
      <trkpt lat="44.35346" lon="5.53725">
        <ele>771</ele>
        <time>2016-08-14T13:52:07Z</time>
      </trkpt>
      <trkpt lat="44.35352" lon="5.53735">
        <ele>770.2</ele>
        <time>2016-08-14T13:52:14Z</time>
      </trkpt>
      <trkpt lat="44.3536" lon="5.53743">
        <ele>769</ele>
        <time>2016-08-14T13:52:21Z</time>
      </trkpt>
      <trkpt lat="44.35368" lon="5.53751">
        <ele>768.3</ele>
        <time>2016-08-14T13:52:27Z</time>
      </trkpt>
      <trkpt lat="44.35376" lon="5.53759">
        <ele>767.5</ele>
        <time>2016-08-14T13:52:33Z</time>
      </trkpt>
      <trkpt lat="44.35385" lon="5.53765">
        <ele>766.5</ele>
        <time>2016-08-14T13:52:39Z</time>
      </trkpt>
      <trkpt lat="44.35394" lon="5.53769">
        <ele>765.8</ele>
        <time>2016-08-14T13:52:45Z</time>
      </trkpt>
      <trkpt lat="44.35403" lon="5.53771">
        <ele>765.4</ele>
        <time>2016-08-14T13:52:50Z</time>
      </trkpt>
      <trkpt lat="44.35413" lon="5.53771">
        <ele>765</ele>
        <time>2016-08-14T13:52:56Z</time>
      </trkpt>
      <trkpt lat="44.35422" lon="5.5377">
        <ele>764.9</ele>
        <time>2016-08-14T13:53:02Z</time>
      </trkpt>
      <trkpt lat="44.35432" lon="5.5377">
        <ele>764.7</ele>
        <time>2016-08-14T13:53:08Z</time>
      </trkpt>
      <trkpt lat="44.35441" lon="5.53773">
        <ele>764.9</ele>
        <time>2016-08-14T13:53:15Z</time>
      </trkpt>
      <trkpt lat="44.35449" lon="5.53779">
        <ele>765</ele>
        <time>2016-08-14T13:53:22Z</time>
      </trkpt>
      <trkpt lat="44.35458" lon="5.53788">
        <ele>765.1</ele>
        <time>2016-08-14T13:53:29Z</time>
      </trkpt>
      <trkpt lat="44.35465" lon="5.53795">
        <ele>765.6</ele>
        <time>2016-08-14T13:53:35Z</time>
      </trkpt>
      <trkpt lat="44.35472" lon="5.53803">
        <ele>765.8</ele>
        <time>2016-08-14T13:53:41Z</time>
      </trkpt>
      <trkpt lat="44.35481" lon="5.5381">
        <ele>765.9</ele>
        <time>2016-08-14T13:53:48Z</time>
      </trkpt>
      <trkpt lat="44.3549" lon="5.53816">
        <ele>765.6</ele>
        <time>2016-08-14T13:53:55Z</time>
      </trkpt>
      <trkpt lat="44.35498" lon="5.53824">
        <ele>765.6</ele>
        <time>2016-08-14T13:54:01Z</time>
      </trkpt>
      <trkpt lat="44.35505" lon="5.53832">
        <ele>765.6</ele>
        <time>2016-08-14T13:54:07Z</time>
      </trkpt>
      <trkpt lat="44.35513" lon="5.5384">
        <ele>765.5</ele>
        <time>2016-08-14T13:54:13Z</time>
      </trkpt>
      <trkpt lat="44.35519" lon="5.5385">
        <ele>765.7</ele>
        <time>2016-08-14T13:54:20Z</time>
      </trkpt>
      <trkpt lat="44.35525" lon="5.53861">
        <ele>765.8</ele>
        <time>2016-08-14T13:54:27Z</time>
      </trkpt>
      <trkpt lat="44.35531" lon="5.5387">
        <ele>765.7</ele>
        <time>2016-08-14T13:54:33Z</time>
      </trkpt>
      <trkpt lat="44.35539" lon="5.53879">
        <ele>765.7</ele>
        <time>2016-08-14T13:54:40Z</time>
      </trkpt>
      <trkpt lat="44.35549" lon="5.53883">
        <ele>765.5</ele>
        <time>2016-08-14T13:54:47Z</time>
      </trkpt>
      <trkpt lat="44.35558" lon="5.53884">
        <ele>765.4</ele>
        <time>2016-08-14T13:54:53Z</time>
      </trkpt>
      <trkpt lat="44.35567" lon="5.53883">
        <ele>765.1</ele>
        <time>2016-08-14T13:55:02Z</time>
      </trkpt>
      <trkpt lat="44.35576" lon="5.53884">
        <ele>764.5</ele>
        <time>2016-08-14T13:55:11Z</time>
      </trkpt>
      <trkpt lat="44.35586" lon="5.53886">
        <ele>763.5</ele>
        <time>2016-08-14T13:55:20Z</time>
      </trkpt>
      <trkpt lat="44.35595" lon="5.53891">
        <ele>762.2</ele>
        <time>2016-08-14T13:55:29Z</time>
      </trkpt>
      <trkpt lat="44.35604" lon="5.53895">
        <ele>761.2</ele>
        <time>2016-08-14T13:55:36Z</time>
      </trkpt>
      <trkpt lat="44.35613" lon="5.53896">
        <ele>759.8</ele>
        <time>2016-08-14T13:55:43Z</time>
      </trkpt>
      <trkpt lat="44.35623" lon="5.53896">
        <ele>758.7</ele>
        <time>2016-08-14T13:55:51Z</time>
      </trkpt>
      <trkpt lat="44.35633" lon="5.53896">
        <ele>758</ele>
        <time>2016-08-14T13:55:58Z</time>
      </trkpt>
      <trkpt lat="44.35644" lon="5.53893">
        <ele>757.1</ele>
        <time>2016-08-14T13:56:05Z</time>
      </trkpt>
      <trkpt lat="44.35654" lon="5.53895">
        <ele>756</ele>
        <time>2016-08-14T13:56:11Z</time>
      </trkpt>
      <trkpt lat="44.35664" lon="5.53896">
        <ele>755.2</ele>
        <time>2016-08-14T13:56:20Z</time>
      </trkpt>
      <trkpt lat="44.35673" lon="5.539">
        <ele>754.8</ele>
        <time>2016-08-14T13:56:26Z</time>
      </trkpt>
      <trkpt lat="44.35682" lon="5.53906">
        <ele>754.2</ele>
        <time>2016-08-14T13:56:33Z</time>
      </trkpt>
      <trkpt lat="44.35692" lon="5.53909">
        <ele>753.9</ele>
        <time>2016-08-14T13:56:39Z</time>
      </trkpt>
      <trkpt lat="44.35702" lon="5.53912">
        <ele>753.7</ele>
        <time>2016-08-14T13:56:44Z</time>
      </trkpt>
      <trkpt lat="44.35711" lon="5.53917">
        <ele>753.4</ele>
        <time>2016-08-14T13:56:50Z</time>
      </trkpt>
      <trkpt lat="44.3572" lon="5.53921">
        <ele>753.6</ele>
        <time>2016-08-14T13:56:56Z</time>
      </trkpt>
      <trkpt lat="44.35729" lon="5.53929">
        <ele>753.9</ele>
        <time>2016-08-14T13:57:02Z</time>
      </trkpt>
      <trkpt lat="44.35735" lon="5.5394">
        <ele>754.2</ele>
        <time>2016-08-14T13:57:09Z</time>
      </trkpt>
      <trkpt lat="44.35741" lon="5.5395">
        <ele>754.7</ele>
        <time>2016-08-14T13:57:15Z</time>
      </trkpt>
      <trkpt lat="44.35747" lon="5.53959">
        <ele>755.1</ele>
        <time>2016-08-14T13:57:21Z</time>
      </trkpt>
      <trkpt lat="44.35754" lon="5.53967">
        <ele>755.3</ele>
        <time>2016-08-14T13:57:27Z</time>
      </trkpt>
      <trkpt lat="44.35763" lon="5.53975">
        <ele>755.2</ele>
        <time>2016-08-14T13:57:33Z</time>
      </trkpt>
      <trkpt lat="44.35771" lon="5.53983">
        <ele>754.9</ele>
        <time>2016-08-14T13:57:39Z</time>
      </trkpt>
      <trkpt lat="44.35778" lon="5.5399">
        <ele>754.6</ele>
        <time>2016-08-14T13:57:45Z</time>
      </trkpt>
      <trkpt lat="44.35787" lon="5.53995">
        <ele>754.4</ele>
        <time>2016-08-14T13:57:51Z</time>
      </trkpt>
      <trkpt lat="44.35796" lon="5.53998">
        <ele>754.3</ele>
        <time>2016-08-14T13:57:57Z</time>
      </trkpt>
      <trkpt lat="44.35806" lon="5.54">
        <ele>754.1</ele>
        <time>2016-08-14T13:58:06Z</time>
      </trkpt>
      <trkpt lat="44.35816" lon="5.54001">
        <ele>753.8</ele>
        <time>2016-08-14T13:58:13Z</time>
      </trkpt>
      <trkpt lat="44.35825" lon="5.54004">
        <ele>753.9</ele>
        <time>2016-08-14T13:58:19Z</time>
      </trkpt>
      <trkpt lat="44.35835" lon="5.54007">
        <ele>753.9</ele>
        <time>2016-08-14T13:58:25Z</time>
      </trkpt>
      <trkpt lat="44.35844" lon="5.5401">
        <ele>753.6</ele>
        <time>2016-08-14T13:58:31Z</time>
      </trkpt>
      <trkpt lat="44.35853" lon="5.54017">
        <ele>753.4</ele>
        <time>2016-08-14T13:58:38Z</time>
      </trkpt>
      <trkpt lat="44.35862" lon="5.54021">
        <ele>753.1</ele>
        <time>2016-08-14T13:58:44Z</time>
      </trkpt>
      <trkpt lat="44.35871" lon="5.54024">
        <ele>752.9</ele>
        <time>2016-08-14T13:58:50Z</time>
      </trkpt>
      <trkpt lat="44.3588" lon="5.54026">
        <ele>752.7</ele>
        <time>2016-08-14T13:58:56Z</time>
      </trkpt>
      <trkpt lat="44.3589" lon="5.54028">
        <ele>752.5</ele>
        <time>2016-08-14T13:59:03Z</time>
      </trkpt>
      <trkpt lat="44.35898" lon="5.54033">
        <ele>752.2</ele>
        <time>2016-08-14T14:00:26Z</time>
      </trkpt>
      <trkpt lat="44.35901" lon="5.54045">
        <ele>752.1</ele>
        <time>2016-08-14T14:01:23Z</time>
      </trkpt>
      <trkpt lat="44.359" lon="5.54058">
        <ele>752</ele>
        <time>2016-08-14T14:01:30Z</time>
      </trkpt>
      <trkpt lat="44.359" lon="5.54071">
        <ele>751.5</ele>
        <time>2016-08-14T14:01:37Z</time>
      </trkpt>
      <trkpt lat="44.359" lon="5.54084">
        <ele>751</ele>
        <time>2016-08-14T14:01:44Z</time>
      </trkpt>
      <trkpt lat="44.359" lon="5.54097">
        <ele>750.6</ele>
        <time>2016-08-14T14:01:51Z</time>
      </trkpt>
      <trkpt lat="44.35901" lon="5.54111">
        <ele>750</ele>
        <time>2016-08-14T14:01:58Z</time>
      </trkpt>
      <trkpt lat="44.35901" lon="5.54124">
        <ele>749.4</ele>
        <time>2016-08-14T14:02:05Z</time>
      </trkpt>
      <trkpt lat="44.35902" lon="5.54138">
        <ele>749</ele>
        <time>2016-08-14T14:02:12Z</time>
      </trkpt>
      <trkpt lat="44.35903" lon="5.54151">
        <ele>748.3</ele>
        <time>2016-08-14T14:02:22Z</time>
      </trkpt>
      <trkpt lat="44.35904" lon="5.54164">
        <ele>748.1</ele>
        <time>2016-08-14T14:02:29Z</time>
      </trkpt>
      <trkpt lat="44.359" lon="5.54175">
        <ele>747.8</ele>
        <time>2016-08-14T14:02:36Z</time>
      </trkpt>
      <trkpt lat="44.35892" lon="5.54184">
        <ele>747.6</ele>
        <time>2016-08-14T14:02:45Z</time>
      </trkpt>
      <trkpt lat="44.35886" lon="5.54194">
        <ele>748.2</ele>
        <time>2016-08-14T14:02:56Z</time>
      </trkpt>
      <trkpt lat="44.35878" lon="5.54201">
        <ele>749.9</ele>
        <time>2016-08-14T14:03:20Z</time>
      </trkpt>
      <trkpt lat="44.35869" lon="5.54197">
        <ele>749.2</ele>
        <time>2016-08-14T14:03:46Z</time>
      </trkpt>
      <trkpt lat="44.35859" lon="5.54192">
        <ele>749.3</ele>
        <time>2016-08-14T14:03:54Z</time>
      </trkpt>
      <trkpt lat="44.3585" lon="5.54185">
        <ele>749.6</ele>
        <time>2016-08-14T14:04:01Z</time>
      </trkpt>
      <trkpt lat="44.35841" lon="5.54179">
        <ele>750</ele>
        <time>2016-08-14T14:04:08Z</time>
      </trkpt>
      <trkpt lat="44.35832" lon="5.54175">
        <ele>750.5</ele>
        <time>2016-08-14T14:04:15Z</time>
      </trkpt>
      <trkpt lat="44.35823" lon="5.54172">
        <ele>750.8</ele>
        <time>2016-08-14T14:04:21Z</time>
      </trkpt>
      <trkpt lat="44.35814" lon="5.54171">
        <ele>751.2</ele>
        <time>2016-08-14T14:04:27Z</time>
      </trkpt>
      <trkpt lat="44.35804" lon="5.54171">
        <ele>751.6</ele>
        <time>2016-08-14T14:04:34Z</time>
      </trkpt>
      <trkpt lat="44.35794" lon="5.54172">
        <ele>752.1</ele>
        <time>2016-08-14T14:04:41Z</time>
      </trkpt>
      <trkpt lat="44.35784" lon="5.54171">
        <ele>753</ele>
        <time>2016-08-14T14:04:48Z</time>
      </trkpt>
      <trkpt lat="44.35775" lon="5.54165">
        <ele>753.9</ele>
        <time>2016-08-14T14:04:55Z</time>
      </trkpt>
      <trkpt lat="44.35767" lon="5.54158">
        <ele>754.5</ele>
        <time>2016-08-14T14:05:01Z</time>
      </trkpt>
      <trkpt lat="44.35758" lon="5.54156">
        <ele>756.2</ele>
        <time>2016-08-14T14:05:50Z</time>
      </trkpt>
      <trkpt lat="44.35748" lon="5.54154">
        <ele>756.5</ele>
        <time>2016-08-14T14:06:00Z</time>
      </trkpt>
      <trkpt lat="44.35751" lon="5.54166">
        <ele>755.1</ele>
        <time>2016-08-14T14:12:41Z</time>
      </trkpt>
      <trkpt lat="44.35742" lon="5.54164">
        <ele>752.8</ele>
        <time>2016-08-14T14:16:50Z</time>
      </trkpt>
      <trkpt lat="44.35748" lon="5.54174">
        <ele>751.8</ele>
        <time>2016-08-14T14:18:02Z</time>
      </trkpt>
      <trkpt lat="44.35739" lon="5.54167">
        <ele>752</ele>
        <time>2016-08-14T14:19:03Z</time>
      </trkpt>
      <trkpt lat="44.3573" lon="5.5417">
        <ele>751.9</ele>
        <time>2016-08-14T14:19:13Z</time>
      </trkpt>
      <trkpt lat="44.35723" lon="5.54178">
        <ele>751.9</ele>
        <time>2016-08-14T14:19:21Z</time>
      </trkpt>
      <trkpt lat="44.35715" lon="5.54187">
        <ele>752.3</ele>
        <time>2016-08-14T14:19:29Z</time>
      </trkpt>
      <trkpt lat="44.35708" lon="5.54196">
        <ele>752.5</ele>
        <time>2016-08-14T14:19:37Z</time>
      </trkpt>
      <trkpt lat="44.35703" lon="5.54206">
        <ele>752.8</ele>
        <time>2016-08-14T14:19:45Z</time>
      </trkpt>
      <trkpt lat="44.35697" lon="5.54219">
        <ele>752.8</ele>
        <time>2016-08-14T14:19:52Z</time>
      </trkpt>
      <trkpt lat="44.35692" lon="5.5423">
        <ele>752.8</ele>
        <time>2016-08-14T14:19:58Z</time>
      </trkpt>
      <trkpt lat="44.35686" lon="5.54241">
        <ele>752.9</ele>
        <time>2016-08-14T14:20:05Z</time>
      </trkpt>
      <trkpt lat="44.35681" lon="5.54251">
        <ele>752.9</ele>
        <time>2016-08-14T14:20:11Z</time>
      </trkpt>
      <trkpt lat="44.35675" lon="5.54262">
        <ele>752.9</ele>
        <time>2016-08-14T14:20:18Z</time>
      </trkpt>
      <trkpt lat="44.35669" lon="5.54273">
        <ele>752.9</ele>
        <time>2016-08-14T14:20:24Z</time>
      </trkpt>
      <trkpt lat="44.35663" lon="5.54285">
        <ele>753.2</ele>
        <time>2016-08-14T14:20:30Z</time>
      </trkpt>
      <trkpt lat="44.35659" lon="5.54298">
        <ele>753.9</ele>
        <time>2016-08-14T14:20:37Z</time>
      </trkpt>
      <trkpt lat="44.35653" lon="5.5431">
        <ele>754.6</ele>
        <time>2016-08-14T14:20:44Z</time>
      </trkpt>
      <trkpt lat="44.35646" lon="5.5432">
        <ele>755.1</ele>
        <time>2016-08-14T14:20:51Z</time>
      </trkpt>
      <trkpt lat="44.35639" lon="5.54329">
        <ele>755.3</ele>
        <time>2016-08-14T14:20:58Z</time>
      </trkpt>
      <trkpt lat="44.35632" lon="5.54339">
        <ele>755.4</ele>
        <time>2016-08-14T14:21:05Z</time>
      </trkpt>
      <trkpt lat="44.35623" lon="5.54348">
        <ele>756</ele>
        <time>2016-08-14T14:21:12Z</time>
      </trkpt>
      <trkpt lat="44.35615" lon="5.54356">
        <ele>756.3</ele>
        <time>2016-08-14T14:21:19Z</time>
      </trkpt>
      <trkpt lat="44.35607" lon="5.54363">
        <ele>756.3</ele>
        <time>2016-08-14T14:21:25Z</time>
      </trkpt>
      <trkpt lat="44.35598" lon="5.54371">
        <ele>756.4</ele>
        <time>2016-08-14T14:21:32Z</time>
      </trkpt>
      <trkpt lat="44.35589" lon="5.54378">
        <ele>756.7</ele>
        <time>2016-08-14T14:21:39Z</time>
      </trkpt>
      <trkpt lat="44.3558" lon="5.54384">
        <ele>756.9</ele>
        <time>2016-08-14T14:21:46Z</time>
      </trkpt>
      <trkpt lat="44.35571" lon="5.54389">
        <ele>757.1</ele>
        <time>2016-08-14T14:21:53Z</time>
      </trkpt>
      <trkpt lat="44.35562" lon="5.54394">
        <ele>757.3</ele>
        <time>2016-08-14T14:22:00Z</time>
      </trkpt>
      <trkpt lat="44.35553" lon="5.544">
        <ele>757.8</ele>
        <time>2016-08-14T14:22:09Z</time>
      </trkpt>
      <trkpt lat="44.35544" lon="5.54406">
        <ele>758.2</ele>
        <time>2016-08-14T14:22:16Z</time>
      </trkpt>
      <trkpt lat="44.35535" lon="5.54412">
        <ele>759.2</ele>
        <time>2016-08-14T14:22:23Z</time>
      </trkpt>
      <trkpt lat="44.35526" lon="5.54417">
        <ele>759.8</ele>
        <time>2016-08-14T14:22:30Z</time>
      </trkpt>
      <trkpt lat="44.35517" lon="5.54423">
        <ele>760.1</ele>
        <time>2016-08-14T14:22:37Z</time>
      </trkpt>
      <trkpt lat="44.35509" lon="5.5443">
        <ele>760.4</ele>
        <time>2016-08-14T14:22:44Z</time>
      </trkpt>
      <trkpt lat="44.35502" lon="5.54439">
        <ele>760.6</ele>
        <time>2016-08-14T14:22:51Z</time>
      </trkpt>
      <trkpt lat="44.35495" lon="5.54449">
        <ele>761</ele>
        <time>2016-08-14T14:22:58Z</time>
      </trkpt>
      <trkpt lat="44.35488" lon="5.54457">
        <ele>761.5</ele>
        <time>2016-08-14T14:23:05Z</time>
      </trkpt>
      <trkpt lat="44.35479" lon="5.54465">
        <ele>762</ele>
        <time>2016-08-14T14:23:13Z</time>
      </trkpt>
      <trkpt lat="44.35472" lon="5.54474">
        <ele>762.4</ele>
        <time>2016-08-14T14:23:20Z</time>
      </trkpt>
      <trkpt lat="44.35466" lon="5.54486">
        <ele>762.5</ele>
        <time>2016-08-14T14:23:27Z</time>
      </trkpt>
      <trkpt lat="44.35459" lon="5.54496">
        <ele>762.6</ele>
        <time>2016-08-14T14:23:34Z</time>
      </trkpt>
      <trkpt lat="44.3545" lon="5.54503">
        <ele>763.1</ele>
        <time>2016-08-14T14:23:41Z</time>
      </trkpt>
      <trkpt lat="44.35441" lon="5.54506">
        <ele>763.7</ele>
        <time>2016-08-14T14:23:48Z</time>
      </trkpt>
      <trkpt lat="44.35431" lon="5.54506">
        <ele>764.3</ele>
        <time>2016-08-14T14:23:55Z</time>
      </trkpt>
      <trkpt lat="44.35422" lon="5.54504">
        <ele>764.6</ele>
        <time>2016-08-14T14:24:02Z</time>
      </trkpt>
      <trkpt lat="44.35412" lon="5.54504">
        <ele>764.8</ele>
        <time>2016-08-14T14:24:09Z</time>
      </trkpt>
      <trkpt lat="44.35404" lon="5.54512">
        <ele>764.9</ele>
        <time>2016-08-14T14:24:15Z</time>
      </trkpt>
      <trkpt lat="44.354" lon="5.54524">
        <ele>765.4</ele>
        <time>2016-08-14T14:24:22Z</time>
      </trkpt>
      <trkpt lat="44.35396" lon="5.54537">
        <ele>766</ele>
        <time>2016-08-14T14:24:29Z</time>
      </trkpt>
      <trkpt lat="44.35391" lon="5.54549">
        <ele>766.7</ele>
        <time>2016-08-14T14:24:36Z</time>
      </trkpt>
      <trkpt lat="44.35387" lon="5.5456">
        <ele>767.4</ele>
        <time>2016-08-14T14:24:42Z</time>
      </trkpt>
      <trkpt lat="44.35383" lon="5.54572">
        <ele>768.5</ele>
        <time>2016-08-14T14:24:49Z</time>
      </trkpt>
      <trkpt lat="44.35378" lon="5.54584">
        <ele>769.4</ele>
        <time>2016-08-14T14:24:56Z</time>
      </trkpt>
      <trkpt lat="44.35372" lon="5.54596">
        <ele>770.2</ele>
        <time>2016-08-14T14:25:03Z</time>
      </trkpt>
      <trkpt lat="44.35366" lon="5.54607">
        <ele>771.1</ele>
        <time>2016-08-14T14:25:11Z</time>
      </trkpt>
      <trkpt lat="44.35361" lon="5.54617">
        <ele>772.1</ele>
        <time>2016-08-14T14:25:20Z</time>
      </trkpt>
      <trkpt lat="44.35356" lon="5.54629">
        <ele>773.1</ele>
        <time>2016-08-14T14:25:28Z</time>
      </trkpt>
      <trkpt lat="44.35351" lon="5.5464">
        <ele>773.8</ele>
        <time>2016-08-14T14:25:35Z</time>
      </trkpt>
      <trkpt lat="44.35346" lon="5.54651">
        <ele>774.3</ele>
        <time>2016-08-14T14:25:41Z</time>
      </trkpt>
      <trkpt lat="44.35341" lon="5.54663">
        <ele>774.7</ele>
        <time>2016-08-14T14:25:48Z</time>
      </trkpt>
      <trkpt lat="44.35336" lon="5.54674">
        <ele>775.1</ele>
        <time>2016-08-14T14:25:55Z</time>
      </trkpt>
      <trkpt lat="44.3533" lon="5.54684">
        <ele>775.5</ele>
        <time>2016-08-14T14:26:03Z</time>
      </trkpt>
      <trkpt lat="44.35323" lon="5.54694">
        <ele>775.7</ele>
        <time>2016-08-14T14:26:10Z</time>
      </trkpt>
      <trkpt lat="44.35319" lon="5.54705">
        <ele>775.8</ele>
        <time>2016-08-14T14:26:16Z</time>
      </trkpt>
      <trkpt lat="44.35314" lon="5.54717">
        <ele>775.5</ele>
        <time>2016-08-14T14:26:23Z</time>
      </trkpt>
      <trkpt lat="44.35308" lon="5.54727">
        <ele>775.2</ele>
        <time>2016-08-14T14:26:29Z</time>
      </trkpt>
      <trkpt lat="44.35302" lon="5.54738">
        <ele>775.1</ele>
        <time>2016-08-14T14:26:35Z</time>
      </trkpt>
      <trkpt lat="44.35296" lon="5.54748">
        <ele>774.9</ele>
        <time>2016-08-14T14:26:41Z</time>
      </trkpt>
      <trkpt lat="44.35289" lon="5.54757">
        <ele>775</ele>
        <time>2016-08-14T14:26:47Z</time>
      </trkpt>
      <trkpt lat="44.35282" lon="5.54766">
        <ele>775</ele>
        <time>2016-08-14T14:26:54Z</time>
      </trkpt>
      <trkpt lat="44.35274" lon="5.54773">
        <ele>774.9</ele>
        <time>2016-08-14T14:27:01Z</time>
      </trkpt>
      <trkpt lat="44.35266" lon="5.5478">
        <ele>774.5</ele>
        <time>2016-08-14T14:27:08Z</time>
      </trkpt>
      <trkpt lat="44.35258" lon="5.54788">
        <ele>774.2</ele>
        <time>2016-08-14T14:27:15Z</time>
      </trkpt>
      <trkpt lat="44.35252" lon="5.54798">
        <ele>773.9</ele>
        <time>2016-08-14T14:27:21Z</time>
      </trkpt>
      <trkpt lat="44.35248" lon="5.5481">
        <ele>773.5</ele>
        <time>2016-08-14T14:27:28Z</time>
      </trkpt>
      <trkpt lat="44.35247" lon="5.54824">
        <ele>773.3</ele>
        <time>2016-08-14T14:27:34Z</time>
      </trkpt>
      <trkpt lat="44.35246" lon="5.54838">
        <ele>772.9</ele>
        <time>2016-08-14T14:27:40Z</time>
      </trkpt>
      <trkpt lat="44.35245" lon="5.54852">
        <ele>772.8</ele>
        <time>2016-08-14T14:27:46Z</time>
      </trkpt>
      <trkpt lat="44.35242" lon="5.54865">
        <ele>772.7</ele>
        <time>2016-08-14T14:27:52Z</time>
      </trkpt>
      <trkpt lat="44.35239" lon="5.54877">
        <ele>772.6</ele>
        <time>2016-08-14T14:27:58Z</time>
      </trkpt>
      <trkpt lat="44.35235" lon="5.5489">
        <ele>772.6</ele>
        <time>2016-08-14T14:28:05Z</time>
      </trkpt>
      <trkpt lat="44.35231" lon="5.54902">
        <ele>772.5</ele>
        <time>2016-08-14T14:28:11Z</time>
      </trkpt>
      <trkpt lat="44.35226" lon="5.54913">
        <ele>772.5</ele>
        <time>2016-08-14T14:28:18Z</time>
      </trkpt>
      <trkpt lat="44.35221" lon="5.54923">
        <ele>772.4</ele>
        <time>2016-08-14T14:28:25Z</time>
      </trkpt>
      <trkpt lat="44.35213" lon="5.5493">
        <ele>771.9</ele>
        <time>2016-08-14T14:28:31Z</time>
      </trkpt>
      <trkpt lat="44.35205" lon="5.54936">
        <ele>771.6</ele>
        <time>2016-08-14T14:28:37Z</time>
      </trkpt>
      <trkpt lat="44.35196" lon="5.54942">
        <ele>771.2</ele>
        <time>2016-08-14T14:28:44Z</time>
      </trkpt>
      <trkpt lat="44.35188" lon="5.54949">
        <ele>771.1</ele>
        <time>2016-08-14T14:28:50Z</time>
      </trkpt>
      <trkpt lat="44.35181" lon="5.54956">
        <ele>770.9</ele>
        <time>2016-08-14T14:28:57Z</time>
      </trkpt>
      <trkpt lat="44.35174" lon="5.54966">
        <ele>770.7</ele>
        <time>2016-08-14T14:29:05Z</time>
      </trkpt>
      <trkpt lat="44.35174" lon="5.54979">
        <ele>770.8</ele>
        <time>2016-08-14T14:29:16Z</time>
      </trkpt>
      <trkpt lat="44.35181" lon="5.54988">
        <ele>771</ele>
        <time>2016-08-14T14:29:30Z</time>
      </trkpt>
      <trkpt lat="44.35191" lon="5.54994">
        <ele>770.8</ele>
        <time>2016-08-14T14:29:39Z</time>
      </trkpt>
      <trkpt lat="44.35198" lon="5.55001">
        <ele>771.2</ele>
        <time>2016-08-14T14:29:44Z</time>
      </trkpt>
      <trkpt lat="44.35205" lon="5.55011">
        <ele>771.6</ele>
        <time>2016-08-14T14:29:50Z</time>
      </trkpt>
      <trkpt lat="44.3521" lon="5.55023">
        <ele>772.2</ele>
        <time>2016-08-14T14:29:56Z</time>
      </trkpt>
      <trkpt lat="44.35212" lon="5.55038">
        <ele>773</ele>
        <time>2016-08-14T14:30:03Z</time>
      </trkpt>
      <trkpt lat="44.35212" lon="5.55051">
        <ele>774.8</ele>
        <time>2016-08-14T14:30:12Z</time>
      </trkpt>
      <trkpt lat="44.3521" lon="5.55064">
        <ele>776.1</ele>
        <time>2016-08-14T14:30:20Z</time>
      </trkpt>
      <trkpt lat="44.35206" lon="5.55077">
        <ele>777.5</ele>
        <time>2016-08-14T14:30:27Z</time>
      </trkpt>
      <trkpt lat="44.35204" lon="5.5509">
        <ele>778.9</ele>
        <time>2016-08-14T14:30:34Z</time>
      </trkpt>
      <trkpt lat="44.35203" lon="5.55105">
        <ele>780.5</ele>
        <time>2016-08-14T14:30:41Z</time>
      </trkpt>
      <trkpt lat="44.35202" lon="5.55119">
        <ele>781.9</ele>
        <time>2016-08-14T14:30:49Z</time>
      </trkpt>
      <trkpt lat="44.35198" lon="5.55131">
        <ele>783</ele>
        <time>2016-08-14T14:30:55Z</time>
      </trkpt>
      <trkpt lat="44.35195" lon="5.55144">
        <ele>784.2</ele>
        <time>2016-08-14T14:31:01Z</time>
      </trkpt>
      <trkpt lat="44.35193" lon="5.55158">
        <ele>785.4</ele>
        <time>2016-08-14T14:31:08Z</time>
      </trkpt>
      <trkpt lat="44.35189" lon="5.5517">
        <ele>786.4</ele>
        <time>2016-08-14T14:31:14Z</time>
      </trkpt>
      <trkpt lat="44.35186" lon="5.55183">
        <ele>787.6</ele>
        <time>2016-08-14T14:31:21Z</time>
      </trkpt>
      <trkpt lat="44.35187" lon="5.55197">
        <ele>788.8</ele>
        <time>2016-08-14T14:31:27Z</time>
      </trkpt>
      <trkpt lat="44.35189" lon="5.5521">
        <ele>790.1</ele>
        <time>2016-08-14T14:31:33Z</time>
      </trkpt>
      <trkpt lat="44.35191" lon="5.55223">
        <ele>790.9</ele>
        <time>2016-08-14T14:31:39Z</time>
      </trkpt>
      <trkpt lat="44.35194" lon="5.55236">
        <ele>791.5</ele>
        <time>2016-08-14T14:31:45Z</time>
      </trkpt>
      <trkpt lat="44.35197" lon="5.55249">
        <ele>792.2</ele>
        <time>2016-08-14T14:31:52Z</time>
      </trkpt>
      <trkpt lat="44.352" lon="5.55263">
        <ele>793.1</ele>
        <time>2016-08-14T14:31:59Z</time>
      </trkpt>
      <trkpt lat="44.35203" lon="5.55276">
        <ele>794</ele>
        <time>2016-08-14T14:32:06Z</time>
      </trkpt>
      <trkpt lat="44.35202" lon="5.5529">
        <ele>794.8</ele>
        <time>2016-08-14T14:32:13Z</time>
      </trkpt>
      <trkpt lat="44.35199" lon="5.55303">
        <ele>795.6</ele>
        <time>2016-08-14T14:32:21Z</time>
      </trkpt>
      <trkpt lat="44.35196" lon="5.55316">
        <ele>796.4</ele>
        <time>2016-08-14T14:32:29Z</time>
      </trkpt>
      <trkpt lat="44.35192" lon="5.55329">
        <ele>797</ele>
        <time>2016-08-14T14:32:38Z</time>
      </trkpt>
      <trkpt lat="44.35193" lon="5.55342">
        <ele>798</ele>
        <time>2016-08-14T14:32:46Z</time>
      </trkpt>
      <trkpt lat="44.35196" lon="5.55353">
        <ele>798.9</ele>
        <time>2016-08-14T14:32:56Z</time>
      </trkpt>
      <trkpt lat="44.35203" lon="5.55363">
        <ele>798.5</ele>
        <time>2016-08-14T14:33:24Z</time>
      </trkpt>
      <trkpt lat="44.35211" lon="5.55371">
        <ele>797.9</ele>
        <time>2016-08-14T14:33:40Z</time>
      </trkpt>
      <trkpt lat="44.3522" lon="5.55377">
        <ele>797.4</ele>
        <time>2016-08-14T14:33:49Z</time>
      </trkpt>
      <trkpt lat="44.35228" lon="5.55383">
        <ele>797</ele>
        <time>2016-08-14T14:33:57Z</time>
      </trkpt>
      <trkpt lat="44.35237" lon="5.55389">
        <ele>796.6</ele>
        <time>2016-08-14T14:34:04Z</time>
      </trkpt>
      <trkpt lat="44.35246" lon="5.55394">
        <ele>795.9</ele>
        <time>2016-08-14T14:34:11Z</time>
      </trkpt>
      <trkpt lat="44.35255" lon="5.55398">
        <ele>794.9</ele>
        <time>2016-08-14T14:34:18Z</time>
      </trkpt>
      <trkpt lat="44.35264" lon="5.55405">
        <ele>793.9</ele>
        <time>2016-08-14T14:34:26Z</time>
      </trkpt>
      <trkpt lat="44.35272" lon="5.55412">
        <ele>793.4</ele>
        <time>2016-08-14T14:34:34Z</time>
      </trkpt>
      <trkpt lat="44.3528" lon="5.5542">
        <ele>792.7</ele>
        <time>2016-08-14T14:34:42Z</time>
      </trkpt>
      <trkpt lat="44.35287" lon="5.55429">
        <ele>791.6</ele>
        <time>2016-08-14T14:34:49Z</time>
      </trkpt>
      <trkpt lat="44.35295" lon="5.55437">
        <ele>790</ele>
        <time>2016-08-14T14:34:56Z</time>
      </trkpt>
      <trkpt lat="44.35303" lon="5.55445">
        <ele>788.8</ele>
        <time>2016-08-14T14:35:03Z</time>
      </trkpt>
      <trkpt lat="44.35311" lon="5.55455">
        <ele>787.2</ele>
        <time>2016-08-14T14:35:11Z</time>
      </trkpt>
      <trkpt lat="44.3532" lon="5.55463">
        <ele>786</ele>
        <time>2016-08-14T14:35:19Z</time>
      </trkpt>
      <trkpt lat="44.35327" lon="5.55471">
        <ele>784.9</ele>
        <time>2016-08-14T14:35:26Z</time>
      </trkpt>
      <trkpt lat="44.35335" lon="5.55479">
        <ele>783.8</ele>
        <time>2016-08-14T14:35:33Z</time>
      </trkpt>
      <trkpt lat="44.35342" lon="5.55486">
        <ele>782.9</ele>
        <time>2016-08-14T14:35:40Z</time>
      </trkpt>
      <trkpt lat="44.35351" lon="5.55492">
        <ele>781.9</ele>
        <time>2016-08-14T14:35:47Z</time>
      </trkpt>
      <trkpt lat="44.35359" lon="5.55497">
        <ele>781.1</ele>
        <time>2016-08-14T14:35:54Z</time>
      </trkpt>
      <trkpt lat="44.35367" lon="5.55503">
        <ele>780.1</ele>
        <time>2016-08-14T14:36:01Z</time>
      </trkpt>
      <trkpt lat="44.35376" lon="5.55509">
        <ele>778.9</ele>
        <time>2016-08-14T14:36:08Z</time>
      </trkpt>
      <trkpt lat="44.35385" lon="5.55515">
        <ele>777.9</ele>
        <time>2016-08-14T14:36:15Z</time>
      </trkpt>
      <trkpt lat="44.35393" lon="5.55521">
        <ele>777</ele>
        <time>2016-08-14T14:36:22Z</time>
      </trkpt>
      <trkpt lat="44.35401" lon="5.55528">
        <ele>776.2</ele>
        <time>2016-08-14T14:36:29Z</time>
      </trkpt>
      <trkpt lat="44.35409" lon="5.55535">
        <ele>774.9</ele>
        <time>2016-08-14T14:36:36Z</time>
      </trkpt>
      <trkpt lat="44.35417" lon="5.55543">
        <ele>774</ele>
        <time>2016-08-14T14:36:43Z</time>
      </trkpt>
      <trkpt lat="44.35424" lon="5.55551">
        <ele>773.3</ele>
        <time>2016-08-14T14:36:50Z</time>
      </trkpt>
      <trkpt lat="44.35431" lon="5.5556">
        <ele>772.1</ele>
        <time>2016-08-14T14:36:58Z</time>
      </trkpt>
      <trkpt lat="44.35438" lon="5.55568">
        <ele>771.2</ele>
        <time>2016-08-14T14:37:05Z</time>
      </trkpt>
      <trkpt lat="44.35445" lon="5.55576">
        <ele>770.1</ele>
        <time>2016-08-14T14:37:13Z</time>
      </trkpt>
      <trkpt lat="44.35453" lon="5.55585">
        <ele>768.7</ele>
        <time>2016-08-14T14:37:21Z</time>
      </trkpt>
      <trkpt lat="44.35461" lon="5.55592">
        <ele>767.5</ele>
        <time>2016-08-14T14:37:28Z</time>
      </trkpt>
      <trkpt lat="44.35469" lon="5.55599">
        <ele>766.4</ele>
        <time>2016-08-14T14:37:35Z</time>
      </trkpt>
      <trkpt lat="44.35477" lon="5.55606">
        <ele>764.7</ele>
        <time>2016-08-14T14:37:43Z</time>
      </trkpt>
      <trkpt lat="44.35487" lon="5.55612">
        <ele>763.1</ele>
        <time>2016-08-14T14:37:52Z</time>
      </trkpt>
      <trkpt lat="44.35496" lon="5.55615">
        <ele>762.3</ele>
        <time>2016-08-14T14:37:58Z</time>
      </trkpt>
      <trkpt lat="44.35505" lon="5.55621">
        <ele>761.4</ele>
        <time>2016-08-14T14:38:05Z</time>
      </trkpt>
      <trkpt lat="44.35515" lon="5.55625">
        <ele>760.8</ele>
        <time>2016-08-14T14:38:12Z</time>
      </trkpt>
      <trkpt lat="44.35525" lon="5.55626">
        <ele>760.2</ele>
        <time>2016-08-14T14:38:18Z</time>
      </trkpt>
      <trkpt lat="44.35535" lon="5.55627">
        <ele>759.4</ele>
        <time>2016-08-14T14:38:24Z</time>
      </trkpt>
      <trkpt lat="44.35544" lon="5.5563">
        <ele>758.5</ele>
        <time>2016-08-14T14:38:31Z</time>
      </trkpt>
      <trkpt lat="44.35552" lon="5.55638">
        <ele>757.7</ele>
        <time>2016-08-14T14:38:38Z</time>
      </trkpt>
      <trkpt lat="44.3556" lon="5.55643">
        <ele>756.7</ele>
        <time>2016-08-14T14:38:46Z</time>
      </trkpt>
      <trkpt lat="44.35569" lon="5.55644">
        <ele>755.3</ele>
        <time>2016-08-14T14:38:55Z</time>
      </trkpt>
      <trkpt lat="44.35579" lon="5.55646">
        <ele>753.8</ele>
        <time>2016-08-14T14:39:03Z</time>
      </trkpt>
      <trkpt lat="44.35589" lon="5.55645">
        <ele>753</ele>
        <time>2016-08-14T14:39:10Z</time>
      </trkpt>
      <trkpt lat="44.35598" lon="5.55644">
        <ele>752.4</ele>
        <time>2016-08-14T14:39:18Z</time>
      </trkpt>
      <trkpt lat="44.35607" lon="5.5565">
        <ele>751.9</ele>
        <time>2016-08-14T14:39:24Z</time>
      </trkpt>
      <trkpt lat="44.35615" lon="5.55658">
        <ele>751</ele>
        <time>2016-08-14T14:39:31Z</time>
      </trkpt>
      <trkpt lat="44.35621" lon="5.55668">
        <ele>750.2</ele>
        <time>2016-08-14T14:39:38Z</time>
      </trkpt>
      <trkpt lat="44.35627" lon="5.55678">
        <ele>749.7</ele>
        <time>2016-08-14T14:39:45Z</time>
      </trkpt>
      <trkpt lat="44.35632" lon="5.55689">
        <ele>749.5</ele>
        <time>2016-08-14T14:39:51Z</time>
      </trkpt>
      <trkpt lat="44.35638" lon="5.557">
        <ele>749.3</ele>
        <time>2016-08-14T14:39:57Z</time>
      </trkpt>
      <trkpt lat="44.35644" lon="5.55711">
        <ele>749.3</ele>
        <time>2016-08-14T14:40:03Z</time>
      </trkpt>
      <trkpt lat="44.35651" lon="5.5572">
        <ele>749.5</ele>
        <time>2016-08-14T14:40:09Z</time>
      </trkpt>
      <trkpt lat="44.35659" lon="5.55728">
        <ele>749.8</ele>
        <time>2016-08-14T14:40:15Z</time>
      </trkpt>
      <trkpt lat="44.35666" lon="5.55738">
        <ele>750.6</ele>
        <time>2016-08-14T14:40:22Z</time>
      </trkpt>
      <trkpt lat="44.35673" lon="5.55748">
        <ele>751.2</ele>
        <time>2016-08-14T14:40:29Z</time>
      </trkpt>
      <trkpt lat="44.3568" lon="5.55757">
        <ele>751.6</ele>
        <time>2016-08-14T14:40:36Z</time>
      </trkpt>
      <trkpt lat="44.35689" lon="5.55761">
        <ele>751.9</ele>
        <time>2016-08-14T14:40:44Z</time>
      </trkpt>
      <trkpt lat="44.35699" lon="5.55757">
        <ele>752.1</ele>
        <time>2016-08-14T14:40:52Z</time>
      </trkpt>
      <trkpt lat="44.35708" lon="5.55756">
        <ele>751.5</ele>
        <time>2016-08-14T14:40:59Z</time>
      </trkpt>
      <trkpt lat="44.35717" lon="5.55751">
        <ele>750.4</ele>
        <time>2016-08-14T14:41:06Z</time>
      </trkpt>
      <trkpt lat="44.35726" lon="5.55749">
        <ele>749.8</ele>
        <time>2016-08-14T14:41:13Z</time>
      </trkpt>
      <trkpt lat="44.35736" lon="5.55747">
        <ele>749.3</ele>
        <time>2016-08-14T14:41:19Z</time>
      </trkpt>
      <trkpt lat="44.35744" lon="5.55743">
        <ele>748.8</ele>
        <time>2016-08-14T14:41:25Z</time>
      </trkpt>
      <trkpt lat="44.35754" lon="5.55741">
        <ele>748.2</ele>
        <time>2016-08-14T14:41:32Z</time>
      </trkpt>
      <trkpt lat="44.35763" lon="5.55738">
        <ele>747.3</ele>
        <time>2016-08-14T14:41:42Z</time>
      </trkpt>
      <trkpt lat="44.35773" lon="5.55739">
        <ele>745.4</ele>
        <time>2016-08-14T14:42:12Z</time>
      </trkpt>
      <trkpt lat="44.35781" lon="5.55743">
        <ele>744.2</ele>
        <time>2016-08-14T14:42:24Z</time>
      </trkpt>
      <trkpt lat="44.35787" lon="5.55753">
        <ele>743</ele>
        <time>2016-08-14T14:42:32Z</time>
      </trkpt>
      <trkpt lat="44.35791" lon="5.55766">
        <ele>741.7</ele>
        <time>2016-08-14T14:42:43Z</time>
      </trkpt>
      <trkpt lat="44.35796" lon="5.55777">
        <ele>740.7</ele>
        <time>2016-08-14T14:42:54Z</time>
      </trkpt>
      <trkpt lat="44.35795" lon="5.5579">
        <ele>739.3</ele>
        <time>2016-08-14T14:43:50Z</time>
      </trkpt>
      <trkpt lat="44.35796" lon="5.55803">
        <ele>739.2</ele>
        <time>2016-08-14T14:44:00Z</time>
      </trkpt>
      <trkpt lat="44.35791" lon="5.55815">
        <ele>739.1</ele>
        <time>2016-08-14T14:44:10Z</time>
      </trkpt>
      <trkpt lat="44.35784" lon="5.55825">
        <ele>739.2</ele>
        <time>2016-08-14T14:44:18Z</time>
      </trkpt>
      <trkpt lat="44.35776" lon="5.55833">
        <ele>739.7</ele>
        <time>2016-08-14T14:44:26Z</time>
      </trkpt>
      <trkpt lat="44.35767" lon="5.5584">
        <ele>740.2</ele>
        <time>2016-08-14T14:44:34Z</time>
      </trkpt>
      <trkpt lat="44.35759" lon="5.55847">
        <ele>741.1</ele>
        <time>2016-08-14T14:44:41Z</time>
      </trkpt>
      <trkpt lat="44.35751" lon="5.55857">
        <ele>741.9</ele>
        <time>2016-08-14T14:44:49Z</time>
      </trkpt>
      <trkpt lat="44.35744" lon="5.55867">
        <ele>742.5</ele>
        <time>2016-08-14T14:44:57Z</time>
      </trkpt>
      <trkpt lat="44.35738" lon="5.55878">
        <ele>743</ele>
        <time>2016-08-14T14:45:05Z</time>
      </trkpt>
      <trkpt lat="44.35733" lon="5.55889">
        <ele>743.2</ele>
        <time>2016-08-14T14:45:13Z</time>
      </trkpt>
      <trkpt lat="44.35728" lon="5.559">
        <ele>743</ele>
        <time>2016-08-14T14:45:25Z</time>
      </trkpt>
      <trkpt lat="44.35724" lon="5.55912">
        <ele>742.8</ele>
        <time>2016-08-14T14:45:34Z</time>
      </trkpt>
      <trkpt lat="44.35722" lon="5.55925">
        <ele>742.2</ele>
        <time>2016-08-14T14:45:44Z</time>
      </trkpt>
      <trkpt lat="44.35718" lon="5.55937">
        <ele>741</ele>
        <time>2016-08-14T14:45:55Z</time>
      </trkpt>
      <trkpt lat="44.35712" lon="5.55948">
        <ele>739.5</ele>
        <time>2016-08-14T14:46:05Z</time>
      </trkpt>
      <trkpt lat="44.3572" lon="5.55954">
        <ele>737.8</ele>
        <time>2016-08-14T14:46:16Z</time>
      </trkpt>
      <trkpt lat="44.35729" lon="5.5595">
        <ele>736.4</ele>
        <time>2016-08-14T14:46:26Z</time>
      </trkpt>
      <trkpt lat="44.35737" lon="5.55946">
        <ele>733.8</ele>
        <time>2016-08-14T14:46:53Z</time>
      </trkpt>
      <trkpt lat="44.35746" lon="5.55943">
        <ele>733.2</ele>
        <time>2016-08-14T14:47:13Z</time>
      </trkpt>
      <trkpt lat="44.35752" lon="5.55932">
        <ele>733.1</ele>
        <time>2016-08-14T14:47:20Z</time>
      </trkpt>
      <trkpt lat="44.35758" lon="5.55921">
        <ele>733</ele>
        <time>2016-08-14T14:47:28Z</time>
      </trkpt>
      <trkpt lat="44.35765" lon="5.55911">
        <ele>732.8</ele>
        <time>2016-08-14T14:47:35Z</time>
      </trkpt>
      <trkpt lat="44.35774" lon="5.55904">
        <ele>732.7</ele>
        <time>2016-08-14T14:47:43Z</time>
      </trkpt>
      <trkpt lat="44.35782" lon="5.55899">
        <ele>733</ele>
        <time>2016-08-14T14:47:50Z</time>
      </trkpt>
      <trkpt lat="44.35792" lon="5.55894">
        <ele>733.2</ele>
        <time>2016-08-14T14:47:57Z</time>
      </trkpt>
      <trkpt lat="44.358" lon="5.55888">
        <ele>733.8</ele>
        <time>2016-08-14T14:48:06Z</time>
      </trkpt>
      <trkpt lat="44.35809" lon="5.55881">
        <ele>734.9</ele>
        <time>2016-08-14T14:48:13Z</time>
      </trkpt>
      <trkpt lat="44.35817" lon="5.55875">
        <ele>735.9</ele>
        <time>2016-08-14T14:48:19Z</time>
      </trkpt>
      <trkpt lat="44.35826" lon="5.55868">
        <ele>736.9</ele>
        <time>2016-08-14T14:48:26Z</time>
      </trkpt>
      <trkpt lat="44.35835" lon="5.55864">
        <ele>737.7</ele>
        <time>2016-08-14T14:48:33Z</time>
      </trkpt>
      <trkpt lat="44.35844" lon="5.5586">
        <ele>738.4</ele>
        <time>2016-08-14T14:48:40Z</time>
      </trkpt>
      <trkpt lat="44.35853" lon="5.55855">
        <ele>739.5</ele>
        <time>2016-08-14T14:48:46Z</time>
      </trkpt>
      <trkpt lat="44.35861" lon="5.5585">
        <ele>740.3</ele>
        <time>2016-08-14T14:48:52Z</time>
      </trkpt>
      <trkpt lat="44.3587" lon="5.55845">
        <ele>740.8</ele>
        <time>2016-08-14T14:48:58Z</time>
      </trkpt>
      <trkpt lat="44.35879" lon="5.55839">
        <ele>741.3</ele>
        <time>2016-08-14T14:49:05Z</time>
      </trkpt>
      <trkpt lat="44.35888" lon="5.55834">
        <ele>741.7</ele>
        <time>2016-08-14T14:49:12Z</time>
      </trkpt>
      <trkpt lat="44.35896" lon="5.55829">
        <ele>742.3</ele>
        <time>2016-08-14T14:49:19Z</time>
      </trkpt>
      <trkpt lat="44.35904" lon="5.55823">
        <ele>743</ele>
        <time>2016-08-14T14:49:26Z</time>
      </trkpt>
      <trkpt lat="44.35913" lon="5.55817">
        <ele>743.8</ele>
        <time>2016-08-14T14:49:33Z</time>
      </trkpt>
      <trkpt lat="44.35921" lon="5.55809">
        <ele>744.6</ele>
        <time>2016-08-14T14:49:41Z</time>
      </trkpt>
      <trkpt lat="44.35929" lon="5.558">
        <ele>745.6</ele>
        <time>2016-08-14T14:49:49Z</time>
      </trkpt>
      <trkpt lat="44.35937" lon="5.55792">
        <ele>746.2</ele>
        <time>2016-08-14T14:49:56Z</time>
      </trkpt>
      <trkpt lat="44.35944" lon="5.55784">
        <ele>746.4</ele>
        <time>2016-08-14T14:50:02Z</time>
      </trkpt>
      <trkpt lat="44.35952" lon="5.55776">
        <ele>746.5</ele>
        <time>2016-08-14T14:50:09Z</time>
      </trkpt>
      <trkpt lat="44.3596" lon="5.55768">
        <ele>746.7</ele>
        <time>2016-08-14T14:50:16Z</time>
      </trkpt>
      <trkpt lat="44.35969" lon="5.5576">
        <ele>746.8</ele>
        <time>2016-08-14T14:50:23Z</time>
      </trkpt>
      <trkpt lat="44.35978" lon="5.55753">
        <ele>746.9</ele>
        <time>2016-08-14T14:50:30Z</time>
      </trkpt>
      <trkpt lat="44.35987" lon="5.55749">
        <ele>747.5</ele>
        <time>2016-08-14T14:50:37Z</time>
      </trkpt>
      <trkpt lat="44.35997" lon="5.55747">
        <ele>747.9</ele>
        <time>2016-08-14T14:50:44Z</time>
      </trkpt>
      <trkpt lat="44.36007" lon="5.55747">
        <ele>748.5</ele>
        <time>2016-08-14T14:50:52Z</time>
      </trkpt>
      <trkpt lat="44.36016" lon="5.55745">
        <ele>749.4</ele>
        <time>2016-08-14T14:50:59Z</time>
      </trkpt>
      <trkpt lat="44.36024" lon="5.55738">
        <ele>750.2</ele>
        <time>2016-08-14T14:51:06Z</time>
      </trkpt>
      <trkpt lat="44.36032" lon="5.55731">
        <ele>750.7</ele>
        <time>2016-08-14T14:51:12Z</time>
      </trkpt>
      <trkpt lat="44.36033" lon="5.55744">
        <ele>752</ele>
        <time>2016-08-14T14:51:33Z</time>
      </trkpt>
      <trkpt lat="44.36026" lon="5.55754">
        <ele>752.4</ele>
        <time>2016-08-14T14:51:41Z</time>
      </trkpt>
      <trkpt lat="44.36019" lon="5.55763">
        <ele>752.8</ele>
        <time>2016-08-14T14:51:48Z</time>
      </trkpt>
      <trkpt lat="44.36013" lon="5.55775">
        <ele>753.5</ele>
        <time>2016-08-14T14:51:56Z</time>
      </trkpt>
      <trkpt lat="44.36005" lon="5.55782">
        <ele>754.4</ele>
        <time>2016-08-14T14:52:02Z</time>
      </trkpt>
      <trkpt lat="44.35997" lon="5.55791">
        <ele>754.7</ele>
        <time>2016-08-14T14:52:09Z</time>
      </trkpt>
      <trkpt lat="44.35989" lon="5.558">
        <ele>754.7</ele>
        <time>2016-08-14T14:52:16Z</time>
      </trkpt>
      <trkpt lat="44.35982" lon="5.5581">
        <ele>754.9</ele>
        <time>2016-08-14T14:52:23Z</time>
      </trkpt>
      <trkpt lat="44.35975" lon="5.5582">
        <ele>755.1</ele>
        <time>2016-08-14T14:52:30Z</time>
      </trkpt>
      <trkpt lat="44.35968" lon="5.55829">
        <ele>755.5</ele>
        <time>2016-08-14T14:52:37Z</time>
      </trkpt>
      <trkpt lat="44.35961" lon="5.5584">
        <ele>755.9</ele>
        <time>2016-08-14T14:52:44Z</time>
      </trkpt>
      <trkpt lat="44.35957" lon="5.55853">
        <ele>756.7</ele>
        <time>2016-08-14T14:52:50Z</time>
      </trkpt>
      <trkpt lat="44.35953" lon="5.55864">
        <ele>757.7</ele>
        <time>2016-08-14T14:52:57Z</time>
      </trkpt>
      <trkpt lat="44.35949" lon="5.55876">
        <ele>758.3</ele>
        <time>2016-08-14T14:53:04Z</time>
      </trkpt>
      <trkpt lat="44.35946" lon="5.5589">
        <ele>758.7</ele>
        <time>2016-08-14T14:53:12Z</time>
      </trkpt>
      <trkpt lat="44.35943" lon="5.55903">
        <ele>759</ele>
        <time>2016-08-14T14:53:19Z</time>
      </trkpt>
      <trkpt lat="44.3594" lon="5.55915">
        <ele>759.7</ele>
        <time>2016-08-14T14:53:26Z</time>
      </trkpt>
      <trkpt lat="44.35935" lon="5.55927">
        <ele>760.2</ele>
        <time>2016-08-14T14:53:33Z</time>
      </trkpt>
      <trkpt lat="44.35929" lon="5.55939">
        <ele>760.8</ele>
        <time>2016-08-14T14:53:40Z</time>
      </trkpt>
      <trkpt lat="44.35922" lon="5.55949">
        <ele>761.9</ele>
        <time>2016-08-14T14:53:47Z</time>
      </trkpt>
      <trkpt lat="44.35915" lon="5.5596">
        <ele>762.8</ele>
        <time>2016-08-14T14:53:54Z</time>
      </trkpt>
      <trkpt lat="44.35909" lon="5.55969">
        <ele>763.5</ele>
        <time>2016-08-14T14:54:00Z</time>
      </trkpt>
      <trkpt lat="44.35902" lon="5.55978">
        <ele>764</ele>
        <time>2016-08-14T14:54:07Z</time>
      </trkpt>
      <trkpt lat="44.35895" lon="5.55988">
        <ele>764.2</ele>
        <time>2016-08-14T14:54:14Z</time>
      </trkpt>
      <trkpt lat="44.35888" lon="5.55997">
        <ele>764.5</ele>
        <time>2016-08-14T14:54:21Z</time>
      </trkpt>
      <trkpt lat="44.35881" lon="5.56007">
        <ele>765.1</ele>
        <time>2016-08-14T14:54:28Z</time>
      </trkpt>
      <trkpt lat="44.35874" lon="5.56017">
        <ele>765.7</ele>
        <time>2016-08-14T14:54:35Z</time>
      </trkpt>
      <trkpt lat="44.35867" lon="5.56026">
        <ele>766.5</ele>
        <time>2016-08-14T14:54:42Z</time>
      </trkpt>
      <trkpt lat="44.3586" lon="5.56037">
        <ele>767.4</ele>
        <time>2016-08-14T14:54:49Z</time>
      </trkpt>
      <trkpt lat="44.35853" lon="5.56047">
        <ele>767.8</ele>
        <time>2016-08-14T14:54:56Z</time>
      </trkpt>
      <trkpt lat="44.35847" lon="5.56058">
        <ele>768</ele>
        <time>2016-08-14T14:55:03Z</time>
      </trkpt>
      <trkpt lat="44.3584" lon="5.56068">
        <ele>768.1</ele>
        <time>2016-08-14T14:55:10Z</time>
      </trkpt>
      <trkpt lat="44.35833" lon="5.56078">
        <ele>768.4</ele>
        <time>2016-08-14T14:55:17Z</time>
      </trkpt>
      <trkpt lat="44.35827" lon="5.56087">
        <ele>769.2</ele>
        <time>2016-08-14T14:55:24Z</time>
      </trkpt>
      <trkpt lat="44.3582" lon="5.56096">
        <ele>769.9</ele>
        <time>2016-08-14T14:55:31Z</time>
      </trkpt>
      <trkpt lat="44.35813" lon="5.56107">
        <ele>770.6</ele>
        <time>2016-08-14T14:55:39Z</time>
      </trkpt>
      <trkpt lat="44.35806" lon="5.56116">
        <ele>770.9</ele>
        <time>2016-08-14T14:55:46Z</time>
      </trkpt>
      <trkpt lat="44.35799" lon="5.56125">
        <ele>771.3</ele>
        <time>2016-08-14T14:55:53Z</time>
      </trkpt>
      <trkpt lat="44.35792" lon="5.56135">
        <ele>771.6</ele>
        <time>2016-08-14T14:56:00Z</time>
      </trkpt>
      <trkpt lat="44.35785" lon="5.56144">
        <ele>772.3</ele>
        <time>2016-08-14T14:56:07Z</time>
      </trkpt>
      <trkpt lat="44.35778" lon="5.56154">
        <ele>772.9</ele>
        <time>2016-08-14T14:56:14Z</time>
      </trkpt>
      <trkpt lat="44.35771" lon="5.56164">
        <ele>773.4</ele>
        <time>2016-08-14T14:56:21Z</time>
      </trkpt>
      <trkpt lat="44.35766" lon="5.56175">
        <ele>773.9</ele>
        <time>2016-08-14T14:56:28Z</time>
      </trkpt>
      <trkpt lat="44.35762" lon="5.56188">
        <ele>774.1</ele>
        <time>2016-08-14T14:56:35Z</time>
      </trkpt>
      <trkpt lat="44.3576" lon="5.56201">
        <ele>774.9</ele>
        <time>2016-08-14T14:56:42Z</time>
      </trkpt>
      <trkpt lat="44.35755" lon="5.56213">
        <ele>775.4</ele>
        <time>2016-08-14T14:56:49Z</time>
      </trkpt>
      <trkpt lat="44.35747" lon="5.5622">
        <ele>776.2</ele>
        <time>2016-08-14T14:56:56Z</time>
      </trkpt>
      <trkpt lat="44.35737" lon="5.56223">
        <ele>776.6</ele>
        <time>2016-08-14T14:57:03Z</time>
      </trkpt>
      <trkpt lat="44.35728" lon="5.56223">
        <ele>776.9</ele>
        <time>2016-08-14T14:57:10Z</time>
      </trkpt>
      <trkpt lat="44.35719" lon="5.56225">
        <ele>777.6</ele>
        <time>2016-08-14T14:57:17Z</time>
      </trkpt>
      <trkpt lat="44.3571" lon="5.56229">
        <ele>778</ele>
        <time>2016-08-14T14:57:24Z</time>
      </trkpt>
      <trkpt lat="44.35701" lon="5.56236">
        <ele>778.4</ele>
        <time>2016-08-14T14:57:31Z</time>
      </trkpt>
      <trkpt lat="44.35693" lon="5.56244">
        <ele>778.7</ele>
        <time>2016-08-14T14:57:38Z</time>
      </trkpt>
      <trkpt lat="44.35686" lon="5.56252">
        <ele>779.2</ele>
        <time>2016-08-14T14:57:44Z</time>
      </trkpt>
      <trkpt lat="44.35679" lon="5.56262">
        <ele>779.7</ele>
        <time>2016-08-14T14:57:51Z</time>
      </trkpt>
      <trkpt lat="44.35673" lon="5.56274">
        <ele>780.5</ele>
        <time>2016-08-14T14:57:58Z</time>
      </trkpt>
      <trkpt lat="44.3567" lon="5.56287">
        <ele>780.9</ele>
        <time>2016-08-14T14:58:05Z</time>
      </trkpt>
      <trkpt lat="44.35669" lon="5.56301">
        <ele>781.2</ele>
        <time>2016-08-14T14:58:12Z</time>
      </trkpt>
      <trkpt lat="44.35671" lon="5.56314">
        <ele>781.7</ele>
        <time>2016-08-14T14:58:19Z</time>
      </trkpt>
      <trkpt lat="44.35673" lon="5.56327">
        <ele>782.2</ele>
        <time>2016-08-14T14:58:26Z</time>
      </trkpt>
      <trkpt lat="44.35675" lon="5.56341">
        <ele>783</ele>
        <time>2016-08-14T14:58:33Z</time>
      </trkpt>
      <trkpt lat="44.35674" lon="5.56354">
        <ele>783.5</ele>
        <time>2016-08-14T14:58:39Z</time>
      </trkpt>
      <trkpt lat="44.35667" lon="5.56365">
        <ele>783.9</ele>
        <time>2016-08-14T14:58:46Z</time>
      </trkpt>
      <trkpt lat="44.35658" lon="5.5637">
        <ele>784.2</ele>
        <time>2016-08-14T14:58:53Z</time>
      </trkpt>
      <trkpt lat="44.35649" lon="5.56373">
        <ele>784.7</ele>
        <time>2016-08-14T14:59:00Z</time>
      </trkpt>
      <trkpt lat="44.35639" lon="5.56378">
        <ele>785.2</ele>
        <time>2016-08-14T14:59:07Z</time>
      </trkpt>
      <trkpt lat="44.35631" lon="5.56384">
        <ele>785.7</ele>
        <time>2016-08-14T14:59:13Z</time>
      </trkpt>
      <trkpt lat="44.35623" lon="5.56393">
        <ele>786.2</ele>
        <time>2016-08-14T14:59:20Z</time>
      </trkpt>
      <trkpt lat="44.35616" lon="5.56403">
        <ele>786.7</ele>
        <time>2016-08-14T14:59:27Z</time>
      </trkpt>
      <trkpt lat="44.3561" lon="5.56412">
        <ele>787.2</ele>
        <time>2016-08-14T14:59:34Z</time>
      </trkpt>
      <trkpt lat="44.35608" lon="5.56426">
        <ele>787.7</ele>
        <time>2016-08-14T14:59:42Z</time>
      </trkpt>
      <trkpt lat="44.35609" lon="5.5644">
        <ele>787.8</ele>
        <time>2016-08-14T14:59:49Z</time>
      </trkpt>
      <trkpt lat="44.3561" lon="5.56454">
        <ele>787.8</ele>
        <time>2016-08-14T14:59:56Z</time>
      </trkpt>
      <trkpt lat="44.35611" lon="5.56468">
        <ele>788.2</ele>
        <time>2016-08-14T15:00:04Z</time>
      </trkpt>
      <trkpt lat="44.35612" lon="5.56481">
        <ele>788.1</ele>
        <time>2016-08-14T15:00:10Z</time>
      </trkpt>
      <trkpt lat="44.35611" lon="5.56495">
        <ele>787.5</ele>
        <time>2016-08-14T15:00:17Z</time>
      </trkpt>
      <trkpt lat="44.35605" lon="5.56506">
        <ele>787.1</ele>
        <time>2016-08-14T15:00:23Z</time>
      </trkpt>
      <trkpt lat="44.35599" lon="5.56516">
        <ele>786.8</ele>
        <time>2016-08-14T15:00:30Z</time>
      </trkpt>
      <trkpt lat="44.35591" lon="5.56526">
        <ele>786.6</ele>
        <time>2016-08-14T15:00:37Z</time>
      </trkpt>
      <trkpt lat="44.35584" lon="5.56535">
        <ele>786.6</ele>
        <time>2016-08-14T15:00:43Z</time>
      </trkpt>
      <trkpt lat="44.35576" lon="5.56539">
        <ele>786.7</ele>
        <time>2016-08-14T15:00:49Z</time>
      </trkpt>
      <trkpt lat="44.35566" lon="5.56543">
        <ele>786.7</ele>
        <time>2016-08-14T15:00:56Z</time>
      </trkpt>
      <trkpt lat="44.35556" lon="5.56546">
        <ele>786.8</ele>
        <time>2016-08-14T15:01:02Z</time>
      </trkpt>
      <trkpt lat="44.35548" lon="5.56554">
        <ele>786.6</ele>
        <time>2016-08-14T15:01:09Z</time>
      </trkpt>
      <trkpt lat="44.35545" lon="5.56566">
        <ele>786</ele>
        <time>2016-08-14T15:01:16Z</time>
      </trkpt>
      <trkpt lat="44.35546" lon="5.5658">
        <ele>784.8</ele>
        <time>2016-08-14T15:01:23Z</time>
      </trkpt>
      <trkpt lat="44.35545" lon="5.56593">
        <ele>783.5</ele>
        <time>2016-08-14T15:01:31Z</time>
      </trkpt>
      <trkpt lat="44.35544" lon="5.56607">
        <ele>782.8</ele>
        <time>2016-08-14T15:01:39Z</time>
      </trkpt>
      <trkpt lat="44.35541" lon="5.5662">
        <ele>781.6</ele>
        <time>2016-08-14T15:01:47Z</time>
      </trkpt>
      <trkpt lat="44.35536" lon="5.56632">
        <ele>780.1</ele>
        <time>2016-08-14T15:01:54Z</time>
      </trkpt>
      <trkpt lat="44.35532" lon="5.56644">
        <ele>778.8</ele>
        <time>2016-08-14T15:02:01Z</time>
      </trkpt>
      <trkpt lat="44.35528" lon="5.56657">
        <ele>777.3</ele>
        <time>2016-08-14T15:02:09Z</time>
      </trkpt>
      <trkpt lat="44.35523" lon="5.56669">
        <ele>776.4</ele>
        <time>2016-08-14T15:02:16Z</time>
      </trkpt>
      <trkpt lat="44.35518" lon="5.56681">
        <ele>775</ele>
        <time>2016-08-14T15:02:25Z</time>
      </trkpt>
      <trkpt lat="44.35516" lon="5.56694">
        <ele>773.6</ele>
        <time>2016-08-14T15:02:34Z</time>
      </trkpt>
      <trkpt lat="44.35513" lon="5.56706">
        <ele>772.4</ele>
        <time>2016-08-14T15:02:41Z</time>
      </trkpt>
      <trkpt lat="44.35508" lon="5.56718">
        <ele>771.4</ele>
        <time>2016-08-14T15:02:48Z</time>
      </trkpt>
      <trkpt lat="44.35502" lon="5.56729">
        <ele>769.9</ele>
        <time>2016-08-14T15:02:56Z</time>
      </trkpt>
      <trkpt lat="44.35496" lon="5.56741">
        <ele>768.7</ele>
        <time>2016-08-14T15:03:04Z</time>
      </trkpt>
      <trkpt lat="44.35491" lon="5.56753">
        <ele>767.5</ele>
        <time>2016-08-14T15:03:12Z</time>
      </trkpt>
      <trkpt lat="44.35487" lon="5.56766">
        <ele>765.8</ele>
        <time>2016-08-14T15:03:19Z</time>
      </trkpt>
      <trkpt lat="44.35482" lon="5.56778">
        <ele>764.7</ele>
        <time>2016-08-14T15:03:26Z</time>
      </trkpt>
      <trkpt lat="44.35476" lon="5.56788">
        <ele>763.8</ele>
        <time>2016-08-14T15:03:32Z</time>
      </trkpt>
      <trkpt lat="44.35471" lon="5.56799">
        <ele>763.1</ele>
        <time>2016-08-14T15:03:38Z</time>
      </trkpt>
      <trkpt lat="44.35467" lon="5.5681">
        <ele>762.5</ele>
        <time>2016-08-14T15:03:44Z</time>
      </trkpt>
      <trkpt lat="44.35461" lon="5.5682">
        <ele>761.8</ele>
        <time>2016-08-14T15:03:51Z</time>
      </trkpt>
      <trkpt lat="44.35458" lon="5.56833">
        <ele>761.3</ele>
        <time>2016-08-14T15:03:59Z</time>
      </trkpt>
      <trkpt lat="44.35459" lon="5.56848">
        <ele>761.4</ele>
        <time>2016-08-14T15:04:08Z</time>
      </trkpt>
      <trkpt lat="44.35461" lon="5.56862">
        <ele>761.7</ele>
        <time>2016-08-14T15:04:15Z</time>
      </trkpt>
      <trkpt lat="44.35462" lon="5.56875">
        <ele>762</ele>
        <time>2016-08-14T15:04:21Z</time>
      </trkpt>
      <trkpt lat="44.35462" lon="5.56889">
        <ele>762.2</ele>
        <time>2016-08-14T15:04:28Z</time>
      </trkpt>
      <trkpt lat="44.35461" lon="5.56902">
        <ele>762.9</ele>
        <time>2016-08-14T15:04:36Z</time>
      </trkpt>
      <trkpt lat="44.35459" lon="5.56916">
        <ele>763.8</ele>
        <time>2016-08-14T15:04:43Z</time>
      </trkpt>
      <trkpt lat="44.35458" lon="5.5693">
        <ele>764.5</ele>
        <time>2016-08-14T15:04:51Z</time>
      </trkpt>
      <trkpt lat="44.35457" lon="5.56943">
        <ele>764.7</ele>
        <time>2016-08-14T15:05:03Z</time>
      </trkpt>
      <trkpt lat="44.35459" lon="5.56955">
        <ele>764.7</ele>
        <time>2016-08-14T15:05:22Z</time>
      </trkpt>
      <trkpt lat="44.35462" lon="5.56967">
        <ele>764.9</ele>
        <time>2016-08-14T15:05:46Z</time>
      </trkpt>
      <trkpt lat="44.35464" lon="5.5698">
        <ele>765.5</ele>
        <time>2016-08-14T15:06:11Z</time>
      </trkpt>
      <trkpt lat="44.35463" lon="5.56993">
        <ele>766</ele>
        <time>2016-08-14T15:06:22Z</time>
      </trkpt>
      <trkpt lat="44.35454" lon="5.56997">
        <ele>766.9</ele>
        <time>2016-08-14T15:06:30Z</time>
      </trkpt>
      <trkpt lat="44.35445" lon="5.56993">
        <ele>768.9</ele>
        <time>2016-08-14T15:06:42Z</time>
      </trkpt>
      <trkpt lat="44.35437" lon="5.56986">
        <ele>770.8</ele>
        <time>2016-08-14T15:06:52Z</time>
      </trkpt>
      <trkpt lat="44.35429" lon="5.56979">
        <ele>772.7</ele>
        <time>2016-08-14T15:07:03Z</time>
      </trkpt>
      <trkpt lat="44.3542" lon="5.56973">
        <ele>773.9</ele>
        <time>2016-08-14T15:07:13Z</time>
      </trkpt>
      <trkpt lat="44.35412" lon="5.56968">
        <ele>775.4</ele>
        <time>2016-08-14T15:07:22Z</time>
      </trkpt>
      <trkpt lat="44.35403" lon="5.56966">
        <ele>777.3</ele>
        <time>2016-08-14T15:07:33Z</time>
      </trkpt>
      <trkpt lat="44.35393" lon="5.56968">
        <ele>779.5</ele>
        <time>2016-08-14T15:07:42Z</time>
      </trkpt>
      <trkpt lat="44.35384" lon="5.5697">
        <ele>781.8</ele>
        <time>2016-08-14T15:07:51Z</time>
      </trkpt>
      <trkpt lat="44.35374" lon="5.56974">
        <ele>783.6</ele>
        <time>2016-08-14T15:07:59Z</time>
      </trkpt>
      <trkpt lat="44.35366" lon="5.56965">
        <ele>786.3</ele>
        <time>2016-08-14T15:08:11Z</time>
      </trkpt>
      <trkpt lat="44.35363" lon="5.56952">
        <ele>788.3</ele>
        <time>2016-08-14T15:08:20Z</time>
      </trkpt>
      <trkpt lat="44.35362" lon="5.56939">
        <ele>790.2</ele>
        <time>2016-08-14T15:08:29Z</time>
      </trkpt>
      <trkpt lat="44.35359" lon="5.56927">
        <ele>791.7</ele>
        <time>2016-08-14T15:08:36Z</time>
      </trkpt>
      <trkpt lat="44.35357" lon="5.56915">
        <ele>792.8</ele>
        <time>2016-08-14T15:08:42Z</time>
      </trkpt>
      <trkpt lat="44.35355" lon="5.56902">
        <ele>794.2</ele>
        <time>2016-08-14T15:08:50Z</time>
      </trkpt>
      <trkpt lat="44.35355" lon="5.56889">
        <ele>796</ele>
        <time>2016-08-14T15:08:57Z</time>
      </trkpt>
      <trkpt lat="44.35356" lon="5.56875">
        <ele>797.9</ele>
        <time>2016-08-14T15:09:04Z</time>
      </trkpt>
      <trkpt lat="44.35355" lon="5.56861">
        <ele>799.9</ele>
        <time>2016-08-14T15:09:12Z</time>
      </trkpt>
      <trkpt lat="44.35352" lon="5.56848">
        <ele>801.4</ele>
        <time>2016-08-14T15:09:19Z</time>
      </trkpt>
      <trkpt lat="44.35349" lon="5.56836">
        <ele>802.6</ele>
        <time>2016-08-14T15:09:27Z</time>
      </trkpt>
      <trkpt lat="44.35347" lon="5.56823">
        <ele>803.6</ele>
        <time>2016-08-14T15:09:34Z</time>
      </trkpt>
      <trkpt lat="44.35345" lon="5.56811">
        <ele>804.9</ele>
        <time>2016-08-14T15:09:43Z</time>
      </trkpt>
      <trkpt lat="44.35342" lon="5.56799">
        <ele>806.2</ele>
        <time>2016-08-14T15:09:57Z</time>
      </trkpt>
      <trkpt lat="44.35337" lon="5.56788">
        <ele>807.1</ele>
        <time>2016-08-14T15:10:33Z</time>
      </trkpt>
      <trkpt lat="44.35328" lon="5.56781">
        <ele>808.2</ele>
        <time>2016-08-14T15:11:29Z</time>
      </trkpt>
      <trkpt lat="44.35321" lon="5.56772">
        <ele>808.4</ele>
        <time>2016-08-14T15:11:38Z</time>
      </trkpt>
      <trkpt lat="44.35314" lon="5.56763">
        <ele>809.4</ele>
        <time>2016-08-14T15:11:46Z</time>
      </trkpt>
      <trkpt lat="44.35304" lon="5.56758">
        <ele>810.6</ele>
        <time>2016-08-14T15:11:54Z</time>
      </trkpt>
      <trkpt lat="44.35294" lon="5.56756">
        <ele>812.6</ele>
        <time>2016-08-14T15:12:02Z</time>
      </trkpt>
      <trkpt lat="44.35285" lon="5.56758">
        <ele>814.7</ele>
        <time>2016-08-14T15:12:11Z</time>
      </trkpt>
      <trkpt lat="44.3528" lon="5.56769">
        <ele>818.2</ele>
        <time>2016-08-14T15:12:26Z</time>
      </trkpt>
      <trkpt lat="44.35284" lon="5.56781">
        <ele>819.9</ele>
        <time>2016-08-14T15:12:35Z</time>
      </trkpt>
      <trkpt lat="44.35289" lon="5.56793">
        <ele>821.4</ele>
        <time>2016-08-14T15:12:43Z</time>
      </trkpt>
      <trkpt lat="44.35294" lon="5.56805">
        <ele>822.6</ele>
        <time>2016-08-14T15:12:51Z</time>
      </trkpt>
      <trkpt lat="44.35298" lon="5.56817">
        <ele>823.5</ele>
        <time>2016-08-14T15:12:59Z</time>
      </trkpt>
      <trkpt lat="44.35298" lon="5.56831">
        <ele>824.1</ele>
        <time>2016-08-14T15:13:07Z</time>
      </trkpt>
      <trkpt lat="44.35298" lon="5.56844">
        <ele>825.2</ele>
        <time>2016-08-14T15:13:15Z</time>
      </trkpt>
      <trkpt lat="44.35299" lon="5.56857">
        <ele>826.4</ele>
        <time>2016-08-14T15:13:23Z</time>
      </trkpt>
      <trkpt lat="44.35302" lon="5.56869">
        <ele>827.5</ele>
        <time>2016-08-14T15:13:30Z</time>
      </trkpt>
      <trkpt lat="44.35302" lon="5.56883">
        <ele>828.5</ele>
        <time>2016-08-14T15:13:38Z</time>
      </trkpt>
      <trkpt lat="44.353" lon="5.56896">
        <ele>829.3</ele>
        <time>2016-08-14T15:13:44Z</time>
      </trkpt>
      <trkpt lat="44.35295" lon="5.56907">
        <ele>830</ele>
        <time>2016-08-14T15:13:51Z</time>
      </trkpt>
      <trkpt lat="44.35289" lon="5.56916">
        <ele>830.4</ele>
        <time>2016-08-14T15:13:57Z</time>
      </trkpt>
      <trkpt lat="44.35282" lon="5.56925">
        <ele>830.7</ele>
        <time>2016-08-14T15:14:03Z</time>
      </trkpt>
      <trkpt lat="44.35273" lon="5.56931">
        <ele>831.2</ele>
        <time>2016-08-14T15:14:10Z</time>
      </trkpt>
      <trkpt lat="44.35264" lon="5.56934">
        <ele>832.3</ele>
        <time>2016-08-14T15:14:18Z</time>
      </trkpt>
      <trkpt lat="44.35254" lon="5.56939">
        <ele>833.3</ele>
        <time>2016-08-14T15:14:25Z</time>
      </trkpt>
      <trkpt lat="44.35246" lon="5.56944">
        <ele>834</ele>
        <time>2016-08-14T15:14:32Z</time>
      </trkpt>
      <trkpt lat="44.35238" lon="5.56951">
        <ele>835.2</ele>
        <time>2016-08-14T15:14:39Z</time>
      </trkpt>
      <trkpt lat="44.3523" lon="5.56959">
        <ele>836.1</ele>
        <time>2016-08-14T15:14:45Z</time>
      </trkpt>
      <trkpt lat="44.35223" lon="5.56965">
        <ele>836.9</ele>
        <time>2016-08-14T15:14:51Z</time>
      </trkpt>
      <trkpt lat="44.35214" lon="5.56971">
        <ele>837.9</ele>
        <time>2016-08-14T15:14:58Z</time>
      </trkpt>
      <trkpt lat="44.35204" lon="5.56975">
        <ele>838.8</ele>
        <time>2016-08-14T15:15:05Z</time>
      </trkpt>
      <trkpt lat="44.35194" lon="5.56979">
        <ele>839.9</ele>
        <time>2016-08-14T15:15:11Z</time>
      </trkpt>
      <trkpt lat="44.35185" lon="5.56983">
        <ele>841.3</ele>
        <time>2016-08-14T15:15:18Z</time>
      </trkpt>
      <trkpt lat="44.35175" lon="5.56988">
        <ele>842.8</ele>
        <time>2016-08-14T15:15:25Z</time>
      </trkpt>
      <trkpt lat="44.35166" lon="5.56994">
        <ele>844.2</ele>
        <time>2016-08-14T15:15:32Z</time>
      </trkpt>
      <trkpt lat="44.35157" lon="5.56998">
        <ele>845.8</ele>
        <time>2016-08-14T15:15:39Z</time>
      </trkpt>
      <trkpt lat="44.35147" lon="5.57001">
        <ele>847.4</ele>
        <time>2016-08-14T15:15:47Z</time>
      </trkpt>
      <trkpt lat="44.35138" lon="5.57005">
        <ele>848.8</ele>
        <time>2016-08-14T15:15:55Z</time>
      </trkpt>
      <trkpt lat="44.35129" lon="5.57005">
        <ele>850.4</ele>
        <time>2016-08-14T15:16:04Z</time>
      </trkpt>
      <trkpt lat="44.35119" lon="5.57004">
        <ele>851.5</ele>
        <time>2016-08-14T15:16:11Z</time>
      </trkpt>
      <trkpt lat="44.35109" lon="5.57005">
        <ele>852.6</ele>
        <time>2016-08-14T15:16:18Z</time>
      </trkpt>
      <trkpt lat="44.35099" lon="5.57006">
        <ele>853.7</ele>
        <time>2016-08-14T15:16:25Z</time>
      </trkpt>
      <trkpt lat="44.3509" lon="5.57008">
        <ele>854.4</ele>
        <time>2016-08-14T15:16:32Z</time>
      </trkpt>
      <trkpt lat="44.35083" lon="5.57015">
        <ele>856.4</ele>
        <time>2016-08-14T15:16:52Z</time>
      </trkpt>
      <trkpt lat="44.35076" lon="5.57023">
        <ele>858</ele>
        <time>2016-08-14T15:17:50Z</time>
      </trkpt>
      <trkpt lat="44.35067" lon="5.57029">
        <ele>858.3</ele>
        <time>2016-08-14T15:17:57Z</time>
      </trkpt>
      <trkpt lat="44.35058" lon="5.5703">
        <ele>858.7</ele>
        <time>2016-08-14T15:18:05Z</time>
      </trkpt>
      <trkpt lat="44.35048" lon="5.57031">
        <ele>859.3</ele>
        <time>2016-08-14T15:18:13Z</time>
      </trkpt>
      <trkpt lat="44.35038" lon="5.57034">
        <ele>860.6</ele>
        <time>2016-08-14T15:18:22Z</time>
      </trkpt>
      <trkpt lat="44.35028" lon="5.57039">
        <ele>861.7</ele>
        <time>2016-08-14T15:18:29Z</time>
      </trkpt>
      <trkpt lat="44.3502" lon="5.57045">
        <ele>864.8</ele>
        <time>2016-08-14T15:19:18Z</time>
      </trkpt>
      <trkpt lat="44.35013" lon="5.57053">
        <ele>865</ele>
        <time>2016-08-14T15:22:30Z</time>
      </trkpt>
      <trkpt lat="44.35009" lon="5.57065">
        <ele>865.6</ele>
        <time>2016-08-14T15:22:39Z</time>
      </trkpt>
      <trkpt lat="44.35005" lon="5.57078">
        <ele>865.9</ele>
        <time>2016-08-14T15:22:52Z</time>
      </trkpt>
      <trkpt lat="44.34999" lon="5.57089">
        <ele>866.2</ele>
        <time>2016-08-14T15:23:01Z</time>
      </trkpt>
      <trkpt lat="44.34993" lon="5.57099">
        <ele>866.5</ele>
        <time>2016-08-14T15:23:08Z</time>
      </trkpt>
      <trkpt lat="44.34987" lon="5.57109">
        <ele>866.8</ele>
        <time>2016-08-14T15:23:15Z</time>
      </trkpt>
      <trkpt lat="44.34979" lon="5.57119">
        <ele>867</ele>
        <time>2016-08-14T15:23:22Z</time>
      </trkpt>
      <trkpt lat="44.34973" lon="5.5713">
        <ele>867</ele>
        <time>2016-08-14T15:23:29Z</time>
      </trkpt>
      <trkpt lat="44.34968" lon="5.57142">
        <ele>867.4</ele>
        <time>2016-08-14T15:23:35Z</time>
      </trkpt>
      <trkpt lat="44.34964" lon="5.57153">
        <ele>867.5</ele>
        <time>2016-08-14T15:23:41Z</time>
      </trkpt>
      <trkpt lat="44.3496" lon="5.57166">
        <ele>867.6</ele>
        <time>2016-08-14T15:23:47Z</time>
      </trkpt>
      <trkpt lat="44.34955" lon="5.57179">
        <ele>867.9</ele>
        <time>2016-08-14T15:23:53Z</time>
      </trkpt>
      <trkpt lat="44.34951" lon="5.57192">
        <ele>868.3</ele>
        <time>2016-08-14T15:23:59Z</time>
      </trkpt>
      <trkpt lat="44.34946" lon="5.57204">
        <ele>868.8</ele>
        <time>2016-08-14T15:24:05Z</time>
      </trkpt>
      <trkpt lat="44.34942" lon="5.57216">
        <ele>869.2</ele>
        <time>2016-08-14T15:24:11Z</time>
      </trkpt>
      <trkpt lat="44.34938" lon="5.57228">
        <ele>869.4</ele>
        <time>2016-08-14T15:24:17Z</time>
      </trkpt>
      <trkpt lat="44.34934" lon="5.57241">
        <ele>869.6</ele>
        <time>2016-08-14T15:24:23Z</time>
      </trkpt>
      <trkpt lat="44.3493" lon="5.57253">
        <ele>870</ele>
        <time>2016-08-14T15:24:29Z</time>
      </trkpt>
      <trkpt lat="44.34926" lon="5.57266">
        <ele>870.4</ele>
        <time>2016-08-14T15:24:36Z</time>
      </trkpt>
      <trkpt lat="44.34922" lon="5.57279">
        <ele>870.9</ele>
        <time>2016-08-14T15:24:43Z</time>
      </trkpt>
      <trkpt lat="44.34918" lon="5.57293">
        <ele>871.8</ele>
        <time>2016-08-14T15:24:50Z</time>
      </trkpt>
      <trkpt lat="44.34915" lon="5.57305">
        <ele>872.5</ele>
        <time>2016-08-14T15:24:56Z</time>
      </trkpt>
      <trkpt lat="44.34912" lon="5.57319">
        <ele>873.2</ele>
        <time>2016-08-14T15:25:03Z</time>
      </trkpt>
      <trkpt lat="44.3491" lon="5.57331">
        <ele>873.8</ele>
        <time>2016-08-14T15:25:09Z</time>
      </trkpt>
      <trkpt lat="44.34907" lon="5.57345">
        <ele>874.9</ele>
        <time>2016-08-14T15:25:16Z</time>
      </trkpt>
      <trkpt lat="44.34906" lon="5.57358">
        <ele>876.1</ele>
        <time>2016-08-14T15:25:23Z</time>
      </trkpt>
      <trkpt lat="44.34905" lon="5.57371">
        <ele>877.2</ele>
        <time>2016-08-14T15:25:30Z</time>
      </trkpt>
      <trkpt lat="44.34906" lon="5.57383">
        <ele>878.3</ele>
        <time>2016-08-14T15:25:38Z</time>
      </trkpt>
      <trkpt lat="44.34909" lon="5.57397">
        <ele>879.9</ele>
        <time>2016-08-14T15:25:47Z</time>
      </trkpt>
      <trkpt lat="44.34907" lon="5.5741">
        <ele>880.7</ele>
        <time>2016-08-14T15:25:54Z</time>
      </trkpt>
      <trkpt lat="44.34905" lon="5.57424">
        <ele>881.7</ele>
        <time>2016-08-14T15:26:03Z</time>
      </trkpt>
      <trkpt lat="44.34903" lon="5.57437">
        <ele>882.7</ele>
        <time>2016-08-14T15:26:11Z</time>
      </trkpt>
      <trkpt lat="44.349" lon="5.5745">
        <ele>883.8</ele>
        <time>2016-08-14T15:26:19Z</time>
      </trkpt>
      <trkpt lat="44.34897" lon="5.57463">
        <ele>884.6</ele>
        <time>2016-08-14T15:26:26Z</time>
      </trkpt>
      <trkpt lat="44.34894" lon="5.57476">
        <ele>885.1</ele>
        <time>2016-08-14T15:26:33Z</time>
      </trkpt>
      <trkpt lat="44.3489" lon="5.57488">
        <ele>885.5</ele>
        <time>2016-08-14T15:26:40Z</time>
      </trkpt>
      <trkpt lat="44.34886" lon="5.575">
        <ele>886.1</ele>
        <time>2016-08-14T15:26:47Z</time>
      </trkpt>
      <trkpt lat="44.34881" lon="5.57511">
        <ele>886.8</ele>
        <time>2016-08-14T15:26:53Z</time>
      </trkpt>
      <trkpt lat="44.34876" lon="5.57522">
        <ele>887.3</ele>
        <time>2016-08-14T15:26:59Z</time>
      </trkpt>
      <trkpt lat="44.3487" lon="5.57534">
        <ele>887.7</ele>
        <time>2016-08-14T15:27:06Z</time>
      </trkpt>
      <trkpt lat="44.34866" lon="5.57546">
        <ele>888</ele>
        <time>2016-08-14T15:27:14Z</time>
      </trkpt>
      <trkpt lat="44.34863" lon="5.57558">
        <ele>888.8</ele>
        <time>2016-08-14T15:27:22Z</time>
      </trkpt>
      <trkpt lat="44.34859" lon="5.57571">
        <ele>889.8</ele>
        <time>2016-08-14T15:27:29Z</time>
      </trkpt>
      <trkpt lat="44.34855" lon="5.57583">
        <ele>890.7</ele>
        <time>2016-08-14T15:27:37Z</time>
      </trkpt>
      <trkpt lat="44.34851" lon="5.57594">
        <ele>891.1</ele>
        <time>2016-08-14T15:27:43Z</time>
      </trkpt>
      <trkpt lat="44.34847" lon="5.57607">
        <ele>891.6</ele>
        <time>2016-08-14T15:27:50Z</time>
      </trkpt>
      <trkpt lat="44.34841" lon="5.57618">
        <ele>892.3</ele>
        <time>2016-08-14T15:27:56Z</time>
      </trkpt>
      <trkpt lat="44.34836" lon="5.5763">
        <ele>893</ele>
        <time>2016-08-14T15:28:02Z</time>
      </trkpt>
      <trkpt lat="44.34832" lon="5.57641">
        <ele>894</ele>
        <time>2016-08-14T15:28:08Z</time>
      </trkpt>
      <trkpt lat="44.34828" lon="5.57653">
        <ele>894.7</ele>
        <time>2016-08-14T15:28:15Z</time>
      </trkpt>
      <trkpt lat="44.34825" lon="5.57667">
        <ele>895.1</ele>
        <time>2016-08-14T15:28:23Z</time>
      </trkpt>
      <trkpt lat="44.34823" lon="5.57681">
        <ele>895.2</ele>
        <time>2016-08-14T15:28:30Z</time>
      </trkpt>
      <trkpt lat="44.34819" lon="5.57693">
        <ele>895.3</ele>
        <time>2016-08-14T15:28:38Z</time>
      </trkpt>
      <trkpt lat="44.34812" lon="5.57702">
        <ele>895.3</ele>
        <time>2016-08-14T15:28:45Z</time>
      </trkpt>
      <trkpt lat="44.34804" lon="5.57709">
        <ele>895.1</ele>
        <time>2016-08-14T15:28:53Z</time>
      </trkpt>
      <trkpt lat="44.34796" lon="5.57715">
        <ele>894.7</ele>
        <time>2016-08-14T15:29:00Z</time>
      </trkpt>
      <trkpt lat="44.34788" lon="5.57721">
        <ele>893.9</ele>
        <time>2016-08-14T15:29:09Z</time>
      </trkpt>
      <trkpt lat="44.34779" lon="5.57729">
        <ele>892.9</ele>
        <time>2016-08-14T15:29:19Z</time>
      </trkpt>
      <trkpt lat="44.34771" lon="5.57734">
        <ele>891.1</ele>
        <time>2016-08-14T15:29:31Z</time>
      </trkpt>
      <trkpt lat="44.34763" lon="5.57744">
        <ele>890.1</ele>
        <time>2016-08-14T15:29:39Z</time>
      </trkpt>
      <trkpt lat="44.34756" lon="5.57752">
        <ele>887.9</ele>
        <time>2016-08-14T15:30:41Z</time>
      </trkpt>
      <trkpt lat="44.34753" lon="5.57765">
        <ele>887.7</ele>
        <time>2016-08-14T15:30:51Z</time>
      </trkpt>
      <trkpt lat="44.34755" lon="5.57777">
        <ele>887.3</ele>
        <time>2016-08-14T15:30:59Z</time>
      </trkpt>
      <trkpt lat="44.34757" lon="5.57791">
        <ele>886.6</ele>
        <time>2016-08-14T15:31:07Z</time>
      </trkpt>
      <trkpt lat="44.34758" lon="5.57805">
        <ele>885.8</ele>
        <time>2016-08-14T15:31:15Z</time>
      </trkpt>
      <trkpt lat="44.34756" lon="5.57818">
        <ele>884.9</ele>
        <time>2016-08-14T15:31:22Z</time>
      </trkpt>
      <trkpt lat="44.3475" lon="5.57829">
        <ele>883.4</ele>
        <time>2016-08-14T15:31:31Z</time>
      </trkpt>
      <trkpt lat="44.34741" lon="5.57836">
        <ele>882.3</ele>
        <time>2016-08-14T15:31:39Z</time>
      </trkpt>
      <trkpt lat="44.34734" lon="5.57845">
        <ele>881.3</ele>
        <time>2016-08-14T15:31:48Z</time>
      </trkpt>
      <trkpt lat="44.34727" lon="5.57854">
        <ele>880.3</ele>
        <time>2016-08-14T15:31:56Z</time>
      </trkpt>
      <trkpt lat="44.34719" lon="5.57863">
        <ele>879.1</ele>
        <time>2016-08-14T15:32:04Z</time>
      </trkpt>
      <trkpt lat="44.34714" lon="5.57874">
        <ele>877.4</ele>
        <time>2016-08-14T15:32:17Z</time>
      </trkpt>
      <trkpt lat="44.34712" lon="5.57887">
        <ele>875.5</ele>
        <time>2016-08-14T15:32:28Z</time>
      </trkpt>
      <trkpt lat="44.34709" lon="5.579">
        <ele>874.7</ele>
        <time>2016-08-14T15:32:37Z</time>
      </trkpt>
      <trkpt lat="44.34706" lon="5.57913">
        <ele>873.7</ele>
        <time>2016-08-14T15:32:46Z</time>
      </trkpt>
      <trkpt lat="44.34701" lon="5.57923">
        <ele>872.8</ele>
        <time>2016-08-14T15:32:55Z</time>
      </trkpt>
      <trkpt lat="44.34696" lon="5.57935">
        <ele>871.7</ele>
        <time>2016-08-14T15:33:04Z</time>
      </trkpt>
      <trkpt lat="44.34694" lon="5.57947">
        <ele>870.8</ele>
        <time>2016-08-14T15:33:13Z</time>
      </trkpt>
      <trkpt lat="44.34692" lon="5.5796">
        <ele>869.6</ele>
        <time>2016-08-14T15:33:24Z</time>
      </trkpt>
      <trkpt lat="44.3469" lon="5.57973">
        <ele>867.8</ele>
        <time>2016-08-14T15:33:36Z</time>
      </trkpt>
      <trkpt lat="44.34687" lon="5.57985">
        <ele>866.1</ele>
        <time>2016-08-14T15:33:49Z</time>
      </trkpt>
      <trkpt lat="44.34683" lon="5.57996">
        <ele>864.2</ele>
        <time>2016-08-14T15:34:03Z</time>
      </trkpt>
      <trkpt lat="44.34675" lon="5.58004">
        <ele>862.2</ele>
        <time>2016-08-14T15:34:15Z</time>
      </trkpt>
      <trkpt lat="44.34671" lon="5.58015">
        <ele>860.5</ele>
        <time>2016-08-14T15:34:26Z</time>
      </trkpt>
      <trkpt lat="44.3467" lon="5.58028">
        <ele>859.2</ele>
        <time>2016-08-14T15:34:36Z</time>
      </trkpt>
      <trkpt lat="44.34665" lon="5.58039">
        <ele>857.4</ele>
        <time>2016-08-14T15:34:45Z</time>
      </trkpt>
      <trkpt lat="44.34657" lon="5.58048">
        <ele>855.4</ele>
        <time>2016-08-14T15:34:55Z</time>
      </trkpt>
      <trkpt lat="44.3465" lon="5.58055">
        <ele>853.7</ele>
        <time>2016-08-14T15:35:04Z</time>
      </trkpt>
      <trkpt lat="44.34642" lon="5.58061">
        <ele>852.1</ele>
        <time>2016-08-14T15:35:13Z</time>
      </trkpt>
      <trkpt lat="44.34634" lon="5.58067">
        <ele>849.9</ele>
        <time>2016-08-14T15:35:24Z</time>
      </trkpt>
      <trkpt lat="44.34625" lon="5.58072">
        <ele>848</ele>
        <time>2016-08-14T15:35:34Z</time>
      </trkpt>
      <trkpt lat="44.34616" lon="5.58075">
        <ele>846.5</ele>
        <time>2016-08-14T15:35:43Z</time>
      </trkpt>
      <trkpt lat="44.34607" lon="5.58077">
        <ele>845</ele>
        <time>2016-08-14T15:35:51Z</time>
      </trkpt>
      <trkpt lat="44.34597" lon="5.5808">
        <ele>843.3</ele>
        <time>2016-08-14T15:36:00Z</time>
      </trkpt>
      <trkpt lat="44.34588" lon="5.58081">
        <ele>841.7</ele>
        <time>2016-08-14T15:36:08Z</time>
      </trkpt>
      <trkpt lat="44.34579" lon="5.58083">
        <ele>840.2</ele>
        <time>2016-08-14T15:36:15Z</time>
      </trkpt>
      <trkpt lat="44.3457" lon="5.58085">
        <ele>839.2</ele>
        <time>2016-08-14T15:36:22Z</time>
      </trkpt>
      <trkpt lat="44.3456" lon="5.58083">
        <ele>838.5</ele>
        <time>2016-08-14T15:36:34Z</time>
      </trkpt>
      <trkpt lat="44.34569" lon="5.58089">
        <ele>838.3</ele>
        <time>2016-08-14T15:37:43Z</time>
      </trkpt>
      <trkpt lat="44.34576" lon="5.58097">
        <ele>837.3</ele>
        <time>2016-08-14T15:38:43Z</time>
      </trkpt>
      <trkpt lat="44.34585" lon="5.58098">
        <ele>837.1</ele>
        <time>2016-08-14T15:39:40Z</time>
      </trkpt>
      <trkpt lat="44.34594" lon="5.58104">
        <ele>837.7</ele>
        <time>2016-08-14T15:40:20Z</time>
      </trkpt>
      <trkpt lat="44.34603" lon="5.5811">
        <ele>837.7</ele>
        <time>2016-08-14T15:40:28Z</time>
      </trkpt>
      <trkpt lat="44.3461" lon="5.58119">
        <ele>837.8</ele>
        <time>2016-08-14T15:40:37Z</time>
      </trkpt>
      <trkpt lat="44.3461" lon="5.58132">
        <ele>838</ele>
        <time>2016-08-14T15:40:45Z</time>
      </trkpt>
      <trkpt lat="44.34608" lon="5.58144">
        <ele>838.4</ele>
        <time>2016-08-14T15:40:54Z</time>
      </trkpt>
      <trkpt lat="44.34603" lon="5.58155">
        <ele>838.9</ele>
        <time>2016-08-14T15:41:03Z</time>
      </trkpt>
      <trkpt lat="44.34597" lon="5.58165">
        <ele>839.4</ele>
        <time>2016-08-14T15:41:10Z</time>
      </trkpt>
      <trkpt lat="44.34589" lon="5.58173">
        <ele>840.1</ele>
        <time>2016-08-14T15:41:17Z</time>
      </trkpt>
      <trkpt lat="44.34581" lon="5.58181">
        <ele>840.8</ele>
        <time>2016-08-14T15:41:24Z</time>
      </trkpt>
      <trkpt lat="44.34574" lon="5.58189">
        <ele>841.4</ele>
        <time>2016-08-14T15:41:32Z</time>
      </trkpt>
      <trkpt lat="44.34565" lon="5.58194">
        <ele>841.8</ele>
        <time>2016-08-14T15:41:39Z</time>
      </trkpt>
      <trkpt lat="44.34556" lon="5.58199">
        <ele>843.1</ele>
        <time>2016-08-14T15:41:47Z</time>
      </trkpt>
      <trkpt lat="44.34547" lon="5.58205">
        <ele>844.2</ele>
        <time>2016-08-14T15:41:54Z</time>
      </trkpt>
      <trkpt lat="44.34538" lon="5.58209">
        <ele>845</ele>
        <time>2016-08-14T15:42:01Z</time>
      </trkpt>
      <trkpt lat="44.34529" lon="5.58213">
        <ele>846.2</ele>
        <time>2016-08-14T15:42:08Z</time>
      </trkpt>
      <trkpt lat="44.34519" lon="5.58216">
        <ele>848</ele>
        <time>2016-08-14T15:42:17Z</time>
      </trkpt>
      <trkpt lat="44.3451" lon="5.58218">
        <ele>849.1</ele>
        <time>2016-08-14T15:42:24Z</time>
      </trkpt>
      <trkpt lat="44.34501" lon="5.58219">
        <ele>850.5</ele>
        <time>2016-08-14T15:42:31Z</time>
      </trkpt>
      <trkpt lat="44.34492" lon="5.58222">
        <ele>851.5</ele>
        <time>2016-08-14T15:42:39Z</time>
      </trkpt>
      <trkpt lat="44.34483" lon="5.58222">
        <ele>852.5</ele>
        <time>2016-08-14T15:42:46Z</time>
      </trkpt>
      <trkpt lat="44.34474" lon="5.58223">
        <ele>853.7</ele>
        <time>2016-08-14T15:42:53Z</time>
      </trkpt>
      <trkpt lat="44.34477" lon="5.58234">
        <ele>856.5</ele>
        <time>2016-08-14T15:43:15Z</time>
      </trkpt>
      <trkpt lat="44.34485" lon="5.58242">
        <ele>859</ele>
        <time>2016-08-14T15:43:45Z</time>
      </trkpt>
      <trkpt lat="44.34489" lon="5.58254">
        <ele>860</ele>
        <time>2016-08-14T15:43:52Z</time>
      </trkpt>
      <trkpt lat="44.34493" lon="5.58265">
        <ele>861</ele>
        <time>2016-08-14T15:43:59Z</time>
      </trkpt>
      <trkpt lat="44.34497" lon="5.58277">
        <ele>862.4</ele>
        <time>2016-08-14T15:44:05Z</time>
      </trkpt>
      <trkpt lat="44.34501" lon="5.58289">
        <ele>864.2</ele>
        <time>2016-08-14T15:44:12Z</time>
      </trkpt>
      <trkpt lat="44.34503" lon="5.58302">
        <ele>866.4</ele>
        <time>2016-08-14T15:44:20Z</time>
      </trkpt>
      <trkpt lat="44.34503" lon="5.58316">
        <ele>870.5</ele>
        <time>2016-08-14T15:44:35Z</time>
      </trkpt>
      <trkpt lat="44.34503" lon="5.58329">
        <ele>872.1</ele>
        <time>2016-08-14T15:44:42Z</time>
      </trkpt>
      <trkpt lat="44.34503" lon="5.58343">
        <ele>874.4</ele>
        <time>2016-08-14T15:44:50Z</time>
      </trkpt>
      <trkpt lat="44.34503" lon="5.58356">
        <ele>877.2</ele>
        <time>2016-08-14T15:44:59Z</time>
      </trkpt>
      <trkpt lat="44.34502" lon="5.5837">
        <ele>879.8</ele>
        <time>2016-08-14T15:45:09Z</time>
      </trkpt>
      <trkpt lat="44.34501" lon="5.58383">
        <ele>882.2</ele>
        <time>2016-08-14T15:45:18Z</time>
      </trkpt>
      <trkpt lat="44.345" lon="5.58397">
        <ele>884.7</ele>
        <time>2016-08-14T15:45:27Z</time>
      </trkpt>
      <trkpt lat="44.34501" lon="5.58411">
        <ele>886.5</ele>
        <time>2016-08-14T15:45:35Z</time>
      </trkpt>
      <trkpt lat="44.34506" lon="5.58422">
        <ele>888.4</ele>
        <time>2016-08-14T15:45:43Z</time>
      </trkpt>
      <trkpt lat="44.34512" lon="5.58432">
        <ele>890</ele>
        <time>2016-08-14T15:45:52Z</time>
      </trkpt>
      <trkpt lat="44.34519" lon="5.58441">
        <ele>890.8</ele>
        <time>2016-08-14T15:45:59Z</time>
      </trkpt>
      <trkpt lat="44.34526" lon="5.58451">
        <ele>891.5</ele>
        <time>2016-08-14T15:46:06Z</time>
      </trkpt>
      <trkpt lat="44.34532" lon="5.58461">
        <ele>891.9</ele>
        <time>2016-08-14T15:46:12Z</time>
      </trkpt>
      <trkpt lat="44.34539" lon="5.58471">
        <ele>892</ele>
        <time>2016-08-14T15:46:19Z</time>
      </trkpt>
      <trkpt lat="44.34543" lon="5.58482">
        <ele>892.4</ele>
        <time>2016-08-14T15:46:25Z</time>
      </trkpt>
      <trkpt lat="44.34549" lon="5.58494">
        <ele>893</ele>
        <time>2016-08-14T15:46:32Z</time>
      </trkpt>
      <trkpt lat="44.34557" lon="5.58503">
        <ele>893.3</ele>
        <time>2016-08-14T15:46:39Z</time>
      </trkpt>
      <trkpt lat="44.34565" lon="5.58511">
        <ele>893.6</ele>
        <time>2016-08-14T15:46:45Z</time>
      </trkpt>
      <trkpt lat="44.34574" lon="5.58517">
        <ele>894</ele>
        <time>2016-08-14T15:46:52Z</time>
      </trkpt>
      <trkpt lat="44.34582" lon="5.58523">
        <ele>894.4</ele>
        <time>2016-08-14T15:46:58Z</time>
      </trkpt>
      <trkpt lat="44.34592" lon="5.58529">
        <ele>894.7</ele>
        <time>2016-08-14T15:47:05Z</time>
      </trkpt>
      <trkpt lat="44.346" lon="5.58534">
        <ele>894.9</ele>
        <time>2016-08-14T15:47:11Z</time>
      </trkpt>
      <trkpt lat="44.34608" lon="5.58541">
        <ele>894.9</ele>
        <time>2016-08-14T15:47:18Z</time>
      </trkpt>
      <trkpt lat="44.34614" lon="5.58552">
        <ele>894.9</ele>
        <time>2016-08-14T15:47:25Z</time>
      </trkpt>
      <trkpt lat="44.34617" lon="5.58565">
        <ele>895.1</ele>
        <time>2016-08-14T15:47:33Z</time>
      </trkpt>
      <trkpt lat="44.34618" lon="5.58578">
        <ele>895.4</ele>
        <time>2016-08-14T15:47:44Z</time>
      </trkpt>
      <trkpt lat="44.3462" lon="5.58591">
        <ele>895.5</ele>
        <time>2016-08-14T15:47:59Z</time>
      </trkpt>
      <trkpt lat="44.34625" lon="5.58603">
        <ele>894.9</ele>
        <time>2016-08-14T15:48:26Z</time>
      </trkpt>
      <trkpt lat="44.3463" lon="5.58613">
        <ele>894</ele>
        <time>2016-08-14T15:49:51Z</time>
      </trkpt>
      <trkpt lat="44.34626" lon="5.58625">
        <ele>893.8</ele>
        <time>2016-08-14T15:50:59Z</time>
      </trkpt>
      <trkpt lat="44.34633" lon="5.58635">
        <ele>893.6</ele>
        <time>2016-08-14T15:51:08Z</time>
      </trkpt>
      <trkpt lat="44.3464" lon="5.58643">
        <ele>893.3</ele>
        <time>2016-08-14T15:51:15Z</time>
      </trkpt>
      <trkpt lat="44.34647" lon="5.58652">
        <ele>892.9</ele>
        <time>2016-08-14T15:51:22Z</time>
      </trkpt>
      <trkpt lat="44.34654" lon="5.58662">
        <ele>892.3</ele>
        <time>2016-08-14T15:51:31Z</time>
      </trkpt>
      <trkpt lat="44.34662" lon="5.58672">
        <ele>891.6</ele>
        <time>2016-08-14T15:51:39Z</time>
      </trkpt>
      <trkpt lat="44.34669" lon="5.58681">
        <ele>891.2</ele>
        <time>2016-08-14T15:51:45Z</time>
      </trkpt>
      <trkpt lat="44.34676" lon="5.58692">
        <ele>890.8</ele>
        <time>2016-08-14T15:51:52Z</time>
      </trkpt>
      <trkpt lat="44.34683" lon="5.58701">
        <ele>890.5</ele>
        <time>2016-08-14T15:51:58Z</time>
      </trkpt>
      <trkpt lat="44.34689" lon="5.58712">
        <ele>890.2</ele>
        <time>2016-08-14T15:52:04Z</time>
      </trkpt>
      <trkpt lat="44.34695" lon="5.58723">
        <ele>889.8</ele>
        <time>2016-08-14T15:52:10Z</time>
      </trkpt>
      <trkpt lat="44.347" lon="5.58736">
        <ele>889.4</ele>
        <time>2016-08-14T15:52:17Z</time>
      </trkpt>
      <trkpt lat="44.34704" lon="5.58748">
        <ele>889.1</ele>
        <time>2016-08-14T15:52:24Z</time>
      </trkpt>
      <trkpt lat="44.34705" lon="5.58761">
        <ele>889</ele>
        <time>2016-08-14T15:52:30Z</time>
      </trkpt>
      <trkpt lat="44.34706" lon="5.58774">
        <ele>888.9</ele>
        <time>2016-08-14T15:52:36Z</time>
      </trkpt>
      <trkpt lat="44.34706" lon="5.58787">
        <ele>888.8</ele>
        <time>2016-08-14T15:52:43Z</time>
      </trkpt>
      <trkpt lat="44.34706" lon="5.58802">
        <ele>888.8</ele>
        <time>2016-08-14T15:52:50Z</time>
      </trkpt>
      <trkpt lat="44.34709" lon="5.58815">
        <ele>888.9</ele>
        <time>2016-08-14T15:52:56Z</time>
      </trkpt>
      <trkpt lat="44.34715" lon="5.58824">
        <ele>888.9</ele>
        <time>2016-08-14T15:53:02Z</time>
      </trkpt>
      <trkpt lat="44.34724" lon="5.58831">
        <ele>889</ele>
        <time>2016-08-14T15:53:08Z</time>
      </trkpt>
      <trkpt lat="44.34734" lon="5.58835">
        <ele>889</ele>
        <time>2016-08-14T15:53:14Z</time>
      </trkpt>
      <trkpt lat="44.34744" lon="5.58835">
        <ele>889.8</ele>
        <time>2016-08-14T15:53:20Z</time>
      </trkpt>
      <trkpt lat="44.34754" lon="5.58835">
        <ele>890.6</ele>
        <time>2016-08-14T15:53:26Z</time>
      </trkpt>
      <trkpt lat="44.34764" lon="5.58836">
        <ele>891.2</ele>
        <time>2016-08-14T15:53:32Z</time>
      </trkpt>
      <trkpt lat="44.34773" lon="5.58839">
        <ele>891.5</ele>
        <time>2016-08-14T15:53:38Z</time>
      </trkpt>
      <trkpt lat="44.34781" lon="5.58849">
        <ele>891.7</ele>
        <time>2016-08-14T15:53:45Z</time>
      </trkpt>
      <trkpt lat="44.34785" lon="5.58862">
        <ele>892.1</ele>
        <time>2016-08-14T15:53:51Z</time>
      </trkpt>
      <trkpt lat="44.34789" lon="5.58874">
        <ele>892.4</ele>
        <time>2016-08-14T15:53:57Z</time>
      </trkpt>
      <trkpt lat="44.34793" lon="5.58888">
        <ele>892.5</ele>
        <time>2016-08-14T15:54:03Z</time>
      </trkpt>
      <trkpt lat="44.34797" lon="5.58901">
        <ele>892.6</ele>
        <time>2016-08-14T15:54:09Z</time>
      </trkpt>
      <trkpt lat="44.34801" lon="5.58913">
        <ele>892.7</ele>
        <time>2016-08-14T15:54:15Z</time>
      </trkpt>
      <trkpt lat="44.34804" lon="5.58926">
        <ele>892.8</ele>
        <time>2016-08-14T15:54:21Z</time>
      </trkpt>
      <trkpt lat="44.34807" lon="5.58938">
        <ele>892.8</ele>
        <time>2016-08-14T15:54:27Z</time>
      </trkpt>
      <trkpt lat="44.3481" lon="5.5895">
        <ele>892.8</ele>
        <time>2016-08-14T15:54:33Z</time>
      </trkpt>
      <trkpt lat="44.34813" lon="5.58963">
        <ele>892.7</ele>
        <time>2016-08-14T15:54:39Z</time>
      </trkpt>
      <trkpt lat="44.34815" lon="5.58975">
        <ele>892.5</ele>
        <time>2016-08-14T15:54:45Z</time>
      </trkpt>
      <trkpt lat="44.34818" lon="5.58988">
        <ele>892.3</ele>
        <time>2016-08-14T15:54:51Z</time>
      </trkpt>
      <trkpt lat="44.34822" lon="5.59001">
        <ele>892.1</ele>
        <time>2016-08-14T15:54:58Z</time>
      </trkpt>
      <trkpt lat="44.34824" lon="5.59014">
        <ele>891.9</ele>
        <time>2016-08-14T15:55:05Z</time>
      </trkpt>
      <trkpt lat="44.34826" lon="5.59028">
        <ele>891.1</ele>
        <time>2016-08-14T15:55:12Z</time>
      </trkpt>
      <trkpt lat="44.34829" lon="5.59041">
        <ele>890.3</ele>
        <time>2016-08-14T15:55:19Z</time>
      </trkpt>
      <trkpt lat="44.34832" lon="5.59053">
        <ele>889.7</ele>
        <time>2016-08-14T15:55:25Z</time>
      </trkpt>
      <trkpt lat="44.34838" lon="5.59065">
        <ele>889.2</ele>
        <time>2016-08-14T15:55:31Z</time>
      </trkpt>
      <trkpt lat="44.34845" lon="5.59076">
        <ele>888.7</ele>
        <time>2016-08-14T15:55:37Z</time>
      </trkpt>
      <trkpt lat="44.34851" lon="5.59086">
        <ele>888.3</ele>
        <time>2016-08-14T15:55:43Z</time>
      </trkpt>
      <trkpt lat="44.34857" lon="5.59095">
        <ele>888</ele>
        <time>2016-08-14T15:55:49Z</time>
      </trkpt>
      <trkpt lat="44.34863" lon="5.59105">
        <ele>887.7</ele>
        <time>2016-08-14T15:55:55Z</time>
      </trkpt>
      <trkpt lat="44.3487" lon="5.59116">
        <ele>887.5</ele>
        <time>2016-08-14T15:56:02Z</time>
      </trkpt>
      <trkpt lat="44.34876" lon="5.59127">
        <ele>887.2</ele>
        <time>2016-08-14T15:56:09Z</time>
      </trkpt>
      <trkpt lat="44.34883" lon="5.59137">
        <ele>886.6</ele>
        <time>2016-08-14T15:56:16Z</time>
      </trkpt>
      <trkpt lat="44.34889" lon="5.59147">
        <ele>886.3</ele>
        <time>2016-08-14T15:56:22Z</time>
      </trkpt>
      <trkpt lat="44.34895" lon="5.59157">
        <ele>886.1</ele>
        <time>2016-08-14T15:56:28Z</time>
      </trkpt>
      <trkpt lat="44.34901" lon="5.59166">
        <ele>885.5</ele>
        <time>2016-08-14T15:56:34Z</time>
      </trkpt>
      <trkpt lat="44.34907" lon="5.59175">
        <ele>885.1</ele>
        <time>2016-08-14T15:56:40Z</time>
      </trkpt>
      <trkpt lat="44.34914" lon="5.59186">
        <ele>884.7</ele>
        <time>2016-08-14T15:56:47Z</time>
      </trkpt>
      <trkpt lat="44.34922" lon="5.59194">
        <ele>884.4</ele>
        <time>2016-08-14T15:56:53Z</time>
      </trkpt>
      <trkpt lat="44.34931" lon="5.592">
        <ele>883.9</ele>
        <time>2016-08-14T15:57:00Z</time>
      </trkpt>
      <trkpt lat="44.3494" lon="5.59207">
        <ele>883.2</ele>
        <time>2016-08-14T15:57:07Z</time>
      </trkpt>
      <trkpt lat="44.34948" lon="5.59215">
        <ele>882.6</ele>
        <time>2016-08-14T15:57:14Z</time>
      </trkpt>
      <trkpt lat="44.34955" lon="5.59224">
        <ele>882.1</ele>
        <time>2016-08-14T15:57:20Z</time>
      </trkpt>
      <trkpt lat="44.34959" lon="5.59236">
        <ele>881.7</ele>
        <time>2016-08-14T15:57:27Z</time>
      </trkpt>
      <trkpt lat="44.34958" lon="5.5925">
        <ele>881.1</ele>
        <time>2016-08-14T15:57:34Z</time>
      </trkpt>
      <trkpt lat="44.34953" lon="5.59262">
        <ele>880.4</ele>
        <time>2016-08-14T15:57:41Z</time>
      </trkpt>
      <trkpt lat="44.34946" lon="5.59273">
        <ele>879.9</ele>
        <time>2016-08-14T15:57:48Z</time>
      </trkpt>
      <trkpt lat="44.34939" lon="5.59281">
        <ele>879.6</ele>
        <time>2016-08-14T15:57:54Z</time>
      </trkpt>
      <trkpt lat="44.34932" lon="5.59289">
        <ele>879.2</ele>
        <time>2016-08-14T15:58:00Z</time>
      </trkpt>
      <trkpt lat="44.34924" lon="5.59298">
        <ele>878.8</ele>
        <time>2016-08-14T15:58:06Z</time>
      </trkpt>
      <trkpt lat="44.34918" lon="5.59307">
        <ele>878.4</ele>
        <time>2016-08-14T15:58:12Z</time>
      </trkpt>
      <trkpt lat="44.34912" lon="5.59316">
        <ele>878</ele>
        <time>2016-08-14T15:58:18Z</time>
      </trkpt>
      <trkpt lat="44.34905" lon="5.59325">
        <ele>877.7</ele>
        <time>2016-08-14T15:58:24Z</time>
      </trkpt>
      <trkpt lat="44.34898" lon="5.59335">
        <ele>877.4</ele>
        <time>2016-08-14T15:58:31Z</time>
      </trkpt>
      <trkpt lat="44.34892" lon="5.59345">
        <ele>877</ele>
        <time>2016-08-14T15:58:37Z</time>
      </trkpt>
      <trkpt lat="44.34886" lon="5.59356">
        <ele>876.5</ele>
        <time>2016-08-14T15:58:44Z</time>
      </trkpt>
      <trkpt lat="44.3488" lon="5.59367">
        <ele>876.1</ele>
        <time>2016-08-14T15:58:51Z</time>
      </trkpt>
      <trkpt lat="44.34873" lon="5.59378">
        <ele>875.5</ele>
        <time>2016-08-14T15:58:58Z</time>
      </trkpt>
      <trkpt lat="44.34867" lon="5.5939">
        <ele>874.9</ele>
        <time>2016-08-14T15:59:05Z</time>
      </trkpt>
      <trkpt lat="44.3486" lon="5.594">
        <ele>874.5</ele>
        <time>2016-08-14T15:59:12Z</time>
      </trkpt>
      <trkpt lat="44.34852" lon="5.59407">
        <ele>874.1</ele>
        <time>2016-08-14T15:59:19Z</time>
      </trkpt>
      <trkpt lat="44.34843" lon="5.59412">
        <ele>873.4</ele>
        <time>2016-08-14T15:59:26Z</time>
      </trkpt>
      <trkpt lat="44.34833" lon="5.59415">
        <ele>872.7</ele>
        <time>2016-08-14T15:59:33Z</time>
      </trkpt>
      <trkpt lat="44.34824" lon="5.59417">
        <ele>872.3</ele>
        <time>2016-08-14T15:59:39Z</time>
      </trkpt>
      <trkpt lat="44.34815" lon="5.59416">
        <ele>871.9</ele>
        <time>2016-08-14T15:59:45Z</time>
      </trkpt>
      <trkpt lat="44.34804" lon="5.59414">
        <ele>871.2</ele>
        <time>2016-08-14T15:59:52Z</time>
      </trkpt>
      <trkpt lat="44.34795" lon="5.59417">
        <ele>870.5</ele>
        <time>2016-08-14T15:59:58Z</time>
      </trkpt>
      <trkpt lat="44.34791" lon="5.5943">
        <ele>870.1</ele>
        <time>2016-08-14T16:00:04Z</time>
      </trkpt>
      <trkpt lat="44.34796" lon="5.59442">
        <ele>869.9</ele>
        <time>2016-08-14T16:00:11Z</time>
      </trkpt>
      <trkpt lat="44.34803" lon="5.59452">
        <ele>869.8</ele>
        <time>2016-08-14T16:00:18Z</time>
      </trkpt>
      <trkpt lat="44.34811" lon="5.5946">
        <ele>869.8</ele>
        <time>2016-08-14T16:00:25Z</time>
      </trkpt>
      <trkpt lat="44.3482" lon="5.59466">
        <ele>869.7</ele>
        <time>2016-08-14T16:00:32Z</time>
      </trkpt>
      <trkpt lat="44.34829" lon="5.59472">
        <ele>869.9</ele>
        <time>2016-08-14T16:00:39Z</time>
      </trkpt>
      <trkpt lat="44.34838" lon="5.59477">
        <ele>870.2</ele>
        <time>2016-08-14T16:00:45Z</time>
      </trkpt>
      <trkpt lat="44.34848" lon="5.59482">
        <ele>870.6</ele>
        <time>2016-08-14T16:00:52Z</time>
      </trkpt>
      <trkpt lat="44.34858" lon="5.59485">
        <ele>871.4</ele>
        <time>2016-08-14T16:00:59Z</time>
      </trkpt>
      <trkpt lat="44.34867" lon="5.59486">
        <ele>871.7</ele>
        <time>2016-08-14T16:01:04Z</time>
      </trkpt>
      <trkpt lat="44.34877" lon="5.59487">
        <ele>872</ele>
        <time>2016-08-14T16:01:10Z</time>
      </trkpt>
      <trkpt lat="44.34887" lon="5.59486">
        <ele>872.4</ele>
        <time>2016-08-14T16:01:16Z</time>
      </trkpt>
      <trkpt lat="44.34897" lon="5.59484">
        <ele>873</ele>
        <time>2016-08-14T16:01:23Z</time>
      </trkpt>
      <trkpt lat="44.34907" lon="5.59482">
        <ele>873.3</ele>
        <time>2016-08-14T16:01:30Z</time>
      </trkpt>
      <trkpt lat="44.34917" lon="5.59483">
        <ele>873.5</ele>
        <time>2016-08-14T16:01:37Z</time>
      </trkpt>
      <trkpt lat="44.34926" lon="5.59482">
        <ele>873.7</ele>
        <time>2016-08-14T16:01:43Z</time>
      </trkpt>
      <trkpt lat="44.34935" lon="5.5948">
        <ele>874</ele>
        <time>2016-08-14T16:01:48Z</time>
      </trkpt>
      <trkpt lat="44.34945" lon="5.59474">
        <ele>874.7</ele>
        <time>2016-08-14T16:01:55Z</time>
      </trkpt>
      <trkpt lat="44.34953" lon="5.59468">
        <ele>875.5</ele>
        <time>2016-08-14T16:02:01Z</time>
      </trkpt>
      <trkpt lat="44.34961" lon="5.59462">
        <ele>876.1</ele>
        <time>2016-08-14T16:02:07Z</time>
      </trkpt>
      <trkpt lat="44.3497" lon="5.59459">
        <ele>876.5</ele>
        <time>2016-08-14T16:02:13Z</time>
      </trkpt>
      <trkpt lat="44.3498" lon="5.59456">
        <ele>877.1</ele>
        <time>2016-08-14T16:02:19Z</time>
      </trkpt>
      <trkpt lat="44.34989" lon="5.59455">
        <ele>877.8</ele>
        <time>2016-08-14T16:02:25Z</time>
      </trkpt>
      <trkpt lat="44.34999" lon="5.59455">
        <ele>878.4</ele>
        <time>2016-08-14T16:02:31Z</time>
      </trkpt>
      <trkpt lat="44.35008" lon="5.59455">
        <ele>879</ele>
        <time>2016-08-14T16:02:37Z</time>
      </trkpt>
      <trkpt lat="44.35017" lon="5.59456">
        <ele>879.5</ele>
        <time>2016-08-14T16:02:43Z</time>
      </trkpt>
      <trkpt lat="44.35026" lon="5.5946">
        <ele>879.9</ele>
        <time>2016-08-14T16:02:50Z</time>
      </trkpt>
      <trkpt lat="44.35034" lon="5.59466">
        <ele>880.3</ele>
        <time>2016-08-14T16:02:56Z</time>
      </trkpt>
      <trkpt lat="44.35042" lon="5.59472">
        <ele>880.9</ele>
        <time>2016-08-14T16:03:02Z</time>
      </trkpt>
      <trkpt lat="44.3505" lon="5.59479">
        <ele>881.5</ele>
        <time>2016-08-14T16:03:08Z</time>
      </trkpt>
      <trkpt lat="44.35058" lon="5.59485">
        <ele>882</ele>
        <time>2016-08-14T16:03:14Z</time>
      </trkpt>
      <trkpt lat="44.35066" lon="5.59494">
        <ele>882.9</ele>
        <time>2016-08-14T16:03:21Z</time>
      </trkpt>
      <trkpt lat="44.35074" lon="5.59502">
        <ele>883.4</ele>
        <time>2016-08-14T16:03:27Z</time>
      </trkpt>
      <trkpt lat="44.3508" lon="5.59511">
        <ele>884</ele>
        <time>2016-08-14T16:03:33Z</time>
      </trkpt>
      <trkpt lat="44.35087" lon="5.59519">
        <ele>884.4</ele>
        <time>2016-08-14T16:03:39Z</time>
      </trkpt>
      <trkpt lat="44.35096" lon="5.59528">
        <ele>884.9</ele>
        <time>2016-08-14T16:03:46Z</time>
      </trkpt>
      <trkpt lat="44.35102" lon="5.59537">
        <ele>885.3</ele>
        <time>2016-08-14T16:03:52Z</time>
      </trkpt>
      <trkpt lat="44.35109" lon="5.59546">
        <ele>885.7</ele>
        <time>2016-08-14T16:03:58Z</time>
      </trkpt>
      <trkpt lat="44.35115" lon="5.59557">
        <ele>886.1</ele>
        <time>2016-08-14T16:04:05Z</time>
      </trkpt>
      <trkpt lat="44.35121" lon="5.59568">
        <ele>886.6</ele>
        <time>2016-08-14T16:04:12Z</time>
      </trkpt>
      <trkpt lat="44.35126" lon="5.5958">
        <ele>886.9</ele>
        <time>2016-08-14T16:04:19Z</time>
      </trkpt>
      <trkpt lat="44.3513" lon="5.59593">
        <ele>886.9</ele>
        <time>2016-08-14T16:04:26Z</time>
      </trkpt>
      <trkpt lat="44.35134" lon="5.59607">
        <ele>886.9</ele>
        <time>2016-08-14T16:04:33Z</time>
      </trkpt>
      <trkpt lat="44.35138" lon="5.5962">
        <ele>886.6</ele>
        <time>2016-08-14T16:04:40Z</time>
      </trkpt>
      <trkpt lat="44.35141" lon="5.59632">
        <ele>886.6</ele>
        <time>2016-08-14T16:04:46Z</time>
      </trkpt>
      <trkpt lat="44.35143" lon="5.59646">
        <ele>886.6</ele>
        <time>2016-08-14T16:04:53Z</time>
      </trkpt>
      <trkpt lat="44.35143" lon="5.59659">
        <ele>886.5</ele>
        <time>2016-08-14T16:05:00Z</time>
      </trkpt>
      <trkpt lat="44.35143" lon="5.59672">
        <ele>886.2</ele>
        <time>2016-08-14T16:05:08Z</time>
      </trkpt>
      <trkpt lat="44.35143" lon="5.59685">
        <ele>885.9</ele>
        <time>2016-08-14T16:05:15Z</time>
      </trkpt>
      <trkpt lat="44.35142" lon="5.59698">
        <ele>885.3</ele>
        <time>2016-08-14T16:05:21Z</time>
      </trkpt>
      <trkpt lat="44.35141" lon="5.59711">
        <ele>884.7</ele>
        <time>2016-08-14T16:05:27Z</time>
      </trkpt>
      <trkpt lat="44.3514" lon="5.59725">
        <ele>884</ele>
        <time>2016-08-14T16:05:34Z</time>
      </trkpt>
      <trkpt lat="44.35139" lon="5.59738">
        <ele>883.4</ele>
        <time>2016-08-14T16:05:40Z</time>
      </trkpt>
      <trkpt lat="44.35141" lon="5.59752">
        <ele>882.9</ele>
        <time>2016-08-14T16:05:47Z</time>
      </trkpt>
      <trkpt lat="44.35142" lon="5.59765">
        <ele>882.3</ele>
        <time>2016-08-14T16:05:54Z</time>
      </trkpt>
      <trkpt lat="44.35145" lon="5.59778">
        <ele>881.5</ele>
        <time>2016-08-14T16:06:02Z</time>
      </trkpt>
      <trkpt lat="44.35154" lon="5.59783">
        <ele>881.3</ele>
        <time>2016-08-14T16:06:11Z</time>
      </trkpt>
      <trkpt lat="44.35161" lon="5.59791">
        <ele>881.2</ele>
        <time>2016-08-14T16:06:18Z</time>
      </trkpt>
      <trkpt lat="44.35166" lon="5.59803">
        <ele>881.1</ele>
        <time>2016-08-14T16:06:25Z</time>
      </trkpt>
      <trkpt lat="44.35172" lon="5.59813">
        <ele>881.5</ele>
        <time>2016-08-14T16:06:31Z</time>
      </trkpt>
      <trkpt lat="44.35179" lon="5.59823">
        <ele>881.8</ele>
        <time>2016-08-14T16:06:38Z</time>
      </trkpt>
      <trkpt lat="44.35187" lon="5.5983">
        <ele>882</ele>
        <time>2016-08-14T16:06:45Z</time>
      </trkpt>
      <trkpt lat="44.35197" lon="5.59832">
        <ele>882.4</ele>
        <time>2016-08-14T16:06:52Z</time>
      </trkpt>
      <trkpt lat="44.35207" lon="5.59836">
        <ele>882.9</ele>
        <time>2016-08-14T16:07:12Z</time>
      </trkpt>
      <trkpt lat="44.35215" lon="5.5984">
        <ele>883.3</ele>
        <time>2016-08-14T16:07:25Z</time>
      </trkpt>
      <trkpt lat="44.35224" lon="5.59841">
        <ele>883.7</ele>
        <time>2016-08-14T16:08:21Z</time>
      </trkpt>
      <trkpt lat="44.35233" lon="5.59847">
        <ele>884.5</ele>
        <time>2016-08-14T16:10:32Z</time>
      </trkpt>
      <trkpt lat="44.3524" lon="5.59854">
        <ele>883.9</ele>
        <time>2016-08-14T16:10:57Z</time>
      </trkpt>
      <trkpt lat="44.35236" lon="5.59866">
        <ele>884.4</ele>
        <time>2016-08-14T16:11:42Z</time>
      </trkpt>
      <trkpt lat="44.35226" lon="5.59865">
        <ele>884.1</ele>
        <time>2016-08-14T16:11:50Z</time>
      </trkpt>
      <trkpt lat="44.35226" lon="5.59879">
        <ele>883.4</ele>
        <time>2016-08-14T16:12:07Z</time>
      </trkpt>
      <trkpt lat="44.35228" lon="5.59891">
        <ele>882.2</ele>
        <time>2016-08-14T16:12:30Z</time>
      </trkpt>
      <trkpt lat="44.35232" lon="5.59903">
        <ele>881.2</ele>
        <time>2016-08-14T16:12:39Z</time>
      </trkpt>
      <trkpt lat="44.35237" lon="5.59914">
        <ele>880</ele>
        <time>2016-08-14T16:12:48Z</time>
      </trkpt>
      <trkpt lat="44.35243" lon="5.59924">
        <ele>878.5</ele>
        <time>2016-08-14T16:12:56Z</time>
      </trkpt>
      <trkpt lat="44.35248" lon="5.59934">
        <ele>877.3</ele>
        <time>2016-08-14T16:13:04Z</time>
      </trkpt>
      <trkpt lat="44.35252" lon="5.59946">
        <ele>876.1</ele>
        <time>2016-08-14T16:13:12Z</time>
      </trkpt>
      <trkpt lat="44.35257" lon="5.59958">
        <ele>875.3</ele>
        <time>2016-08-14T16:13:19Z</time>
      </trkpt>
      <trkpt lat="44.35261" lon="5.59968">
        <ele>874.6</ele>
        <time>2016-08-14T16:13:26Z</time>
      </trkpt>
      <trkpt lat="44.35266" lon="5.59981">
        <ele>873.6</ele>
        <time>2016-08-14T16:13:34Z</time>
      </trkpt>
      <trkpt lat="44.35273" lon="5.59991">
        <ele>872.4</ele>
        <time>2016-08-14T16:13:42Z</time>
      </trkpt>
      <trkpt lat="44.35278" lon="5.60003">
        <ele>871.4</ele>
        <time>2016-08-14T16:13:50Z</time>
      </trkpt>
      <trkpt lat="44.35285" lon="5.60014">
        <ele>870.1</ele>
        <time>2016-08-14T16:13:58Z</time>
      </trkpt>
      <trkpt lat="44.3529" lon="5.60024">
        <ele>869.1</ele>
        <time>2016-08-14T16:14:05Z</time>
      </trkpt>
      <trkpt lat="44.35296" lon="5.60035">
        <ele>867.9</ele>
        <time>2016-08-14T16:14:13Z</time>
      </trkpt>
      <trkpt lat="44.35302" lon="5.60046">
        <ele>866.9</ele>
        <time>2016-08-14T16:14:21Z</time>
      </trkpt>
      <trkpt lat="44.35308" lon="5.60057">
        <ele>865.6</ele>
        <time>2016-08-14T16:14:30Z</time>
      </trkpt>
      <trkpt lat="44.35313" lon="5.60068">
        <ele>863.4</ele>
        <time>2016-08-14T16:14:41Z</time>
      </trkpt>
      <trkpt lat="44.35319" lon="5.60078">
        <ele>862.3</ele>
        <time>2016-08-14T16:14:50Z</time>
      </trkpt>
      <trkpt lat="44.35326" lon="5.60087">
        <ele>861.3</ele>
        <time>2016-08-14T16:14:58Z</time>
      </trkpt>
      <trkpt lat="44.35333" lon="5.60096">
        <ele>860.3</ele>
        <time>2016-08-14T16:15:06Z</time>
      </trkpt>
      <trkpt lat="44.35341" lon="5.60104">
        <ele>858.6</ele>
        <time>2016-08-14T16:15:15Z</time>
      </trkpt>
      <trkpt lat="44.35349" lon="5.60112">
        <ele>857.3</ele>
        <time>2016-08-14T16:15:25Z</time>
      </trkpt>
      <trkpt lat="44.35356" lon="5.60119">
        <ele>856</ele>
        <time>2016-08-14T16:15:33Z</time>
      </trkpt>
      <trkpt lat="44.35364" lon="5.60127">
        <ele>854.5</ele>
        <time>2016-08-14T16:15:42Z</time>
      </trkpt>
      <trkpt lat="44.35373" lon="5.60134">
        <ele>853.4</ele>
        <time>2016-08-14T16:15:50Z</time>
      </trkpt>
      <trkpt lat="44.35381" lon="5.60142">
        <ele>851.8</ele>
        <time>2016-08-14T16:15:59Z</time>
      </trkpt>
      <trkpt lat="44.35388" lon="5.6015">
        <ele>850.3</ele>
        <time>2016-08-14T16:16:07Z</time>
      </trkpt>
      <trkpt lat="44.35397" lon="5.60156">
        <ele>848.8</ele>
        <time>2016-08-14T16:16:16Z</time>
      </trkpt>
      <trkpt lat="44.35405" lon="5.60164">
        <ele>847.7</ele>
        <time>2016-08-14T16:16:25Z</time>
      </trkpt>
      <trkpt lat="44.35412" lon="5.60171">
        <ele>845.6</ele>
        <time>2016-08-14T16:16:37Z</time>
      </trkpt>
      <trkpt lat="44.3542" lon="5.60179">
        <ele>844.4</ele>
        <time>2016-08-14T16:16:46Z</time>
      </trkpt>
      <trkpt lat="44.35428" lon="5.60185">
        <ele>843</ele>
        <time>2016-08-14T16:16:54Z</time>
      </trkpt>
      <trkpt lat="44.35437" lon="5.60193">
        <ele>841.4</ele>
        <time>2016-08-14T16:17:02Z</time>
      </trkpt>
      <trkpt lat="44.35445" lon="5.602">
        <ele>840.2</ele>
        <time>2016-08-14T16:17:10Z</time>
      </trkpt>
      <trkpt lat="44.35453" lon="5.60207">
        <ele>838.9</ele>
        <time>2016-08-14T16:17:18Z</time>
      </trkpt>
      <trkpt lat="44.35462" lon="5.60214">
        <ele>837.7</ele>
        <time>2016-08-14T16:17:26Z</time>
      </trkpt>
      <trkpt lat="44.35471" lon="5.60221">
        <ele>836.3</ele>
        <time>2016-08-14T16:17:34Z</time>
      </trkpt>
      <trkpt lat="44.35478" lon="5.60229">
        <ele>835</ele>
        <time>2016-08-14T16:17:41Z</time>
      </trkpt>
      <trkpt lat="44.35486" lon="5.60236">
        <ele>833.7</ele>
        <time>2016-08-14T16:17:49Z</time>
      </trkpt>
      <trkpt lat="44.35495" lon="5.60243">
        <ele>831.9</ele>
        <time>2016-08-14T16:17:59Z</time>
      </trkpt>
      <trkpt lat="44.35502" lon="5.6025">
        <ele>830.4</ele>
        <time>2016-08-14T16:18:07Z</time>
      </trkpt>
      <trkpt lat="44.35509" lon="5.60259">
        <ele>828.8</ele>
        <time>2016-08-14T16:18:16Z</time>
      </trkpt>
      <trkpt lat="44.35516" lon="5.60268">
        <ele>827.7</ele>
        <time>2016-08-14T16:18:24Z</time>
      </trkpt>
      <trkpt lat="44.35524" lon="5.60276">
        <ele>826.4</ele>
        <time>2016-08-14T16:18:32Z</time>
      </trkpt>
      <trkpt lat="44.35532" lon="5.60284">
        <ele>824.9</ele>
        <time>2016-08-14T16:18:40Z</time>
      </trkpt>
      <trkpt lat="44.3554" lon="5.6029">
        <ele>823.3</ele>
        <time>2016-08-14T16:18:49Z</time>
      </trkpt>
      <trkpt lat="44.35549" lon="5.60295">
        <ele>821.9</ele>
        <time>2016-08-14T16:18:58Z</time>
      </trkpt>
      <trkpt lat="44.35559" lon="5.60296">
        <ele>820.5</ele>
        <time>2016-08-14T16:19:08Z</time>
      </trkpt>
      <trkpt lat="44.35567" lon="5.60302">
        <ele>819.4</ele>
        <time>2016-08-14T16:19:15Z</time>
      </trkpt>
      <trkpt lat="44.35576" lon="5.60306">
        <ele>817.8</ele>
        <time>2016-08-14T16:19:23Z</time>
      </trkpt>
      <trkpt lat="44.35586" lon="5.60309">
        <ele>816.5</ele>
        <time>2016-08-14T16:19:31Z</time>
      </trkpt>
      <trkpt lat="44.35595" lon="5.60311">
        <ele>815</ele>
        <time>2016-08-14T16:19:39Z</time>
      </trkpt>
      <trkpt lat="44.35604" lon="5.60314">
        <ele>813.7</ele>
        <time>2016-08-14T16:19:47Z</time>
      </trkpt>
      <trkpt lat="44.35613" lon="5.60318">
        <ele>812.2</ele>
        <time>2016-08-14T16:19:55Z</time>
      </trkpt>
      <trkpt lat="44.35622" lon="5.60322">
        <ele>811</ele>
        <time>2016-08-14T16:20:02Z</time>
      </trkpt>
      <trkpt lat="44.35632" lon="5.60326">
        <ele>810</ele>
        <time>2016-08-14T16:20:10Z</time>
      </trkpt>
      <trkpt lat="44.35641" lon="5.60331">
        <ele>808.5</ele>
        <time>2016-08-14T16:20:18Z</time>
      </trkpt>
      <trkpt lat="44.3565" lon="5.60336">
        <ele>807.1</ele>
        <time>2016-08-14T16:20:26Z</time>
      </trkpt>
      <trkpt lat="44.35658" lon="5.60343">
        <ele>805.8</ele>
        <time>2016-08-14T16:20:34Z</time>
      </trkpt>
      <trkpt lat="44.35667" lon="5.60347">
        <ele>804.7</ele>
        <time>2016-08-14T16:20:41Z</time>
      </trkpt>
      <trkpt lat="44.35675" lon="5.60353">
        <ele>804.1</ele>
        <time>2016-08-14T16:20:48Z</time>
      </trkpt>
      <trkpt lat="44.35684" lon="5.60358">
        <ele>803.4</ele>
        <time>2016-08-14T16:20:55Z</time>
      </trkpt>
      <trkpt lat="44.35694" lon="5.60362">
        <ele>802.3</ele>
        <time>2016-08-14T16:21:03Z</time>
      </trkpt>
      <trkpt lat="44.35703" lon="5.60365">
        <ele>801.3</ele>
        <time>2016-08-14T16:21:10Z</time>
      </trkpt>
      <trkpt lat="44.35712" lon="5.60367">
        <ele>800.2</ele>
        <time>2016-08-14T16:21:17Z</time>
      </trkpt>
      <trkpt lat="44.35722" lon="5.60369">
        <ele>799</ele>
        <time>2016-08-14T16:21:25Z</time>
      </trkpt>
      <trkpt lat="44.35731" lon="5.60371">
        <ele>798.1</ele>
        <time>2016-08-14T16:21:32Z</time>
      </trkpt>
      <trkpt lat="44.35741" lon="5.60374">
        <ele>796.7</ele>
        <time>2016-08-14T16:21:39Z</time>
      </trkpt>
      <trkpt lat="44.3575" lon="5.60379">
        <ele>795.7</ele>
        <time>2016-08-14T16:21:47Z</time>
      </trkpt>
      <trkpt lat="44.35759" lon="5.60383">
        <ele>794.9</ele>
        <time>2016-08-14T16:21:54Z</time>
      </trkpt>
      <trkpt lat="44.35767" lon="5.60389">
        <ele>794.3</ele>
        <time>2016-08-14T16:22:02Z</time>
      </trkpt>
      <trkpt lat="44.35775" lon="5.60395">
        <ele>793.4</ele>
        <time>2016-08-14T16:22:09Z</time>
      </trkpt>
      <trkpt lat="44.35783" lon="5.60402">
        <ele>792.4</ele>
        <time>2016-08-14T16:22:16Z</time>
      </trkpt>
      <trkpt lat="44.35791" lon="5.6041">
        <ele>791.6</ele>
        <time>2016-08-14T16:22:23Z</time>
      </trkpt>
      <trkpt lat="44.35798" lon="5.60418">
        <ele>790.8</ele>
        <time>2016-08-14T16:22:30Z</time>
      </trkpt>
      <trkpt lat="44.35805" lon="5.60427">
        <ele>790</ele>
        <time>2016-08-14T16:22:38Z</time>
      </trkpt>
      <trkpt lat="44.35814" lon="5.60433">
        <ele>789.1</ele>
        <time>2016-08-14T16:22:46Z</time>
      </trkpt>
      <trkpt lat="44.35823" lon="5.60435">
        <ele>788.5</ele>
        <time>2016-08-14T16:22:53Z</time>
      </trkpt>
      <trkpt lat="44.35832" lon="5.60438">
        <ele>788</ele>
        <time>2016-08-14T16:23:00Z</time>
      </trkpt>
      <trkpt lat="44.35842" lon="5.60441">
        <ele>787.5</ele>
        <time>2016-08-14T16:23:07Z</time>
      </trkpt>
      <trkpt lat="44.3585" lon="5.60447">
        <ele>786.9</ele>
        <time>2016-08-14T16:23:14Z</time>
      </trkpt>
      <trkpt lat="44.3586" lon="5.60452">
        <ele>786.4</ele>
        <time>2016-08-14T16:23:22Z</time>
      </trkpt>
      <trkpt lat="44.35868" lon="5.60458">
        <ele>786</ele>
        <time>2016-08-14T16:23:28Z</time>
      </trkpt>
      <trkpt lat="44.35877" lon="5.60464">
        <ele>785.6</ele>
        <time>2016-08-14T16:23:35Z</time>
      </trkpt>
      <trkpt lat="44.35886" lon="5.60468">
        <ele>785.1</ele>
        <time>2016-08-14T16:23:42Z</time>
      </trkpt>
      <trkpt lat="44.35896" lon="5.60472">
        <ele>784.8</ele>
        <time>2016-08-14T16:23:49Z</time>
      </trkpt>
      <trkpt lat="44.35906" lon="5.60475">
        <ele>784.8</ele>
        <time>2016-08-14T16:23:56Z</time>
      </trkpt>
      <trkpt lat="44.35916" lon="5.60478">
        <ele>784.9</ele>
        <time>2016-08-14T16:24:03Z</time>
      </trkpt>
      <trkpt lat="44.35925" lon="5.60485">
        <ele>784.6</ele>
        <time>2016-08-14T16:24:11Z</time>
      </trkpt>
      <trkpt lat="44.35933" lon="5.60491">
        <ele>784.3</ele>
        <time>2016-08-14T16:24:18Z</time>
      </trkpt>
      <trkpt lat="44.35942" lon="5.60497">
        <ele>784.1</ele>
        <time>2016-08-14T16:24:24Z</time>
      </trkpt>
      <trkpt lat="44.3595" lon="5.60504">
        <ele>783.7</ele>
        <time>2016-08-14T16:24:31Z</time>
      </trkpt>
      <trkpt lat="44.35959" lon="5.6051">
        <ele>783.2</ele>
        <time>2016-08-14T16:24:38Z</time>
      </trkpt>
      <trkpt lat="44.35968" lon="5.60515">
        <ele>783.2</ele>
        <time>2016-08-14T16:24:45Z</time>
      </trkpt>
      <trkpt lat="44.35977" lon="5.60519">
        <ele>783.3</ele>
        <time>2016-08-14T16:24:54Z</time>
      </trkpt>
      <trkpt lat="44.35986" lon="5.60522">
        <ele>783.3</ele>
        <time>2016-08-14T16:25:05Z</time>
      </trkpt>
      <trkpt lat="44.35993" lon="5.60532">
        <ele>783.4</ele>
        <time>2016-08-14T16:25:50Z</time>
      </trkpt>
      <trkpt lat="44.35993" lon="5.60518">
        <ele>784</ele>
        <time>2016-08-14T16:27:13Z</time>
      </trkpt>
      <trkpt lat="44.35998" lon="5.60507">
        <ele>783.8</ele>
        <time>2016-08-14T16:28:14Z</time>
      </trkpt>
      <trkpt lat="44.35993" lon="5.60519">
        <ele>783.9</ele>
        <time>2016-08-14T16:29:10Z</time>
      </trkpt>
      <trkpt lat="44.35997" lon="5.60531">
        <ele>783.9</ele>
        <time>2016-08-14T16:30:18Z</time>
      </trkpt>
      <trkpt lat="44.36006" lon="5.60532">
        <ele>784</ele>
        <time>2016-08-14T16:30:27Z</time>
      </trkpt>
      <trkpt lat="44.36016" lon="5.60534">
        <ele>784.2</ele>
        <time>2016-08-14T16:30:41Z</time>
      </trkpt>
      <trkpt lat="44.36025" lon="5.60537">
        <ele>784.1</ele>
        <time>2016-08-14T16:30:48Z</time>
      </trkpt>
      <trkpt lat="44.36034" lon="5.60539">
        <ele>784.1</ele>
        <time>2016-08-14T16:30:55Z</time>
      </trkpt>
      <trkpt lat="44.36044" lon="5.60541">
        <ele>784.1</ele>
        <time>2016-08-14T16:31:02Z</time>
      </trkpt>
      <trkpt lat="44.36053" lon="5.60545">
        <ele>784.2</ele>
        <time>2016-08-14T16:31:09Z</time>
      </trkpt>
      <trkpt lat="44.36062" lon="5.60549">
        <ele>784.8</ele>
        <time>2016-08-14T16:31:16Z</time>
      </trkpt>
      <trkpt lat="44.36071" lon="5.60553">
        <ele>785.1</ele>
        <time>2016-08-14T16:31:23Z</time>
      </trkpt>
      <trkpt lat="44.36079" lon="5.60558">
        <ele>785.3</ele>
        <time>2016-08-14T16:31:30Z</time>
      </trkpt>
      <trkpt lat="44.36087" lon="5.60564">
        <ele>785.5</ele>
        <time>2016-08-14T16:31:37Z</time>
      </trkpt>
      <trkpt lat="44.36096" lon="5.60569">
        <ele>785.8</ele>
        <time>2016-08-14T16:31:44Z</time>
      </trkpt>
      <trkpt lat="44.36104" lon="5.60575">
        <ele>785.9</ele>
        <time>2016-08-14T16:31:51Z</time>
      </trkpt>
      <trkpt lat="44.36113" lon="5.60581">
        <ele>786.1</ele>
        <time>2016-08-14T16:31:58Z</time>
      </trkpt>
      <trkpt lat="44.36122" lon="5.60587">
        <ele>786.2</ele>
        <time>2016-08-14T16:32:05Z</time>
      </trkpt>
      <trkpt lat="44.36131" lon="5.60592">
        <ele>786.7</ele>
        <time>2016-08-14T16:32:12Z</time>
      </trkpt>
      <trkpt lat="44.3614" lon="5.60595">
        <ele>787.1</ele>
        <time>2016-08-14T16:32:19Z</time>
      </trkpt>
      <trkpt lat="44.3615" lon="5.60598">
        <ele>787.4</ele>
        <time>2016-08-14T16:32:26Z</time>
      </trkpt>
      <trkpt lat="44.3616" lon="5.60601">
        <ele>787.6</ele>
        <time>2016-08-14T16:32:32Z</time>
      </trkpt>
      <trkpt lat="44.36169" lon="5.60606">
        <ele>787.7</ele>
        <time>2016-08-14T16:32:39Z</time>
      </trkpt>
      <trkpt lat="44.36178" lon="5.60612">
        <ele>787.9</ele>
        <time>2016-08-14T16:32:46Z</time>
      </trkpt>
      <trkpt lat="44.36187" lon="5.60619">
        <ele>788.6</ele>
        <time>2016-08-14T16:32:54Z</time>
      </trkpt>
      <trkpt lat="44.36196" lon="5.60626">
        <ele>789</ele>
        <time>2016-08-14T16:33:01Z</time>
      </trkpt>
      <trkpt lat="44.36203" lon="5.60636">
        <ele>789.6</ele>
        <time>2016-08-14T16:33:09Z</time>
      </trkpt>
      <trkpt lat="44.36209" lon="5.60646">
        <ele>790.1</ele>
        <time>2016-08-14T16:33:17Z</time>
      </trkpt>
      <trkpt lat="44.36216" lon="5.60654">
        <ele>790.5</ele>
        <time>2016-08-14T16:33:24Z</time>
      </trkpt>
      <trkpt lat="44.36224" lon="5.60662">
        <ele>791</ele>
        <time>2016-08-14T16:33:31Z</time>
      </trkpt>
      <trkpt lat="44.36231" lon="5.60672">
        <ele>791.3</ele>
        <time>2016-08-14T16:33:38Z</time>
      </trkpt>
      <trkpt lat="44.36238" lon="5.60681">
        <ele>791.7</ele>
        <time>2016-08-14T16:33:44Z</time>
      </trkpt>
      <trkpt lat="44.36245" lon="5.6069">
        <ele>792.2</ele>
        <time>2016-08-14T16:33:50Z</time>
      </trkpt>
      <trkpt lat="44.36253" lon="5.60698">
        <ele>792.5</ele>
        <time>2016-08-14T16:33:56Z</time>
      </trkpt>
      <trkpt lat="44.36261" lon="5.60706">
        <ele>792.7</ele>
        <time>2016-08-14T16:34:02Z</time>
      </trkpt>
      <trkpt lat="44.3627" lon="5.60713">
        <ele>792.9</ele>
        <time>2016-08-14T16:34:08Z</time>
      </trkpt>
      <trkpt lat="44.36278" lon="5.6072">
        <ele>792.9</ele>
        <time>2016-08-14T16:34:14Z</time>
      </trkpt>
      <trkpt lat="44.36285" lon="5.60729">
        <ele>793</ele>
        <time>2016-08-14T16:34:21Z</time>
      </trkpt>
      <trkpt lat="44.36292" lon="5.60737">
        <ele>793.3</ele>
        <time>2016-08-14T16:34:27Z</time>
      </trkpt>
      <trkpt lat="44.363" lon="5.60746">
        <ele>793.5</ele>
        <time>2016-08-14T16:34:34Z</time>
      </trkpt>
      <trkpt lat="44.36307" lon="5.60754">
        <ele>793.9</ele>
        <time>2016-08-14T16:34:40Z</time>
      </trkpt>
      <trkpt lat="44.36314" lon="5.60764">
        <ele>794.1</ele>
        <time>2016-08-14T16:34:47Z</time>
      </trkpt>
      <trkpt lat="44.36321" lon="5.60775">
        <ele>794.3</ele>
        <time>2016-08-14T16:34:54Z</time>
      </trkpt>
      <trkpt lat="44.36326" lon="5.60785">
        <ele>794.4</ele>
        <time>2016-08-14T16:35:00Z</time>
      </trkpt>
      <trkpt lat="44.36332" lon="5.60794">
        <ele>794.5</ele>
        <time>2016-08-14T16:35:06Z</time>
      </trkpt>
      <trkpt lat="44.36338" lon="5.60804">
        <ele>794.5</ele>
        <time>2016-08-14T16:35:12Z</time>
      </trkpt>
      <trkpt lat="44.36344" lon="5.60815">
        <ele>794.8</ele>
        <time>2016-08-14T16:35:18Z</time>
      </trkpt>
      <trkpt lat="44.36349" lon="5.60825">
        <ele>795.3</ele>
        <time>2016-08-14T16:35:24Z</time>
      </trkpt>
      <trkpt lat="44.36356" lon="5.60834">
        <ele>795.5</ele>
        <time>2016-08-14T16:35:30Z</time>
      </trkpt>
      <trkpt lat="44.36362" lon="5.60845">
        <ele>795.8</ele>
        <time>2016-08-14T16:35:37Z</time>
      </trkpt>
      <trkpt lat="44.36369" lon="5.60856">
        <ele>796.2</ele>
        <time>2016-08-14T16:35:44Z</time>
      </trkpt>
      <trkpt lat="44.36376" lon="5.60866">
        <ele>796.5</ele>
        <time>2016-08-14T16:35:51Z</time>
      </trkpt>
      <trkpt lat="44.36382" lon="5.60877">
        <ele>796.8</ele>
        <time>2016-08-14T16:35:59Z</time>
      </trkpt>
      <trkpt lat="44.3639" lon="5.60886">
        <ele>797.2</ele>
        <time>2016-08-14T16:36:06Z</time>
      </trkpt>
      <trkpt lat="44.36397" lon="5.60894">
        <ele>797.6</ele>
        <time>2016-08-14T16:36:17Z</time>
      </trkpt>
      <trkpt lat="44.36404" lon="5.60903">
        <ele>798</ele>
        <time>2016-08-14T16:36:24Z</time>
      </trkpt>
      <trkpt lat="44.36411" lon="5.60914">
        <ele>798.5</ele>
        <time>2016-08-14T16:36:31Z</time>
      </trkpt>
      <trkpt lat="44.36418" lon="5.60924">
        <ele>798.9</ele>
        <time>2016-08-14T16:36:38Z</time>
      </trkpt>
      <trkpt lat="44.36424" lon="5.60935">
        <ele>799.7</ele>
        <time>2016-08-14T16:36:45Z</time>
      </trkpt>
      <trkpt lat="44.36429" lon="5.60946">
        <ele>800.4</ele>
        <time>2016-08-14T16:36:52Z</time>
      </trkpt>
      <trkpt lat="44.36434" lon="5.60958">
        <ele>800.8</ele>
        <time>2016-08-14T16:36:59Z</time>
      </trkpt>
      <trkpt lat="44.36441" lon="5.60969">
        <ele>801</ele>
        <time>2016-08-14T16:37:06Z</time>
      </trkpt>
      <trkpt lat="44.36448" lon="5.60979">
        <ele>801.2</ele>
        <time>2016-08-14T16:37:13Z</time>
      </trkpt>
      <trkpt lat="44.36454" lon="5.6099">
        <ele>801.8</ele>
        <time>2016-08-14T16:37:20Z</time>
      </trkpt>
      <trkpt lat="44.3646" lon="5.61002">
        <ele>802.3</ele>
        <time>2016-08-14T16:37:27Z</time>
      </trkpt>
      <trkpt lat="44.36465" lon="5.61014">
        <ele>802.9</ele>
        <time>2016-08-14T16:37:34Z</time>
      </trkpt>
      <trkpt lat="44.3647" lon="5.61027">
        <ele>803.5</ele>
        <time>2016-08-14T16:37:41Z</time>
      </trkpt>
      <trkpt lat="44.36474" lon="5.61039">
        <ele>803.9</ele>
        <time>2016-08-14T16:37:48Z</time>
      </trkpt>
      <trkpt lat="44.36479" lon="5.61051">
        <ele>804.5</ele>
        <time>2016-08-14T16:37:54Z</time>
      </trkpt>
      <trkpt lat="44.36483" lon="5.61062">
        <ele>805.2</ele>
        <time>2016-08-14T16:38:00Z</time>
      </trkpt>
      <trkpt lat="44.36488" lon="5.61073">
        <ele>806</ele>
        <time>2016-08-14T16:38:06Z</time>
      </trkpt>
      <trkpt lat="44.36493" lon="5.61084">
        <ele>806.5</ele>
        <time>2016-08-14T16:38:12Z</time>
      </trkpt>
      <trkpt lat="44.36498" lon="5.61097">
        <ele>807</ele>
        <time>2016-08-14T16:38:19Z</time>
      </trkpt>
      <trkpt lat="44.36503" lon="5.61109">
        <ele>807.2</ele>
        <time>2016-08-14T16:38:26Z</time>
      </trkpt>
      <trkpt lat="44.36508" lon="5.61122">
        <ele>807.4</ele>
        <time>2016-08-14T16:38:33Z</time>
      </trkpt>
      <trkpt lat="44.36514" lon="5.61134">
        <ele>807.7</ele>
        <time>2016-08-14T16:38:40Z</time>
      </trkpt>
      <trkpt lat="44.3652" lon="5.61145">
        <ele>808.1</ele>
        <time>2016-08-14T16:38:47Z</time>
      </trkpt>
      <trkpt lat="44.36527" lon="5.61154">
        <ele>808.4</ele>
        <time>2016-08-14T16:38:53Z</time>
      </trkpt>
      <trkpt lat="44.36534" lon="5.61163">
        <ele>808.7</ele>
        <time>2016-08-14T16:39:00Z</time>
      </trkpt>
      <trkpt lat="44.36543" lon="5.6117">
        <ele>808.9</ele>
        <time>2016-08-14T16:39:07Z</time>
      </trkpt>
      <trkpt lat="44.36551" lon="5.61177">
        <ele>809.4</ele>
        <time>2016-08-14T16:39:14Z</time>
      </trkpt>
      <trkpt lat="44.36552" lon="5.6119">
        <ele>810.1</ele>
        <time>2016-08-14T16:39:25Z</time>
      </trkpt>
      <trkpt lat="44.36555" lon="5.61204">
        <ele>810.1</ele>
        <time>2016-08-14T16:39:39Z</time>
      </trkpt>
      <trkpt lat="44.36561" lon="5.61215">
        <ele>810.2</ele>
        <time>2016-08-14T16:39:48Z</time>
      </trkpt>
      <trkpt lat="44.3657" lon="5.61221">
        <ele>810.3</ele>
        <time>2016-08-14T16:39:56Z</time>
      </trkpt>
      <trkpt lat="44.36578" lon="5.61227">
        <ele>810.8</ele>
        <time>2016-08-14T16:40:03Z</time>
      </trkpt>
      <trkpt lat="44.36587" lon="5.61231">
        <ele>811.2</ele>
        <time>2016-08-14T16:40:11Z</time>
      </trkpt>
      <trkpt lat="44.36596" lon="5.61236">
        <ele>811.5</ele>
        <time>2016-08-14T16:40:18Z</time>
      </trkpt>
      <trkpt lat="44.36604" lon="5.61242">
        <ele>811.8</ele>
        <time>2016-08-14T16:40:25Z</time>
      </trkpt>
      <trkpt lat="44.36613" lon="5.61248">
        <ele>812.2</ele>
        <time>2016-08-14T16:40:32Z</time>
      </trkpt>
      <trkpt lat="44.36621" lon="5.61253">
        <ele>812.5</ele>
        <time>2016-08-14T16:40:39Z</time>
      </trkpt>
      <trkpt lat="44.3663" lon="5.61259">
        <ele>813.1</ele>
        <time>2016-08-14T16:40:47Z</time>
      </trkpt>
      <trkpt lat="44.36638" lon="5.61266">
        <ele>813.9</ele>
        <time>2016-08-14T16:40:55Z</time>
      </trkpt>
      <trkpt lat="44.36646" lon="5.61274">
        <ele>815</ele>
        <time>2016-08-14T16:41:03Z</time>
      </trkpt>
      <trkpt lat="44.36654" lon="5.61282">
        <ele>815.9</ele>
        <time>2016-08-14T16:41:10Z</time>
      </trkpt>
      <trkpt lat="44.36661" lon="5.61291">
        <ele>817.1</ele>
        <time>2016-08-14T16:41:17Z</time>
      </trkpt>
      <trkpt lat="44.36669" lon="5.61298">
        <ele>818.6</ele>
        <time>2016-08-14T16:41:25Z</time>
      </trkpt>
      <trkpt lat="44.36677" lon="5.61304">
        <ele>819.8</ele>
        <time>2016-08-14T16:41:33Z</time>
      </trkpt>
      <trkpt lat="44.36685" lon="5.61313">
        <ele>820.6</ele>
        <time>2016-08-14T16:41:41Z</time>
      </trkpt>
      <trkpt lat="44.36693" lon="5.61322">
        <ele>821.7</ele>
        <time>2016-08-14T16:41:49Z</time>
      </trkpt>
      <trkpt lat="44.367" lon="5.61331">
        <ele>823.3</ele>
        <time>2016-08-14T16:41:57Z</time>
      </trkpt>
      <trkpt lat="44.36706" lon="5.61342">
        <ele>824.3</ele>
        <time>2016-08-14T16:42:04Z</time>
      </trkpt>
      <trkpt lat="44.36712" lon="5.61352">
        <ele>825.6</ele>
        <time>2016-08-14T16:42:11Z</time>
      </trkpt>
      <trkpt lat="44.36718" lon="5.61363">
        <ele>827.2</ele>
        <time>2016-08-14T16:42:18Z</time>
      </trkpt>
      <trkpt lat="44.36723" lon="5.61374">
        <ele>828.8</ele>
        <time>2016-08-14T16:42:25Z</time>
      </trkpt>
      <trkpt lat="44.36726" lon="5.61387">
        <ele>830.2</ele>
        <time>2016-08-14T16:42:32Z</time>
      </trkpt>
      <trkpt lat="44.36729" lon="5.61399">
        <ele>831.4</ele>
        <time>2016-08-14T16:42:39Z</time>
      </trkpt>
      <trkpt lat="44.3673" lon="5.61413">
        <ele>832.9</ele>
        <time>2016-08-14T16:42:47Z</time>
      </trkpt>
      <trkpt lat="44.3673" lon="5.61426">
        <ele>834.5</ele>
        <time>2016-08-14T16:42:55Z</time>
      </trkpt>
      <trkpt lat="44.36731" lon="5.61439">
        <ele>835.9</ele>
        <time>2016-08-14T16:43:03Z</time>
      </trkpt>
      <trkpt lat="44.36732" lon="5.61452">
        <ele>837.3</ele>
        <time>2016-08-14T16:43:11Z</time>
      </trkpt>
      <trkpt lat="44.36735" lon="5.61465">
        <ele>838.9</ele>
        <time>2016-08-14T16:43:20Z</time>
      </trkpt>
      <trkpt lat="44.36738" lon="5.61479">
        <ele>840.4</ele>
        <time>2016-08-14T16:43:28Z</time>
      </trkpt>
      <trkpt lat="44.36743" lon="5.61492">
        <ele>841.4</ele>
        <time>2016-08-14T16:43:35Z</time>
      </trkpt>
      <trkpt lat="44.36749" lon="5.61503">
        <ele>842.3</ele>
        <time>2016-08-14T16:43:42Z</time>
      </trkpt>
      <trkpt lat="44.36756" lon="5.61514">
        <ele>843.3</ele>
        <time>2016-08-14T16:43:49Z</time>
      </trkpt>
      <trkpt lat="44.36763" lon="5.61525">
        <ele>844.7</ele>
        <time>2016-08-14T16:43:58Z</time>
      </trkpt>
      <trkpt lat="44.3677" lon="5.61534">
        <ele>845.4</ele>
        <time>2016-08-14T16:44:05Z</time>
      </trkpt>
      <trkpt lat="44.36778" lon="5.61543">
        <ele>846.2</ele>
        <time>2016-08-14T16:44:12Z</time>
      </trkpt>
      <trkpt lat="44.36786" lon="5.61553">
        <ele>847.2</ele>
        <time>2016-08-14T16:44:19Z</time>
      </trkpt>
      <trkpt lat="44.36792" lon="5.61563">
        <ele>848.3</ele>
        <time>2016-08-14T16:44:26Z</time>
      </trkpt>
      <trkpt lat="44.36799" lon="5.61572">
        <ele>849.2</ele>
        <time>2016-08-14T16:44:33Z</time>
      </trkpt>
      <trkpt lat="44.36807" lon="5.61581">
        <ele>850.9</ele>
        <time>2016-08-14T16:44:41Z</time>
      </trkpt>
      <trkpt lat="44.36814" lon="5.61589">
        <ele>852.1</ele>
        <time>2016-08-14T16:44:48Z</time>
      </trkpt>
      <trkpt lat="44.36822" lon="5.61599">
        <ele>853.5</ele>
        <time>2016-08-14T16:44:56Z</time>
      </trkpt>
      <trkpt lat="44.3683" lon="5.61608">
        <ele>855.2</ele>
        <time>2016-08-14T16:45:04Z</time>
      </trkpt>
      <trkpt lat="44.36838" lon="5.61617">
        <ele>856.7</ele>
        <time>2016-08-14T16:45:12Z</time>
      </trkpt>
      <trkpt lat="44.36845" lon="5.61624">
        <ele>857.6</ele>
        <time>2016-08-14T16:45:19Z</time>
      </trkpt>
      <trkpt lat="44.36854" lon="5.6163">
        <ele>858.8</ele>
        <time>2016-08-14T16:45:26Z</time>
      </trkpt>
      <trkpt lat="44.36862" lon="5.61636">
        <ele>859.7</ele>
        <time>2016-08-14T16:45:33Z</time>
      </trkpt>
      <trkpt lat="44.36872" lon="5.6164">
        <ele>860.7</ele>
        <time>2016-08-14T16:45:40Z</time>
      </trkpt>
      <trkpt lat="44.36881" lon="5.61643">
        <ele>861.3</ele>
        <time>2016-08-14T16:45:47Z</time>
      </trkpt>
      <trkpt lat="44.3689" lon="5.61645">
        <ele>861.9</ele>
        <time>2016-08-14T16:45:54Z</time>
      </trkpt>
      <trkpt lat="44.369" lon="5.61646">
        <ele>863</ele>
        <time>2016-08-14T16:46:01Z</time>
      </trkpt>
      <trkpt lat="44.36909" lon="5.61644">
        <ele>863.7</ele>
        <time>2016-08-14T16:46:08Z</time>
      </trkpt>
      <trkpt lat="44.36918" lon="5.61642">
        <ele>864.1</ele>
        <time>2016-08-14T16:46:15Z</time>
      </trkpt>
      <trkpt lat="44.36927" lon="5.6164">
        <ele>864.6</ele>
        <time>2016-08-14T16:46:22Z</time>
      </trkpt>
      <trkpt lat="44.36937" lon="5.61639">
        <ele>865.5</ele>
        <time>2016-08-14T16:46:29Z</time>
      </trkpt>
      <trkpt lat="44.36947" lon="5.61638">
        <ele>866.1</ele>
        <time>2016-08-14T16:46:36Z</time>
      </trkpt>
      <trkpt lat="44.36957" lon="5.61639">
        <ele>866.7</ele>
        <time>2016-08-14T16:46:43Z</time>
      </trkpt>
      <trkpt lat="44.36966" lon="5.61639">
        <ele>867</ele>
        <time>2016-08-14T16:46:50Z</time>
      </trkpt>
      <trkpt lat="44.36976" lon="5.61639">
        <ele>867.3</ele>
        <time>2016-08-14T16:46:57Z</time>
      </trkpt>
      <trkpt lat="44.36985" lon="5.61639">
        <ele>867.5</ele>
        <time>2016-08-14T16:47:03Z</time>
      </trkpt>
      <trkpt lat="44.36995" lon="5.61639">
        <ele>867.8</ele>
        <time>2016-08-14T16:47:09Z</time>
      </trkpt>
      <trkpt lat="44.37004" lon="5.6164">
        <ele>868.1</ele>
        <time>2016-08-14T16:47:15Z</time>
      </trkpt>
      <trkpt lat="44.37013" lon="5.61639">
        <ele>868.5</ele>
        <time>2016-08-14T16:47:21Z</time>
      </trkpt>
      <trkpt lat="44.37023" lon="5.6164">
        <ele>869</ele>
        <time>2016-08-14T16:47:27Z</time>
      </trkpt>
      <trkpt lat="44.37032" lon="5.61639">
        <ele>869.7</ele>
        <time>2016-08-14T16:47:33Z</time>
      </trkpt>
      <trkpt lat="44.37041" lon="5.61639">
        <ele>870.1</ele>
        <time>2016-08-14T16:47:40Z</time>
      </trkpt>
      <trkpt lat="44.37052" lon="5.61641">
        <ele>871</ele>
        <time>2016-08-14T16:47:48Z</time>
      </trkpt>
      <trkpt lat="44.37062" lon="5.61641">
        <ele>872</ele>
        <time>2016-08-14T16:47:54Z</time>
      </trkpt>
      <trkpt lat="44.37072" lon="5.61639">
        <ele>872.7</ele>
        <time>2016-08-14T16:48:01Z</time>
      </trkpt>
      <trkpt lat="44.37083" lon="5.61636">
        <ele>873.2</ele>
        <time>2016-08-14T16:48:08Z</time>
      </trkpt>
      <trkpt lat="44.37092" lon="5.61633">
        <ele>873.6</ele>
        <time>2016-08-14T16:48:14Z</time>
      </trkpt>
      <trkpt lat="44.37102" lon="5.61631">
        <ele>874.2</ele>
        <time>2016-08-14T16:48:20Z</time>
      </trkpt>
      <trkpt lat="44.37112" lon="5.61628">
        <ele>874.7</ele>
        <time>2016-08-14T16:48:26Z</time>
      </trkpt>
      <trkpt lat="44.37121" lon="5.61626">
        <ele>875.6</ele>
        <time>2016-08-14T16:48:32Z</time>
      </trkpt>
      <trkpt lat="44.37131" lon="5.61625">
        <ele>876.5</ele>
        <time>2016-08-14T16:48:39Z</time>
      </trkpt>
      <trkpt lat="44.37141" lon="5.61623">
        <ele>877.2</ele>
        <time>2016-08-14T16:48:46Z</time>
      </trkpt>
      <trkpt lat="44.37151" lon="5.61623">
        <ele>878.1</ele>
        <time>2016-08-14T16:48:52Z</time>
      </trkpt>
      <trkpt lat="44.3716" lon="5.61624">
        <ele>879</ele>
        <time>2016-08-14T16:48:58Z</time>
      </trkpt>
      <trkpt lat="44.3717" lon="5.61626">
        <ele>880.3</ele>
        <time>2016-08-14T16:49:05Z</time>
      </trkpt>
      <trkpt lat="44.3718" lon="5.61623">
        <ele>881.6</ele>
        <time>2016-08-14T16:49:12Z</time>
      </trkpt>
      <trkpt lat="44.37185" lon="5.61613">
        <ele>882.8</ele>
        <time>2016-08-14T16:49:18Z</time>
      </trkpt>
      <trkpt lat="44.37193" lon="5.61607">
        <ele>883.9</ele>
        <time>2016-08-14T16:49:24Z</time>
      </trkpt>
      <trkpt lat="44.37202" lon="5.61601">
        <ele>885.1</ele>
        <time>2016-08-14T16:49:31Z</time>
      </trkpt>
      <trkpt lat="44.37212" lon="5.61596">
        <ele>886.4</ele>
        <time>2016-08-14T16:49:38Z</time>
      </trkpt>
      <trkpt lat="44.37221" lon="5.61591">
        <ele>887.7</ele>
        <time>2016-08-14T16:49:44Z</time>
      </trkpt>
      <trkpt lat="44.3723" lon="5.61587">
        <ele>888.5</ele>
        <time>2016-08-14T16:49:49Z</time>
      </trkpt>
      <trkpt lat="44.3724" lon="5.61582">
        <ele>889.2</ele>
        <time>2016-08-14T16:49:54Z</time>
      </trkpt>
      <trkpt lat="44.37249" lon="5.61577">
        <ele>890</ele>
        <time>2016-08-14T16:49:59Z</time>
      </trkpt>
      <trkpt lat="44.37259" lon="5.61573">
        <ele>891.4</ele>
        <time>2016-08-14T16:50:06Z</time>
      </trkpt>
      <trkpt lat="44.37268" lon="5.61568">
        <ele>892.5</ele>
        <time>2016-08-14T16:50:13Z</time>
      </trkpt>
      <trkpt lat="44.37277" lon="5.61565">
        <ele>895</ele>
        <time>2016-08-14T16:50:32Z</time>
      </trkpt>
      <trkpt lat="44.37271" lon="5.61575">
        <ele>896.5</ele>
        <time>2016-08-14T16:52:37Z</time>
      </trkpt>
      <trkpt lat="44.37263" lon="5.61583">
        <ele>896.8</ele>
        <time>2016-08-14T16:52:45Z</time>
      </trkpt>
      <trkpt lat="44.37256" lon="5.61592">
        <ele>897.4</ele>
        <time>2016-08-14T16:52:53Z</time>
      </trkpt>
      <trkpt lat="44.37252" lon="5.61604">
        <ele>898.5</ele>
        <time>2016-08-14T16:53:01Z</time>
      </trkpt>
      <trkpt lat="44.37258" lon="5.61614">
        <ele>899.4</ele>
        <time>2016-08-14T16:53:10Z</time>
      </trkpt>
      <trkpt lat="44.37267" lon="5.61617">
        <ele>900.6</ele>
        <time>2016-08-14T16:53:18Z</time>
      </trkpt>
      <trkpt lat="44.37276" lon="5.61616">
        <ele>901.5</ele>
        <time>2016-08-14T16:53:25Z</time>
      </trkpt>
      <trkpt lat="44.37286" lon="5.61616">
        <ele>902.6</ele>
        <time>2016-08-14T16:53:32Z</time>
      </trkpt>
      <trkpt lat="44.37295" lon="5.61614">
        <ele>903.9</ele>
        <time>2016-08-14T16:53:40Z</time>
      </trkpt>
      <trkpt lat="44.37304" lon="5.61611">
        <ele>905.2</ele>
        <time>2016-08-14T16:53:48Z</time>
      </trkpt>
      <trkpt lat="44.37314" lon="5.61612">
        <ele>905.9</ele>
        <time>2016-08-14T16:53:55Z</time>
      </trkpt>
      <trkpt lat="44.37324" lon="5.6161">
        <ele>906.8</ele>
        <time>2016-08-14T16:54:02Z</time>
      </trkpt>
      <trkpt lat="44.37333" lon="5.61609">
        <ele>908</ele>
        <time>2016-08-14T16:54:09Z</time>
      </trkpt>
      <trkpt lat="44.37342" lon="5.61608">
        <ele>909</ele>
        <time>2016-08-14T16:54:16Z</time>
      </trkpt>
      <trkpt lat="44.37352" lon="5.61606">
        <ele>910</ele>
        <time>2016-08-14T16:54:24Z</time>
      </trkpt>
      <trkpt lat="44.37361" lon="5.61604">
        <ele>910.6</ele>
        <time>2016-08-14T16:54:31Z</time>
      </trkpt>
      <trkpt lat="44.37371" lon="5.61601">
        <ele>911.5</ele>
        <time>2016-08-14T16:54:39Z</time>
      </trkpt>
      <trkpt lat="44.37381" lon="5.61599">
        <ele>912.3</ele>
        <time>2016-08-14T16:54:48Z</time>
      </trkpt>
      <trkpt lat="44.3739" lon="5.61595">
        <ele>913.4</ele>
        <time>2016-08-14T16:54:56Z</time>
      </trkpt>
      <trkpt lat="44.37399" lon="5.61593">
        <ele>914.3</ele>
        <time>2016-08-14T16:55:03Z</time>
      </trkpt>
      <trkpt lat="44.37409" lon="5.61593">
        <ele>915.3</ele>
        <time>2016-08-14T16:55:11Z</time>
      </trkpt>
      <trkpt lat="44.37419" lon="5.61593">
        <ele>916.1</ele>
        <time>2016-08-14T16:55:18Z</time>
      </trkpt>
      <trkpt lat="44.37428" lon="5.61588">
        <ele>917</ele>
        <time>2016-08-14T16:55:25Z</time>
      </trkpt>
      <trkpt lat="44.37437" lon="5.61584">
        <ele>917.4</ele>
        <time>2016-08-14T16:55:32Z</time>
      </trkpt>
      <trkpt lat="44.37446" lon="5.61582">
        <ele>917.6</ele>
        <time>2016-08-14T16:55:38Z</time>
      </trkpt>
      <trkpt lat="44.37457" lon="5.6158">
        <ele>917.8</ele>
        <time>2016-08-14T16:55:44Z</time>
      </trkpt>
      <trkpt lat="44.37466" lon="5.61579">
        <ele>918.1</ele>
        <time>2016-08-14T16:55:49Z</time>
      </trkpt>
      <trkpt lat="44.37476" lon="5.61577">
        <ele>918.5</ele>
        <time>2016-08-14T16:55:56Z</time>
      </trkpt>
      <trkpt lat="44.37485" lon="5.61573">
        <ele>918.6</ele>
        <time>2016-08-14T16:56:06Z</time>
      </trkpt>
      <trkpt lat="44.37494" lon="5.61568">
        <ele>918.8</ele>
        <time>2016-08-14T16:56:15Z</time>
      </trkpt>
      <trkpt lat="44.37501" lon="5.6156">
        <ele>918.6</ele>
        <time>2016-08-14T16:56:25Z</time>
      </trkpt>
      <trkpt lat="44.3751" lon="5.61557">
        <ele>918.3</ele>
        <time>2016-08-14T16:56:51Z</time>
      </trkpt>
      <trkpt lat="44.37518" lon="5.61563">
        <ele>918.5</ele>
        <time>2016-08-14T16:57:02Z</time>
      </trkpt>
      <trkpt lat="44.37527" lon="5.61569">
        <ele>918.4</ele>
        <time>2016-08-14T16:57:13Z</time>
      </trkpt>
      <trkpt lat="44.37536" lon="5.61568">
        <ele>918.7</ele>
        <time>2016-08-14T16:57:20Z</time>
      </trkpt>
      <trkpt lat="44.37546" lon="5.61567">
        <ele>919.1</ele>
        <time>2016-08-14T16:57:25Z</time>
      </trkpt>
      <trkpt lat="44.37555" lon="5.61567">
        <ele>919.4</ele>
        <time>2016-08-14T16:57:30Z</time>
      </trkpt>
      <trkpt lat="44.37565" lon="5.61568">
        <ele>919.6</ele>
        <time>2016-08-14T16:57:36Z</time>
      </trkpt>
      <trkpt lat="44.37574" lon="5.61568">
        <ele>919.8</ele>
        <time>2016-08-14T16:57:42Z</time>
      </trkpt>
      <trkpt lat="44.37584" lon="5.6157">
        <ele>919.9</ele>
        <time>2016-08-14T16:57:49Z</time>
      </trkpt>
      <trkpt lat="44.37593" lon="5.61571">
        <ele>920.4</ele>
        <time>2016-08-14T16:57:59Z</time>
      </trkpt>
      <trkpt lat="44.37603" lon="5.61567">
        <ele>921</ele>
        <time>2016-08-14T16:58:06Z</time>
      </trkpt>
      <trkpt lat="44.37612" lon="5.61563">
        <ele>921.5</ele>
        <time>2016-08-14T16:58:12Z</time>
      </trkpt>
      <trkpt lat="44.37621" lon="5.61563">
        <ele>922</ele>
        <time>2016-08-14T16:58:18Z</time>
      </trkpt>
      <trkpt lat="44.37627" lon="5.61552">
        <ele>922.9</ele>
        <time>2016-08-14T16:58:29Z</time>
      </trkpt>
      <trkpt lat="44.37624" lon="5.61539">
        <ele>924.8</ele>
        <time>2016-08-14T16:58:48Z</time>
      </trkpt>
      <trkpt lat="44.37621" lon="5.61527">
        <ele>924.1</ele>
        <time>2016-08-14T17:00:16Z</time>
      </trkpt>
      <trkpt lat="44.37627" lon="5.61537">
        <ele>923.5</ele>
        <time>2016-08-14T17:01:30Z</time>
      </trkpt>
      <trkpt lat="44.37636" lon="5.6154">
        <ele>925.5</ele>
        <time>2016-08-14T17:03:15Z</time>
      </trkpt>
      <trkpt lat="44.37636" lon="5.61537">
        <ele>925.1</ele>
        <time>2016-08-14T17:04:39Z</time>
      </trkpt>
    </trkseg>
  </trk>
</gpx>